     2              OBSERVATION DATA    GPS                 RINEX VERSION / TYPE
teqc 1998Mar9 19980522 19:03:13UTC                          PGM / RUN BY / DATE
                                                            COMMENT
Original Marker Name: hect                                  COMMENT
Campaign Name: Landers 1997-1998                            COMMENT
4-Character Station Name: HECT                              COMMENT
6-Character Antenna Code: DMRCHT                            COMMENT
Vertical Measurement Point: BCR                             COMMENT
Vertical Offset to Rinex Ref. Point: 0.0349                 COMMENT
Radial Measurement Point: ECF                               COMMENT
Radial Offset to Rinex Ref. Point: 0.1896                   COMMENT
Antenna Height from Field Measurement: 0.8400 m             COMMENT
Additional Antenna Identification Info.:                    COMMENT
Turborogue and Ashtech Choke Ring                           COMMENT
Original XYZ: -2332586.8434 -4695789.4423 3618633.8013      COMMENT
New XYZ position is based on association with SCEC monument COMMENT
E1F2T3H9+0011. Position of that monument is believed to be  COMMENT
valid to within 1 m horizontally; vertical accuracy         COMMENT
should be no worse than 3-times this value.                 COMMENT
                                                            COMMENT
Revised Rinex header created by UCSD GPS archive for        COMMENT
GSAC on 16-Apr-1999 (1999:106) 03:28:31 GMT                 COMMENT
For assistance contact dagnew@ucsd.edu or hjohnson@ucsd.edu COMMENT
                                                            COMMENT
HECT                                                        MARKER NAME
JAB UNIV CALIF LOS ANGELES                                  OBSERVER / AGENCY
085 ASHTECH Z12-XII3 1E95                                   REC # / TYPE / VERS
749 DORNE-MARGOL. TYPE T                                    ANT # / TYPE
 -2333615.0000 -4696774.0000  3618642.0000                  APPROX POSITION XYZ
        0.7834        0.0000        0.0000                  ANTENNA: DELTA H/E/N
     1     1     0                                          WAVELENGTH FACT L1/2
     7    C1    L1    L2    P1    P2    S1    S2            # / TYPES OF OBSERV
     0                                                      INTERVAL
  1998     1    25     0     0   30.000000                  TIME OF FIRST OBS
  1998     1    25     4    49   60.000000                  TIME OF LAST OBS
     0                                                      # OF SATELLITES
                                                            END OF HEADER
 98  1 25  0  0 30.0000000  0  6G 7G 4G 9G26G 2G27
  20787714.687   -74903066.44149 -57300705.94648  20787713.875    20787718.840
       247.000         213.000
  22401301.160   -32575917.14249 -24835580.29646  22401300.882    22401305.748
       234.000         183.000
  23043888.399   -29964063.26549 -21779627.49046  23043888.238    23043892.928
       227.000         174.000
  23666478.927   -54157193.56849 -41126934.65346  23666479.647    23666484.133
       221.000         163.000
  21865921.798   -93351372.44749 -72716286.73947  21865921.108    21865926.541
       242.000         202.000
  23232569.938  -101788237.14049 -78028823.45545  23232569.037    23232575.205
       220.000         162.000
 98  1 25  0  0 59.9990000  0  6G 7G 4G 9G26G 2G27
  20472685.240   -74983137.12249 -57363098.68448  20472684.346    20472689.387
       247.000         213.000
  22062722.904   -32779737.91149 -24994401.65146  22062722.835    22062728.350
       234.000         183.000
  22706209.069   -30163160.36849 -21934768.05146  22706208.549    22706213.363
       227.000         175.000
  23354825.008   -54219525.79849 -41175505.24546  23354824.521    23354830.023
       220.000         163.000
  21550022.208   -93436016.02949 -72782242.78247  21550021.281    21550026.985
       242.000         202.000
  22931419.269  -101795374.75449 -78034385.26545  22931418.879    22931426.019
       221.000         162.000
 98  1 25  0  1 29.9990000  0  6G 7G 4G 9G26G 2G27
  20457509.403   -75062886.82849 -57425241.32448  20457508.701    20457513.828
       247.000         213.000
  22024001.058   -32983222.53649 -25152961.07346  22024001.161    22024006.352
       234.000         183.000
  22668378.586   -30361960.67049 -22089677.36346  22668377.439    22668383.523
       227.000         175.000
  23343030.051   -54281508.36949 -41223803.39345  23343030.146    23343036.064
       221.000         162.000
  21533960.734   -93520419.75849 -72848011.93847  21533960.200    21533965.434
       242.000         202.000
  22930107.930  -101802266.70949 -78039755.64146  22930106.957    22930113.555
       220.000         163.000
 98  1 25  0  1 59.9990000  0  6G 7G 4G 9G26G 2G27
  20442393.311   -75142322.54649 -57487139.28148  20442392.566    20442397.594
       247.000         213.000
  21985346.502   -33186353.49149 -25311244.91446  21985346.491    21985351.347
       233.000         184.000
  22630600.058   -30560488.28649 -22244374.17446  22630599.482    22630604.552
       229.000         175.000
  23331299.519   -54343152.74649 -41271837.99846  23331299.777    23331305.411
       222.000         163.000
  21517944.904   -93604583.72849 -72913594.25747  21517944.447    21517949.507
       242.000         202.000
  22928841.011  -101808924.53949 -78044943.60546  22928840.814    22928846.657
       219.000         164.000
 98  1 25  0  2 29.9990000  0  6G 7G 4G 9G26G 2G27
  20427335.769   -75221450.58449 -57548797.49248  20427335.010    20427340.059
       248.000         213.000
  21946757.591   -33389139.54249 -25469259.98446  21946757.146    21946761.647
       235.000         184.000
  22592872.894   -30758745.82749 -22398860.53646  22592872.670    22592877.739
       228.000         175.000
  23319628.935   -54404482.53349 -41319627.45746  23319629.486    23319634.914
       222.000         163.000
  21501976.559   -93688498.11049 -72978982.09247  21501975.762    21501981.080
       242.000         201.000
  22927616.014  -101815362.04549 -78049959.91246  22927615.112    22927620.894
       218.000         164.000
 98  1 25  0  2 59.9990000  0  6G 7G 4G 9G26G 2G27
  20412337.800   -75300265.41349 -57610211.65248  20412337.023    20412342.123
       247.000         213.000
  21908234.009   -33591582.15649 -25627007.46246  21908233.396    21908238.871
       233.000         184.000
  22555199.708   -30956719.49149 -22553125.70746  22555199.430    22555204.852
       229.000         175.000
  23308019.074   -54465492.89149 -41367168.02346  23308019.214    23308024.473
       222.000         163.000
  21486056.505   -93772158.55849 -73044172.06147  21486055.583    21486061.032
       242.000         201.000
  22926434.105  -101821572.83249 -78054799.54045  22926434.170    22926438.858
       218.000         162.000
 98  1 25  0  3 29.9990000  0  6G 7G 4G 9G26G 2G27
  20397398.454   -75378772.34349 -57671385.88848  20397397.615    20397402.758
       247.000         213.000
  21869774.861   -33793686.30049 -25784491.17746  21869775.060    21869780.007
       234.000         184.000
  22517583.931   -31154391.62149 -22707155.91446  22517583.571    22517589.266
       229.000         176.000
  23296471.377   -54526176.72349 -41414454.14746  23296471.119    23296475.765
       221.000         163.000
  21470182.679   -93855576.17649 -73109172.81447  21470182.052    21470187.325
       242.000         201.000
  22925294.970  -101827559.27949 -78059464.33445  22925294.119    22925300.412
       218.000         161.000
 98  1 25  0  3 59.9990000  0  6G 7G 4G 9G26G 2G27
  20382517.026   -75456974.86249 -57732322.91948  20382516.398    20382521.332
       245.000         213.000
  21831380.667   -33995448.83849 -25941708.71246  21831380.460    21831385.769
       233.000         184.000
  22480032.073   -31351727.59749 -22860924.18246  22480030.729    22480036.770
       229.000         176.000
  23284984.167   -54586542.49649 -41461492.44045  23284984.750    23284989.310
       221.000         162.000
  21454356.286   -93938744.31549 -73173979.16447  21454355.619    21454360.909
       242.000         201.000
  22924197.632  -101833326.05249 -78063957.96545  22924196.849    22924203.217
       218.000         160.000
 98  1 25  0  4 29.9990000  0  6G 7G 4G 9G26G 2G27
  20367690.637   -75534888.21649 -57793034.62348  20367689.892    20367695.127
       245.000         213.000
  21793047.655   -34196889.97149 -26098675.79446  21793047.737    21793052.957
       234.000         185.000
  22442547.229   -31548711.53249 -23014418.12646  22442546.808    22442552.193
       229.000         177.000
  23273555.561   -54646600.17749 -41508290.65546  23273555.763    23273561.225
       222.000         163.000
  21438574.513   -94021678.14049 -73238602.92747  21438573.824    21438579.304
       242.000         201.000
  22923141.632  -101838875.57649 -78068282.29945  22923142.029    22923147.653
       218.000         160.000
 98  1 25  0  4 59.9990000  0  6G 7G 4G 9G26G 2G27
  20352920.361   -75612506.64549 -57853516.52048  20352919.507    20352924.757
       246.000         213.000
  21754777.233   -34398002.30649 -26255386.67846  21754777.071    21754782.352
       234.000         185.000
  22405129.237   -31745344.30349 -23167638.44546  22405128.662    22405133.972
       229.000         177.000
  23262188.569   -54706334.37049 -41554836.80546  23262188.112    23262194.631
       221.000         163.000
  21422834.129   -94104394.46949 -73303057.22247  21422833.611    21422838.624
       241.000         200.000
  22922129.589  -101844193.92349 -78072426.51645  22922129.120    22922135.689
       219.000         160.000
 98  1 25  0  5 29.9990000  0  6G 7G 4G 9G26G 2G27
  20338202.840   -75689847.71949 -57913782.29548  20338201.916    20338207.250
       245.000         213.000
  21716570.001   -34598782.50249 -26411838.75446  21716569.931    21716575.139
       234.000         186.000
  22367777.188   -31941630.64949 -23320588.81746  22367777.370    22367781.963
       229.000         177.000
  23250881.230   -54765755.16449 -41601138.75346  23250880.930    23250886.641
       221.000         163.000
  21407133.782   -94186900.23549 -73367347.43747  21407133.000    21407138.044
       241.000         200.000
  22921159.609  -101849291.28249 -78076398.55645  22921158.692    22921165.372
       218.000         161.000
 98  1 25  0  5 59.9990000  0  6G 7G 4G 9G26G 2G27
  20323539.615   -75766903.44849 -57973825.71348  20323538.647    20323543.927
       245.000         213.000
  21678427.835   -34799220.65549 -26568024.29146  21678427.757    21678432.864
       235.000         186.000
  22330486.507   -32137594.44449 -23473287.83846  22330486.276    22330491.142
       230.000         177.000
  23239631.529   -54824872.72549 -41647204.39546  23239631.068    23239636.923
       220.000         163.000
  21391473.979   -94269193.16649 -73431471.79947  21391473.071    21391478.523
       241.000         200.000
  22920232.998  -101854160.87949 -78080193.09145  22920233.622    22920238.429
       217.000         159.000
 98  1 25  0  6 29.9990000  0  6G 7G 4G 9G26G 2G27
  20308933.084   -75843661.19249 -58033636.94847  20308932.189    20308937.394
       245.000         212.000
  21640351.392   -34999313.90149 -26723941.08646  21640351.716    21640355.795
       235.000         186.000
  22293251.045   -32333268.31649 -23625760.95746  22293250.794    22293255.811
       229.000         178.000
  23228441.847   -54883675.38849 -41693024.68246  23228441.944    23228447.209
       221.000         163.000
  21375851.862   -94351288.04849 -73495441.85147  21375851.126    21375856.527
       241.000         200.000
  22919352.156  -101858789.71349 -78083800.02145  22919352.173    22919358.401
       218.000         158.000
 98  1 25  0  6 59.9980000  0  6G 7G 4G 9G26G 2G27
  20294384.600   -75920113.97649 -58093210.54747  20294383.800    20294388.705
       245.000         212.000
  21602343.462   -35199046.91649 -26879577.17446  21602343.339    21602348.517
       234.000         186.000
  22256070.285   -32528654.48849 -23778009.89546  22256070.113    22256074.841
       229.000         178.000
  23217311.164   -54942167.59349 -41738603.05346  23217310.620    23217316.458
       220.000         163.000
  21360269.822   -94433172.21249 -73559247.69947  21360268.993    21360274.581
       241.000         200.000
  22918513.967  -101863194.83149 -78087232.60645  22918514.702    22918519.592
       218.000         158.000
 98  1 25  0  7 29.9980000  0  7G 7G 4G 9G24G26G 2G27
  20279890.769   -75996279.47749 -58152560.29147  20279889.974    20279894.905
       245.000         212.000
  21564400.689   -35398437.42049 -27034946.37646  21564400.496    21564406.208
       235.000         187.000
  22218941.731   -32723766.01949 -23930044.82546  22218940.817    22218946.484
       230.000         179.000
  24004977.524    -4849559.67949  -2680019.16545  24004976.750    24004983.837
       212.000         138.000
  23206234.093   -55000377.83249 -41783961.71246  23206234.578    23206239.610
       221.000         163.000
  21344729.016   -94514839.71949 -73622884.72647  21344728.322    21344733.583
       241.000         200.000
  22917714.469  -101867396.56949 -78090506.75045  22917715.486    22917719.827
       219.000         157.000
 98  1 25  0  7 59.9980000  0  7G 7G 4G 9G24G26G 2G27
  20265451.329   -76072159.12849 -58211687.30047  20265450.501    20265455.640
       245.000         212.000
  21526523.209   -35597484.87949 -27190048.26546  21526523.098    21526528.362
       235.000         187.000
  22181864.554   -32918607.88449 -24081869.62746  22181864.405    22181869.361
       231.000         179.000
  23962229.822    -5074200.05549  -2855063.54145  23962227.935    23962238.296
       202.000         136.000
  23195210.551   -55058307.10649 -41829101.45546  23195209.291    23195215.816
       222.000         163.000
  21329229.944   -94596287.82349 -73686350.79447  21329229.172    21329234.473
       241.000         200.000
  22916952.753  -101871399.54549 -78093626.00545  22916951.704    22916958.650
       215.000         156.000
 98  1 25  0  8 29.9980000  0  7G 7G 4G 9G24G26G 2G27
  20251064.198   -76147764.27349 -58270600.39547  20251063.520    20251068.452
       245.000         212.000
  21488708.416   -35796202.98449 -27344893.51146  21488708.387    21488713.533
       234.000         187.000
  22144840.787   -33113168.77049 -24233475.47346  22144840.426    22144845.319
       231.000         179.000
  23919478.946    -5298856.86749  -3030120.60145  23919479.419    23919486.888
       209.000         141.000
  23184239.668   -55115959.93349 -41874025.74446  23184239.735    23184244.010
       221.000         164.000
  21313774.463   -94677506.94449 -73749638.42047  21313773.492    21313778.985
       241.000         200.000
  22916225.164  -101875222.96449 -78096605.31645  22916224.468    22916229.536
       212.000         152.000
 98  1 25  0  8 59.9980000  0  7G 7G 4G 9G24G26G 2G27
  20236726.884   -76223107.66149 -58329309.53247  20236726.006    20236731.104
       245.000         212.000
  21450954.776   -35994599.49849 -27499488.17547  21450954.983    21450959.396
       236.000         188.000
  22107870.052   -33307451.00849 -24384864.20946  22107869.990    22107874.837
       231.000         179.000
  23876724.143    -5523534.59049  -3205194.01945  23876723.858    23876729.464
       209.000         138.000
  23173318.635   -55173350.73749 -41918745.87946  23173318.835    23173323.717
       222.000         164.000
  21298364.708   -94758485.73349 -73812738.78147  21298363.949    21298369.352
       241.000         199.000
  22915527.396  -101878889.84149 -78099462.68245  22915525.951    22915532.443
       213.000         152.000
 98  1 25  0  9 29.9980000  0  7G 7G 4G 9G24G26G 2G27
  20222440.294   -76298183.97249 -58387810.55447  20222439.427    20222444.406
       245.000         211.000
  21413265.322   -36192658.85249 -27653820.10647  21413265.795    21413270.116
       236.000         188.000
  22070955.514   -33501438.29349 -24536023.10846  22070954.836    22070960.188
       232.000         179.000
  23833969.390    -5748211.91049  -3380267.19345  23833969.916    23833974.872
       212.000         138.000
  23162451.002   -55230460.74149 -41963247.21446  23162451.389    23162455.389
       222.000         164.000
  21283003.449   -94839209.75249 -73875640.61747  21283002.494    21283008.118
       241.000         199.000
  22914866.130  -101882364.66849 -78102170.39545  22914866.078    22914871.285
       216.000         152.000
 98  1 25  0  9 59.9980000  0  7G 7G 4G 9G24G26G 2G27
  20208206.301   -76372984.08949 -58446096.36547  20208205.401    20208210.440
       245.000         211.000
  21375642.941   -36390365.74349 -27807877.40147  21375642.681    21375648.237
       235.000         189.000
  22034098.398   -33695123.63949 -24686946.73746  22034098.021    22034102.758
       232.000         179.000
  23791213.668    -5972894.22549  -3555344.15545  23791212.466    23791220.897
       211.000         139.000
  23151640.024   -55287272.61149 -42007516.22946  23151638.654    23151645.699
       221.000         163.000
  21267690.622   -94919679.21849 -73938344.10147  21267689.965    21267695.496
       241.000         199.000
  22914243.257  -101885638.27349 -78104721.30845  22914241.611    22914247.755
       213.000         152.000
 98  1 25  0 10 29.9980000  0  7G 7G 4G 9G24G26G 2G27
  20194026.770   -76447498.09649 -58504159.23447  20194026.117    20194031.089
       245.000         211.000
  21338090.100   -36587707.02449 -27961649.80647  21338089.958    21338094.400
       236.000         189.000
  21997301.972   -33888490.23949 -24837621.98146  21997301.555    21997306.703
       232.000         180.000
  23748457.357    -6197580.24449  -3730424.06145  23748456.156    23748461.784
       208.000         136.000
  23140883.580   -55343798.34249 -42051562.29746  23140883.180    23140888.253
       222.000         163.000
  21252424.323   -94999904.27749 -74000857.14647  21252423.513    21252429.175
       241.000         199.000
  22913658.890  -101888709.56949 -78107114.54845  22913657.975    22913665.790
       212.000         152.000
 98  1 25  0 10 59.9980000  0  7G 7G 4G 9G24G26G 2G27
  20179899.628   -76521736.89549 -58562007.65747  20179898.787    20179903.845
       246.000         211.000
  21300610.868   -36784661.49349 -28115120.79147  21300610.924    21300615.668
       237.000         189.000
  21960567.985   -34081528.43249 -24988041.33346  21960567.835    21960572.433
       232.000         180.000
  23705700.541    -6422268.57449  -3905505.74845  23705700.175    23705706.603
       217.000         137.000
  23130180.387   -55400044.24949 -42095390.30146  23130180.319    23130186.039
       221.000         163.000
  21237198.952   -95079914.31949 -74063202.64747  21237198.134    21237203.407
       240.000         199.000
  22913113.053  -101891578.26849 -78109349.93645  22913113.522    22913117.830
       214.000         151.000
 98  1 25  0 11 29.9980000  0  7G 7G 4G 9G24G26G 2G27
  20165823.512   -76595707.29549 -58619646.92747  20165822.781    20165827.884
       245.000         211.000
  21263207.794   -36981216.12649 -28268280.21347  21263207.708    21263213.097
       236.000         190.000
  21923900.093   -34274219.45849 -25138190.15146  21923899.530    21923904.615
       231.000         180.000
  23662941.787    -6646967.23549  -4080595.52145  23662941.556    23662948.258
       212.000         138.000
  23119528.524   -55456020.54449 -42139008.21846  23119528.573    23119533.811
       220.000         163.000
  21222012.497   -95159719.60649 -74125388.58547  21222011.817    21222017.362
       240.000         199.000
  22912605.051  -101894248.28449 -78111430.55845  22912605.583    22912611.560
       215.000         152.000
 98  1 25  0 11 59.9980000  0  7G 7G 4G 9G24G26G 2G27
  20151798.715   -76669408.23049 -58677076.23047  20151797.801    20151803.018
       245.000         211.000
  21225880.846   -37177370.70049 -28421127.90047  21225880.519    21225885.320
       236.000         190.000
  21887296.703   -34466571.27049 -25288074.65046  21887296.490    21887300.976
       232.000         181.000
  23620179.366    -6871683.92349  -4255699.24245  23620178.920    23620185.576
       212.000         137.000
  23108925.630   -55511739.10449 -42182425.30746  23108924.764    23108931.443
       220.000         163.000
  21206862.429   -95239333.86949 -74187425.68547  21206861.565    21206867.104
       240.000         199.000
  22912130.261  -101896743.48749 -78113374.91245  22912131.252    22912135.977
       213.000         151.000
 98  1 25  0 12 29.9980000  0  7G 7G 4G 9G24G26G 2G27
  20137823.455   -76742848.50949 -58734302.42247  20137822.466    20137827.630
       245.000         211.000
  21188630.552   -37373122.26049 -28573661.55447  21188630.316    21188635.453
       237.000         191.000
  21850758.402   -34658581.13649 -25437692.70346  21850758.055    21850763.679
       231.000         181.000
  23577414.720    -7096413.54849  -4430813.17045  23577412.027    23577421.404
       214.000         137.000
  23098371.631   -55567200.76849 -42225642.21346  23098371.110    23098377.651
       219.000         163.000
  21191749.129   -95318754.64849 -74249312.00547  21191748.128    21191753.980
       240.000         198.000
  22911689.190  -101899061.64249 -78115181.33445  22911688.608    22911693.839
       215.000         151.000
 98  1 25  0 12 59.9980000  0  7G 7G 4G 9G24G26G 2G27
  20123892.977   -76816053.57649 -58791345.33847  20123892.219    20123897.309
       245.000         211.000
  21151454.570   -37568483.13649 -28725890.78447  21151454.553    21151459.168
       237.000         191.000
  21814282.099   -34850265.28049 -25587056.94946  21814281.317    21814286.604
       231.000         181.000
  23534644.098    -7321173.51949  -4605950.67245  23534643.875    23534651.685
       211.000         140.000
  23087865.971   -55622408.23349 -42268661.07045  23087865.303    23087870.874
       221.000         162.000
  21176673.150   -95397979.31849 -74311045.53147  21176672.465    21176677.779
       240.000         198.000
  22911277.605  -101901224.32749 -78116866.58945  22911278.042    22911281.198
       216.000         149.000
 98  1 25  0 13 29.9970000  0  7G 7G 4G 9G24G26G 2G27
  20110011.414   -76889001.73549 -58848188.06347  20110010.569    20110015.745
       245.000         211.000
  21114353.444   -37763450.82949 -28877813.63347  21114353.617    21114358.009
       237.000         191.000
  21777871.165   -35041605.87249 -25736153.48546  21777870.864    21777875.970
       232.000         182.000
  23491872.559    -7545939.25749  -4781092.69345  23491872.365    23491879.974
       213.000         139.000
  23077412.717   -55677340.21649 -42311465.24045  23077411.930    23077417.388
       221.000         162.000
  21161640.903   -95476974.56649 -74372600.28347  21161640.061    21161645.497
       240.000         198.000
  22910898.915  -101903213.95249 -78118417.01945  22910897.546    22910905.022
       213.000         148.000
 98  1 25  0 13 59.9970000  0  7G 7G 4G 9G24G26G 2G27
  20096175.582   -76961709.35049 -58904843.34447  20096174.698    20096179.936
       245.000         211.000
  21077320.917   -37958057.84649 -29029455.42747  21077320.974    21077325.662
       237.000         191.000
  21741520.328   -35232630.76749 -25885004.02346  21741519.829    21741524.922
       232.000         182.000
  23449098.840    -7770716.18749  -4956243.45745  23449097.468    23449105.464
       215.000         140.000
  23067010.665   -55732003.85049 -42354060.30345  23067010.961    23067015.714
       220.000         162.000
  21146649.203   -95555756.72649 -74433988.98647  21146648.730    21146653.915
       239.000         197.000
  22910551.390  -101905040.71149 -78119840.45045  22910552.425    22910557.508
       213.000         147.000
 98  1 25  0 14 29.9970000  0  7G 7G 4G 9G24G26G 2G27
  20082386.008   -77034174.01349 -58961309.31847  20082384.874    20082390.312
       245.000         210.000
  21040359.387   -38152292.02249 -29180806.70947  21040359.622    21040364.211
       238.000         192.000
  21705235.643   -35423308.00349 -26033583.65846  21705234.899    21705240.492
       231.000         183.000
  23406328.547    -7995475.46749  -5131380.42445  23406326.737    23406333.545
       216.000         141.000
  23056660.122   -55786396.17649 -42396443.96345  23056659.966    23056665.758
       219.000         162.000
  21131700.689   -95634311.43449 -74495200.45547  21131699.789    21131705.177
       240.000         197.000
  22910233.748  -101906710.12649 -78121141.35745  22910233.056    22910238.491
       213.000         149.000
 98  1 25  0 14 59.9970000  0  7G 7G 4G 9G24G26G 2G27
  20068644.705   -77106384.91949 -59017577.56547  20068644.007    20068648.819
       245.000         210.000
  21003467.633   -38346159.40049 -29331872.17747  21003467.432    21003472.399
       238.000         192.000
  21669020.388   -35613620.34049 -26181878.95846  21669019.910    21669025.019
       232.000         183.000
  23363563.980    -8220204.45849  -5306493.89945  23363563.681    23363570.329
       212.000         140.000
  23046361.491   -55840516.03949 -42438615.33045  23046361.706    23046366.285
       220.000         162.000
  21116796.338   -95712634.35549 -74556231.32047  21116795.697    21116801.402
       240.000         197.000
  22909945.222  -101908226.84949 -78122323.28545  22909944.715    22909951.997
       216.000         152.000
 98  1 25  0 15 29.9970000  0  7G 7G 4G 9G24G26G 2G27
  20054948.696   -77178357.95449 -59073660.44147  20054948.018    20054953.131
       245.000         210.000
  20966641.242   -38539683.15449 -29482669.86647  20966641.346    20966645.891
       238.000         192.000
  21632872.193   -35803580.15049 -26329899.54746  21632871.745    21632877.017
       233.000         183.000
  23320805.322    -8444902.32149  -5481583.02745  23320804.013    23320812.097
       212.000         142.000
  23036110.552   -55894385.50649 -42480591.54945  23036110.752    23036116.424
       220.000         162.000
  21101934.465   -95790734.01849 -74617088.20047  21101933.905    21101938.951
       239.000         197.000
  22909683.655  -101909602.04749 -78123394.91245  22909683.776    22909691.282
       216.000         154.000
 98  1 25  0 15 59.9970000  0  7G 7G 4G 9G24G26G 2G27
  20041301.332   -77250075.51949 -59129544.26147  20041300.446    20041305.505
       244.000         210.000
  20929886.167   -38732832.26349 -29633175.64747  20929885.951    20929891.155
       238.000         192.000
  21596792.310   -35993181.13049 -26477640.54446  21596791.332    21596797.463
       233.000         184.000
  23278057.315    -8669543.94349  -5656628.39445  23278057.596    23278064.304
       214.000         142.000
  23025906.751   -55948006.54049 -42522374.21345  23025906.896    23025911.504
       219.000         161.000
  21087118.329   -95868593.54249 -74677757.96547  21087117.622    21087123.355
       239.000         197.000
  22909448.865  -101910835.88149 -78124356.42145  22909449.038    22909455.668
       216.000         154.000
 98  1 25  0 16 29.9970000  0  7G 7G 4G 9G24G26G 2G27
  20027703.045   -77321534.91649 -59185226.90647  20027702.190    20027707.369
       245.000         210.000
  20893207.295   -38925580.82449 -29783369.30147  20893206.764    20893211.808
       238.000         193.000
  21560782.862   -36182412.14749 -26625093.25246  21560782.721    21560787.514
       233.000         184.000
  23235320.150    -8894128.95749  -5831629.60345  23235318.704    23235326.205
       213.000         143.000
  23015749.401   -56001383.77949 -42563966.90345  23015748.639    23015755.926
       219.000         160.000
  21072349.604   -95946203.61249 -74738233.35547  21072349.036    21072354.207
       239.000         196.000
  22909243.825  -101911914.17149 -78125196.70845  22909243.860    22909249.702
       212.000         152.000
 98  1 25  0 16 59.9970000  0  7G 7G 4G 9G24G26G 2G27
  20014152.957   -77392741.14149 -59240712.27347  20014152.291    20014157.315
       245.000         210.000
  20856604.923   -39117927.48149 -29933249.78347  20856605.133    20856609.560
       238.000         193.000
  21524840.763   -36371289.14849 -26772270.10246  21524840.033    21524845.778
       234.000         185.000
  23192589.654    -9118678.62149  -6006603.34845  23192588.985    23192597.475
       213.000         143.000
  23005636.399   -56054528.39249 -42605378.32145  23005636.070    23005643.000
       218.000         160.000
  21057627.890   -96023566.70549 -74798516.28947  21057627.158    21057631.917
       239.000         196.000
  22909070.933  -101912823.37749 -78125905.20545  22909070.071    22909075.625
       210.000         149.000
 98  1 25  0 17 29.9970000  0  7G 7G 4G 9G24G26G 2G27
  20000649.794   -77463700.96149 -59296005.64147  20000649.009    20000654.109
       244.000         209.000
  20820081.308   -39309860.11249 -30082807.64847  20820081.328    20820086.225
       238.000         193.000
  21488960.962   -36559838.56149 -26919191.70046  21488960.632    21488965.184
       233.000         185.000
  23149864.989    -9343197.50549  -6181553.05345  23149864.752    23149873.162
       210.000         144.000
  22995561.670   -56107471.89649 -42646633.03445  22995561.454    22995568.046
       219.000         160.000
  21042949.368   -96100702.97649 -74858622.48447  21042948.720    21042954.377
       238.000         196.000
  22908926.364  -101913582.98649 -78126497.19345  22908925.631    22908931.126
       214.000         148.000
 98  1 25  0 17 59.9970000  0  7G 7G 4G 9G24G26G 2G27
  19987195.351   -77534404.59849 -59351099.38647  19987194.653    19987199.672
       245.000         209.000
  20783640.510   -39501357.69749 -30232026.52147  20783640.265    20783645.242
       239.000         193.000
  21453143.286   -36748061.60949 -27065858.98546  21453142.568    21453147.901
       234.000         186.000
  23107144.527    -9567694.73349  -6356485.91045  23107143.877    23107151.224
       210.000         144.000
  22985525.010   -56160214.91449 -42687731.52245  22985525.032    22985530.569
       220.000         158.000
  21028309.300   -96177636.98949 -74918571.07747  21028308.565    21028313.864
       239.000         196.000
  22908810.287  -101914193.32949 -78126972.80645  22908811.200    22908815.227
       215.000         147.000
 98  1 25  0 18 29.9970000  0  7G 7G 4G 9G24G26G 2G27
  19973786.803   -77604867.18349 -59406005.29347  19973785.956    19973791.060
       245.000         209.000
  20747278.739   -39692440.03249 -30380921.81047  20747278.528    20747282.844
       238.000         193.000
  21417388.975   -36935951.95549 -27212267.01946  21417388.421    21417393.468
       234.000         186.000
  23064423.573    -9792194.51949  -6531420.77145  23064423.722    23064430.171
       212.000         144.000
  22975527.136   -56212754.27849 -42728671.32545  22975527.643    22975531.621
       218.000         158.000
  21013705.105   -96254382.73949 -74978372.96147  21013704.715    21013709.515
       239.000         195.000
  22908721.800  -101914658.86849 -78127335.60345  22908721.712    22908726.244
       216.000         150.000
 98  1 25  0 18 59.9970000  0  7G 7G 4G 9G24G26G 2G27
  19960424.552   -77675086.39249 -59460721.56147  19960423.816    19960428.697
       245.000         209.000
  20710991.679   -39883129.58149 -30529511.04047  20710991.589    20710996.298
       238.000         194.000
  21381697.034   -37123514.18649 -27358419.37946  21381696.060    21381701.194
       234.000         186.000
  23021702.605   -10016694.20849  -6706355.54345  23021702.157    23021710.044
       209.000         146.000
  22965568.187   -56265088.90249 -42769451.56645  22965568.598    22965573.727
       218.000         158.000
  20999136.404   -96330941.85849 -75038029.42947  20999135.731    20999141.040
       238.000         195.000
  22908656.014  -101915005.20549 -78127605.47945  22908655.638    22908662.444
       214.000         151.000
 98  1 25  0 19 29.9970000  0  7G 7G 4G 9G24G26G 2G27
  19947108.909   -77745060.52549 -59515246.86147  19947108.174    19947113.308
       244.000         209.000
  20674779.539   -40073425.59949 -30677793.62547  20674779.358    20674784.294
       239.000         194.000
  21346069.729   -37310736.58249 -27504306.93346  21346068.934    21346073.970
       233.000         186.000
  22978986.318   -10241169.94049  -6881271.66845  22978987.308    22978993.228
       211.000         145.000
  22955648.946   -56317214.94849 -42810069.31145  22955649.754    22955654.718
       219.000         157.000
  20984604.297   -96407308.37449 -75097535.81047  20984603.681    20984609.328
       239.000         195.000
  22908610.856  -101915242.43349 -78127790.38345  22908610.249    22908615.749
       212.000         153.000
 98  1 25  0 19 59.9970000  0  7G 7G 4G 9G24G26G 2G27
  19933836.252   -77814808.77749 -59569596.14947  19933835.433    19933840.471
       244.000         209.000
  20638641.062   -40263334.43149 -30825774.50347  20638641.206    20638645.784
       239.000         195.000
  21310511.188   -37497597.79049 -27649913.04646  21310510.850    21310515.822
       234.000         186.000
  22936273.476   -10465627.69849  -7056173.75045  22936273.748    22936280.303
       211.000         146.000
  22945774.193   -56369106.79949 -42850504.54145  22945774.561    22945780.490
       216.000         157.000
  20970114.749   -96483451.50349 -75156868.12847  20970113.992    20970119.956
       238.000         195.000
  22908588.881  -101915357.54449 -78127880.14745  22908587.435    22908595.696
       210.000         151.000
 98  1 25  0 20 29.9960000  0  7G 7G 4G 9G24G26G 2G27
  19920602.116   -77884354.69049 -59623787.77247  19920601.335    19920606.343
       245.000         209.000
  20602577.998   -40452847.15649 -30973446.73147  20602578.032    20602582.927
       241.000         195.000
  21275025.782   -37684074.90049 -27795219.86846  21275025.256    21275030.427
       234.000         187.000
  22893567.172   -10690050.65649  -7231048.72945  22893566.873    22893573.566
       213.000         146.000
  22935942.372   -56420772.97249 -42890763.92245  22935940.319    22935949.558
       215.000         156.000
  20955673.613   -96559340.23949 -75216002.21947  20955672.810    20955678.270
       238.000         195.000
  22908588.791  -101915357.44849 -78127880.13145  22908586.865    22908593.883
       206.000         148.000
 98  1 25  0 20 59.9960000  0  7G 7G 4G 9G24G26G 2G27
  19907404.739   -77953707.41749 -59677828.85947  19907404.021    19907409.054
       244.000         209.000
  20566591.962   -40641955.14649 -31120803.58547  20566592.175    20566596.876
       241.000         195.000
  21239610.120   -37870185.25649 -27940240.90246  21239609.394    21239614.397
       234.000         187.000
  22850867.498   -10914438.80149  -7405896.57645  22850866.564    22850874.272
       213.000         146.000
  22926152.037   -56472221.80849 -42930853.95045  22926150.836    22926158.242
       215.000         155.000
  20941282.526   -96634965.98749 -75274931.38047  20941281.692    20941287.496
       238.000         195.000
  22908612.140  -101915234.69649 -78127784.54545  22908609.799    22908618.082
       206.000         149.000
 98  1 25  0 21 29.9960000  0  7G 7G 4G 9G24G26G 2G27
  19894244.996   -78022862.30749 -59731715.78947  19894244.091    19894249.256
       244.000         208.000
  20530686.548   -40830639.31549 -31267830.19047  20530686.242    20530691.135
       240.000         196.000
  21204266.412   -38055917.57349 -28084967.36046  21204266.112    21204271.348
       233.000         187.000
  22808174.844   -11138790.23549  -7580715.80045  22808174.979    22808181.076
       212.000         148.000
  22916401.835   -56523459.63449 -42970779.58645  22916401.645    22916407.389
       216.000         154.000
  20926943.941   -96710315.84449 -75333645.56847  20926942.889    20926948.450
       238.000         194.000
  22908663.317  -101914965.67349 -78127574.97745  22908663.462    22908669.745
       215.000         149.000
 98  1 25  0 21 59.9960000  0  7G 7G 4G 9G24G26G 2G27
  19881123.140   -78091818.08249 -59785447.57347  19881122.415    19881127.484
       244.000         208.000
  20494863.594   -41018889.99449 -31414519.01647  20494863.591    20494868.323
       240.000         196.000
  21168994.306   -38241273.62849 -28229400.63346  21168994.180    21168998.832
       234.000         187.000
  22765487.584   -11363112.68249  -7755512.44445  22765486.751    22765494.450
       214.000         149.000
  22906691.578   -56574486.67949 -43010540.95245  22906690.678    22906697.455
       215.000         154.000
  20912656.481   -96785397.12949 -75392150.48547  20912655.680    20912660.740
       237.000         194.000
  22908744.007  -101914542.51749 -78127245.28845  22908743.267    22908751.120
       213.000         150.000
 98  1 25  0 22 29.9960000  0  7G 7G 4G 9G24G26G 2G27
  19868042.240   -78160558.59549 -59839011.61047  19868041.601    19868046.728
       244.000         208.000
  20459121.478   -41206716.07749 -31560876.98147  20459121.495    20459126.148
       241.000         196.000
  21133791.526   -38426265.56249 -28373550.17346  21133791.770    21133795.929
       234.000         187.000
  22722807.214   -11587399.18749  -7930281.07245  22722806.558    22722813.107
       217.000         150.000
  22897016.375   -56625330.62749 -43050159.66445  22897014.457    22897022.944
       213.000         154.000
  20898414.111   -96860241.41549 -75450470.71547  20898413.589    20898418.516
       238.000         194.000
  22908852.537  -101913972.22449 -78126800.88645  22908852.481    22908859.724
       213.000         150.000
 98  1 25  0 22 59.9960000  0  7G 7G 4G 9G24G26G 2G27
  19855008.293   -78229052.41049 -59892383.41647  19855007.284    19855012.655
       244.000         208.000
  20423459.121   -41394122.84649 -31706908.20847  20423459.143    20423463.904
       240.000         196.000
  21098659.018   -38610888.30049 -28517412.01847  21098658.673    21098663.086
       234.000         188.000
  22680136.350   -11811636.51049  -8105011.38845  22680135.389    22680143.149
       214.000         152.000
  22887378.324   -56675979.61649 -43089626.45245  22887377.718    22887385.602
       216.000         154.000
  20884216.646   -96934849.45049 -75508606.85947  20884216.258    20884221.015
       237.000         193.000
  22908990.653  -101913247.33649 -78126236.09245  22908989.816    22908996.475
       211.000         148.000
 98  1 25  0 23 29.9960000  0  7G 7G 4G 9G24G26G 2G27
  19842023.559   -78297287.57949 -59945553.67747  19842022.494    19842027.553
       244.000         208.000
  20387878.567   -41581099.71949 -31852604.44747  20387878.755    20387883.352
       241.000         197.000
  21063601.262   -38795117.93549 -28660967.55147  21063600.223    21063605.469
       235.000         188.000
  22637479.618   -12035798.60249  -8279683.09345  22637479.269    22637485.364
       215.000         154.000
  22877778.732   -56726425.94149 -43128935.31245  22877779.203    22877785.698
       215.000         153.000
  20870064.930   -97009216.99549 -75566555.61147  20870064.195    20870069.742
       237.000         193.000
  22909156.839  -101912374.06149 -78125555.62045  22909156.501    22909163.934
       209.000         145.000
 98  1 25  0 23 59.9960000  0  8G 7G 4G 9G24G26G 2G 5G27
  19829083.713   -78365286.60449 -59998539.93347  19829082.912    19829088.045
       244.000         208.000
  20352380.623   -41767642.68449 -31997962.58047  20352380.690    20352385.653
       240.000         197.000
  21028616.924   -38978961.98749 -28804222.63247  21028616.662    21028621.721
       235.000         188.000
  22594840.392   -12259869.03249  -8454283.37645  22594840.208    22594847.039
       218.000         155.000
  22868219.369   -56776659.91349 -43168078.69345  22868219.931    22868226.579
       215.000         152.000
  20855956.192   -97083358.90249 -75624328.54147  20855955.452    20855960.996
       237.000         193.000
  23552041.092   -12293632.14349  -7640338.53745  23552038.403    23552048.114
       214.000         140.000
  22909346.097  -101911379.55049 -78124780.76145  22909345.550    22909351.515
       204.000         144.000
 98  1 25  0 24 29.9960000  0  8G 7G 4G 9G24G26G 2G 5G27
  19816189.038   -78433048.67949 -60051341.54847  19816188.508    19816193.524
       245.000         208.000
  20316964.829   -41953753.84849 -32142984.24047  20316964.768    20316969.516
       240.000         197.000
  20993708.872   -39162405.03749 -28947165.25147  20993708.348    20993713.333
       235.000         189.000
  22552221.041   -12483834.87649  -8628802.15445  22552221.202    22552227.386
       218.000         155.000
  22858702.588   -56826670.97449 -43207048.38545  22858701.790    22858708.894
       213.000         151.000
  20841893.329   -97157259.95549 -75681913.79047  20841892.398    20841897.947
       238.000         193.000
  23514361.916   -12491636.96949  -7794627.92945  23514361.416    23514367.475
       210.000         140.000
  22909555.573  -101910278.16849 -78123922.58345  22909556.034    22909561.723
       205.000         144.000
 98  1 25  0 24 59.9960000  0  8G 7G 4G 9G24G26G 2G 5G27
  19803339.687   -78500572.76349 -60103957.71547  19803339.014    19803344.250
       244.000         208.000
  20281633.692   -42139419.92949 -32287659.08747  20281633.957    20281638.408
       241.000         198.000
  20958878.677   -39345438.44649 -29089788.66247  20958878.221    20958883.131
       235.000         189.000
  22509622.446   -12707691.61049  -8803235.89445  22509622.163    22509629.348
       216.000         155.000
  22849230.353   -56876448.30649 -43245835.96045  22849231.616    22849236.632
       216.000         151.000
  20827878.721   -97230907.44749 -75739301.45847  20827878.120    20827883.613
       237.000         193.000
  23476679.680   -12689657.85149  -7948929.83045  23476678.374    23476685.312
       213.000         139.000
  22909784.755  -101909073.95549 -78122984.32645  22909784.057    22909791.792
       208.000         145.000
 98  1 25  0 25 29.9960000  0  8G 7G 4G 9G24G26G 2G 5G27
  19790536.225   -78567855.46449 -60156385.79647  19790535.417    19790540.666
       244.000         207.000
  20246389.749   -42324627.98549 -32431977.03247  20246389.906    20246394.644
       241.000         198.000
  20924125.577   -39528066.86049 -29232096.49747  20924125.140    20924130.207
       235.000         189.000
  22467042.830   -12931448.83449  -8977592.14045  22467042.460    22467049.875
       216.000         154.000
  22839802.826   -56925991.14349 -43284440.80745  22839802.274    22839808.686
       215.000         151.000
  20813910.723   -97304309.90149 -75796498.18847  20813909.980    20813914.955
       237.000         193.000
  23438993.776   -12887697.82649  -8103246.61545  23438991.404    23438998.641
       212.000         138.000
  22910034.174  -101907763.50349 -78121963.20845  22910033.274    22910040.516
       211.000         147.000
 98  1 25  0 25 59.9960000  0  8G 7G 4G 9G24G26G 2G 5G27
  19777777.026   -78634905.55649 -60208632.62147  19777776.340    19777781.396
       244.000         207.000
  20211231.948   -42509383.55849 -32575942.39247  20211231.715    20211236.614
       241.000         198.000
  20889449.261   -39710292.21749 -29374090.25447  20889448.955    20889453.551
       235.000         190.000
  22424478.789   -13155123.88849  -9151884.30945  22424478.467    22424485.534
       215.000         154.000
  22830417.582   -56975310.75949 -43322871.69845  22830417.391    22830423.811
       217.000         151.000
  20799988.596   -97377471.03249 -75853506.87747  20799988.008    20799993.715
       236.000         192.000
  23401302.017   -13085769.15849  -8257587.82045  23401300.237    23401306.971
       218.000         139.000
  22910304.729  -101906342.16449 -78120855.74845  22910304.766    22910310.982
       213.000         148.000
 98  1 25  0 26 29.9960000  0  8G 7G 4G 9G24G26G 2G 5G27
  19765063.911   -78701713.59949 -60260690.83847  19765063.102    19765068.276
       244.000         207.000
  20176162.052   -42693676.92349 -32719547.59347  20176161.934    20176166.692
       241.000         198.000
  20854853.120   -39892096.27149 -29515755.73547  20854852.816    20854857.771
       236.000         190.000
  22381928.235   -13378727.91049  -9326121.14745  22381927.244    22381934.344
       217.000         153.000
  22821068.937   -57024438.90849 -43361153.41845  22821068.783    22821074.488
       217.000         150.000
  20786112.683   -97450389.31549 -75910326.33447  20786112.144    20786117.236
       236.000         192.000
  23363605.144   -13283867.37749  -8411950.00245  23363603.464    23363610.018
       207.000         140.000
  22910598.295  -101904799.25749 -78119653.49345  22910598.353    22910603.360
       212.000         145.000
 98  1 25  0 26 59.9960000  0  8G 7G 4G 9G24G26G 2G 5G27
  19752394.920   -78768289.61849 -60312568.25847  19752394.052    19752399.070
       244.000         207.000
  20141184.348   -42877485.94649 -32862775.38447  20141184.368    20141189.182
       241.000         198.000
  20820336.104   -40073484.23749 -29657096.98747  20820335.402    20820340.731
       236.000         190.000
  22339391.800   -13602257.87649  -9500300.26345  22339391.281    22339398.563
       217.000         153.000
  22811755.423   -57073382.56249 -43399291.35145  22811754.921    22811760.403
       213.000         151.000
  20772282.184   -97523069.08849 -75966959.93847  20772281.339    20772287.575
       236.000         192.000
  23325901.295   -13482001.41949  -8566340.09145  23325900.155    23325908.965
       207.000         141.000
  22910917.473  -101903122.96049 -78118347.34645  22910916.223    22910923.480
       214.000         142.000
 98  1 25  0 27 29.9950000  0  8G 7G 4G 9G24G26G 2G 5G27
  19739766.847   -78834650.48449 -60364278.02147  19739765.954    19739771.120
       244.000         207.000
  20106302.777   -43060789.96749 -33005609.66247  20106302.646    20106307.293
       241.000         199.000
  20785899.514   -40254449.89749 -29798109.15847  20785899.022    20785903.940
       236.000         191.000
  22296872.090   -13825700.59149  -9674411.40645  22296871.987    22296878.757
       217.000         152.000
  22802476.296   -57122144.08249 -43437287.38645  22802476.254    22802481.112
       216.000         151.000
  20758499.409   -97595498.14949 -76023398.17747  20758498.800    20758504.441
       236.000         191.000
  23288192.928   -13680159.36749  -8720748.80045  23288191.451    23288198.697
       211.000         141.000
  22911260.504  -101901320.67449 -78116942.96545  22911260.504    22911267.528
       204.000         135.000
 98  1 25  0 27 59.9950000  0  8G 7G 4G 9G24G26G 2G 5G27
  19727175.436   -78900818.85749 -60415837.79047  19727174.431    19727179.666
       243.000         206.000
  20071516.264   -43243594.26349 -33148054.54447  20071516.139    20071520.812
       241.000         199.000
  20751542.827   -40434995.40549 -29938793.95747  20751542.326    20751546.965
       236.000         191.000
  22254369.481   -14049053.28349  -9848452.37645  22254368.551    22254375.521
       216.000         153.000
  22793228.860   -57170739.85949 -43475154.25445  22793228.946    22793233.018
       215.000         150.000
  20744766.875   -97667663.27249 -76079630.75647  20744766.207    20744771.490
       236.000         191.000
  23250481.305   -13878335.39849  -8875171.60845  23250479.838    23250487.589
       211.000         141.000
  22911624.794  -101899407.08949 -78115451.84745  22911624.183    22911629.822
       206.000         132.000
 98  1 25  0 28 29.9950000  0  8G 7G 4G 9G24G26G 2G 5G27
  19714624.716   -78966773.28349 -60467230.85347  19714623.680    19714628.661
       243.000         206.000
  20036828.374   -43425880.33249 -33290095.62047  20036828.382    20036833.014
       242.000         199.000
  20717265.950   -40615121.31849 -30079151.79247  20717265.585    20717270.033
       235.000         191.000
  22211886.332   -14272303.28949 -10022413.34545  22211885.652    22211892.769
       219.000         153.000
  22784014.938   -57219159.62349 -43512883.98045  22784015.005    22784017.953
       215.000         151.000
  20731088.724   -97739542.64749 -76135640.67547  20731088.116    20731093.581
       236.000         191.000
  23212769.716   -14076510.98449  -9029594.07745  23212769.754    23212775.954
       209.000         142.000
  22912009.050  -101897387.56449 -78113878.22244  22912006.328    22912015.595
       204.000         131.000
 98  1 25  0 28 59.9950000  0  8G 7G 4G 9G24G26G 2G 5G27
  19702116.226   -79032505.63849 -60518450.87847  19702115.379    19702120.361
       243.000         206.000
  20002234.918   -43607670.08149 -33431749.95447  20002235.001    20002239.717
       242.000         200.000
  20683064.785   -40794849.14049 -30219199.42947  20683064.093    20683068.920
       236.000         191.000
  22169423.495   -14495447.24149 -10196291.67345  22169422.898    22169430.269
       218.000         154.000
  22774835.701   -57267397.10649 -43550471.64245  22774833.951    22774841.700
       212.000         152.000
  20717465.218   -97811134.97149 -76191426.92047  20717464.348    20717470.062
       236.000         191.000
  23175059.200   -14274680.56149  -9184011.85845  23175059.490    23175066.180
       212.000         142.000
  22912407.486  -101895294.16949 -78112247.04845  22912406.161    22912411.082
       209.000         135.000
 98  1 25  0 29 29.9950000  0  8G 7G 4G 9G24G26G 2G 5G27
  19689653.978   -79097995.25749 -60569481.74847  19689652.917    19689658.425
       243.000         205.000
  19967735.414   -43788965.97849 -33573019.45847  19967735.604    19967740.021
       242.000         200.000
  20648943.463   -40974157.26649 -30358920.02847  20648942.914    20648948.052
       237.000         191.000
  22126983.718   -14718469.54649 -10370075.21145  22126983.618    22126989.542
       218.000         155.000
  22765691.235   -57315451.48549 -43587916.65945  22765689.801    22765697.155
       213.000         152.000
  20703898.052   -97882431.01649 -76246982.28947  20703897.660    20703902.575
       236.000         191.000
  23137352.009   -14472833.61149  -9338416.79745  23137350.605    23137357.764
       212.000         143.000
  22912819.425  -101893129.41849 -78110560.32245  22912817.746    22912825.562
       211.000         144.000
 98  1 25  0 29 59.9950000  0  8G 7G 4G 9G24G26G 2G 5G27
  19677240.259   -79163229.75749 -60620313.83347  19677239.441    19677244.490
       243.000         205.000
  19933328.740   -43969774.33249 -33713909.07247  19933328.604    19933333.242
       242.000         200.000
  20614903.844   -41153036.31349 -30498306.28747  20614903.399    20614908.264
       237.000         191.000
  22084568.006   -14941365.12649 -10543760.00745  22084567.182    22084573.400
       219.000         154.000
  22756583.938   -57363311.52849 -43625210.24045  22756582.975    22756589.533
       217.000         152.000
  20690385.757   -97953438.65649 -76302312.93047  20690385.054    20690390.995
       235.000         191.000
  23099644.450   -14670988.25349  -9492822.97545  23099645.258    23099650.133
       214.000         144.000
  22913248.250  -101890875.68749 -78108804.16845  22913247.019    22913255.473
       214.000         149.000
 98  1 25  0 30 29.9950000  0  8G 7G 4G 9G24G26G 2G 5G27
  19664876.880   -79228199.60149 -60670939.68847  19664876.030    19664881.083
       243.000         205.000
  19899013.735   -44150100.84649 -33854423.21647  19899013.550    19899018.497
       242.000         201.000
  20580945.826   -41331486.88349 -30637358.65247  20580945.518    20580950.531
       237.000         191.000
  22042177.593   -15164128.35249 -10717341.66345  22042177.848    22042184.925
       218.000         154.000
  22747516.107   -57410963.42249 -43662341.59445  22747515.783    22747522.613
       216.000         153.000
  20676923.963   -98024180.58349 -76357436.52647  20676923.174    20676928.626
       236.000         190.000
  23061934.601   -14869155.60649  -9647239.05745  23061933.556    23061941.492
       213.000         145.000
  22913697.891  -101888512.56749 -78106962.81945  22913697.277    22913704.223
       216.000         151.000
 98  1 25  0 30 59.9950000  0  8G 7G 4G 9G24G26G 2G 5G27
  19652558.404   -79292933.70749 -60721381.85447  19652557.647    19652562.644
       242.000         205.000
  19864785.997   -44329968.61049 -33994579.89747  19864785.825    19864790.670
       242.000         201.000
  20547069.318   -41509509.34349 -30776077.43647  20547069.180    20547073.900
       237.000         192.000
  21999813.304   -15386753.78449 -10890815.95545  21999812.946    21999820.075
       217.000         153.000
  22738486.013   -57458416.45649 -43699318.02345  22738486.993    22738493.865
       219.000         153.000
  20663506.830   -98094687.97749 -76412377.36747  20663506.532    20663511.373
       236.000         190.000
  23024219.380   -15067350.43049  -9801676.54845  23024218.255    23024224.832
       213.000         146.000
  22914168.955  -101886037.09049 -78105033.94345  22914168.761    22914174.723
       215.000         149.000
 98  1 25  0 31 29.9950000  0  8G 7G 4G 9G24G26G 2G 5G27
  19640280.623   -79357453.81049 -60771657.26547  19640279.737    19640284.994
       243.000         205.000
  19830646.904   -44509370.61049 -34134373.64747  19830646.869    19830651.448
       242.000         201.000
  20513275.766   -41687095.91549 -30914456.56647  20513275.315    20513280.379
       237.000         192.000
  21957475.579   -15609239.69349 -11064181.53945  21957472.808    21957480.145
       217.000         153.000
  22729495.043   -57505664.34649 -43736134.57745  22729499.365    22729501.711
       221.000         153.000
  20650133.414   -98164965.88649 -76467139.39547  20650132.761    20650138.331
       235.000         190.000
  22986497.947   -15265578.10149  -9956139.67045  22986497.499    22986503.712
       213.000         146.000
  22914667.135  -101883418.48849 -78102993.55445  22914667.736    22914674.191
       216.000         147.000
 98  1 25  0 31 59.9950000  0  8G 7G 4G 9G24G26G 2G 5G27
  19628044.279   -79421756.37949 -60821763.16747  19628043.348    19628048.461
       243.000         205.000
  19796596.407   -44688307.04849 -34273804.61947  19796596.382    19796601.313
       242.000         201.000
  20479564.978   -41864247.12749 -31052496.45547  20479564.582    20479569.713
       237.000         192.000
  21915164.334   -15831586.25949 -11237438.52545  21915163.338    21915171.146
       217.000         153.000
  22720542.623   -57552711.05749 -43772794.33945  22720544.624    22720549.093
       220.000         154.000
  20636805.204   -98235006.27449 -76521716.33747  20636804.288    20636809.843
       236.000         190.000
  22948774.890   -15463814.29149 -10110609.39745  22948774.224    22948780.282
       212.000         146.000
  22915194.698  -101880646.00749 -78100833.22045  22915194.261    22915202.134
       210.000         140.000
 98  1 25  0 32 29.9950000  0  8G 7G 4G 9G24G26G 2G 5G27
  19615850.920   -79485832.88449 -60871692.91347  19615849.950    19615854.853
       243.000         205.000
  19762635.806   -44866771.03449 -34412867.44147  19762635.982    19762640.588
       242.000         201.000
  20445938.098   -42040957.64449 -31190192.94347  20445937.462    20445942.178
       238.000         193.000
  21872880.163   -16053790.59949 -11410584.70945  21872880.160    21872885.734
       218.000         154.000
  22711623.641   -57599580.85249 -43809316.30145  22711622.471    22711629.733
       214.000         152.000
  20623524.931   -98304794.85549 -76576097.06447  20623524.321    20623529.540
       236.000         190.000
  22911054.822   -15662034.10049 -10265066.37045  22911053.768    22911060.861
       214.000         147.000
  22915749.035  -101877731.78749 -78098562.40744  22915747.798    22915753.342
       206.000         127.000
 98  1 25  0 32 59.9950000  0  8G 7G 4G 9G24G26G 2G 5G27
  19603703.194   -79549669.39649 -60921435.65447  19603702.389    19603707.392
       243.000         204.000
  19728771.058   -45044731.52749 -34551537.93547  19728771.066    19728775.877
       242.000         201.000
  20412399.162   -42217206.00849 -31327529.31447  20412398.541    20412403.819
       237.000         193.000
  21830623.931   -16275848.28249 -11583616.61845  21830624.053    21830629.726
       218.000         155.000
  22702737.866   -57646275.96249 -43845702.14845  22702735.693    22702742.340
       211.000         152.000
  20610298.501   -98374300.16149 -76630257.06347  20610297.508    20610303.456
       236.000         189.000
  22873339.234   -15860230.36849 -10419504.99645  22873338.557    22873345.059
       215.000         147.000
  22916329.727  -101874679.85949 -78096184.37044  22916330.804    22916334.796
       198.000         124.000
 98  1 25  0 33 29.9950000  0  7G 7G 4G 9G24G26G 2G 5
  19591600.321   -79613270.56849 -60970995.01347  19591599.348    19591604.758
       242.000         204.000
  19695005.772   -45222169.01449 -34689800.89747  19695005.831    19695010.244
       242.000         201.000
  20378948.377   -42392991.05149 -31464504.65347  20378947.788    20378953.032
       237.000         193.000
  21788392.785   -16497774.23749 -11756545.88445  21788393.249    21788399.040
       218.000         154.000
  22693880.914   -57692819.70049 -43881970.07145  22693880.693    22693883.105
       218.000         153.000
  20597126.779   -98443518.03249 -76684193.08447  20597126.606    20597132.093
       235.000         189.000
  22835627.506   -16058406.84849 -10573928.19045  22835626.285    22835632.898
       210.000         147.000
 98  1 25  0 33 59.9940000  0  7G 7G 4G 9G24G26G 2G 5
  19579544.246   -79676625.56549 -61020362.54447  19579543.374    19579548.465
       242.000         204.000
  19661344.923   -45399057.75649 -34827636.26047  19661344.804    19661349.643
       243.000         202.000
  20345588.533   -42568298.16849 -31601107.57847  20345588.262    20345592.669
       237.000         194.000
  21746186.642   -16719568.65649 -11929372.65645  21746185.529    21746192.728
       217.000         155.000
  22685051.701   -57739217.70949 -43918124.40945  22685053.095    22685056.976
       220.000         154.000
  20584013.190   -98512430.36449 -76737891.02647  20584012.425    20584018.022
       235.000         189.000
  22797922.484   -16256547.81849 -10728323.72745  22797921.357    22797928.066
       213.000         147.000
 98  1 25  0 34 29.9940000  0  7G 7G 4G 9G24G26G 2G 5
  19567531.466   -79739753.17049 -61069552.88847  19567530.660    19567536.132
       242.000         204.000
  19627788.916   -45575395.76849 -34965042.48047  19627789.034    19627793.624
       243.000         202.000
  20312317.273   -42743139.71049 -31737347.71547  20312316.936    20312321.694
       237.000         194.000
  21704001.897   -16941250.63249 -12102111.81245  21704001.253    21704007.024
       218.000         156.000
  22676250.443   -57785468.57849 -43954164.04445  22676253.616    22676257.291
       222.000         154.000
  20570954.528   -98581054.10549 -76791364.08847  20570953.945    20570959.563
       235.000         188.000
  22760217.815   -16454686.86549 -10882717.73445  22760217.090    22760224.185
       212.000         147.000
 98  1 25  0 34 59.9940000  0  7G 7G 4G 9G24G26G 2G 5
  19555558.217   -79802673.18049 -61118581.47347  19555557.369    19555562.626
       242.000         204.000
  19594337.955   -45751181.86649 -35102018.65047  19594337.742    19594342.602
       243.000         202.000
  20279136.323   -42917506.79149 -31873218.14747  20279136.326    20279141.136
       238.000         194.000
  21661839.731   -17162814.11349 -12274758.63445  21661839.161    21661846.132
       218.000         157.000
  22667481.077   -57831551.57749 -43990072.90745  22667482.349    22667487.791
       220.000         154.000
  20557949.137   -98649398.02849 -76844619.11847  20557948.618    20557954.138
       235.000         188.000
  22722511.702   -16652834.00649 -11037118.03445  22722510.273    22722517.305
       213.000         147.000
 98  1 25  0 35 29.9940000  0  7G 7G 4G 9G24G26G 2G 5
  19543623.318   -79865391.50749 -61167452.89747  19543622.722    19543627.931
       242.000         204.000
  19560991.428   -45926418.86849 -35238566.94447  19560991.317    19560996.116
       242.000         202.000
  20246046.850   -43091393.27549 -32008714.08347  20246046.704    20246051.343
       238.000         194.000
  21619704.367   -17384236.66749 -12447295.64945  21619703.241    21619710.547
       218.000         158.000
  22658746.334   -57877452.99549 -44025840.25145  22658745.347    22658753.881
       213.000         154.000
  20544998.560   -98717453.84649 -76897649.64347  20544997.314    20545003.472
       235.000         188.000
  22684806.134   -16850978.06649 -11191515.92645  22684805.796    22684811.261
       213.000         148.000
 98  1 25  0 35 59.9940000  0  7G 7G 4G 9G24G26G 2G 5
  19531727.938   -79927902.05349 -61216162.41347  19531726.927    19531732.238
       242.000         204.000
  19527745.942   -46101125.06249 -35374701.61847  19527745.953    19527750.820
       243.000         203.000
  20213047.881   -43264804.15149 -32143839.41547  20213047.648    20213052.247
       238.000         194.000
  21577599.211   -17605500.55749 -12619708.99845  21577599.549    21577605.159
       221.000         159.000
  22650047.687   -57923164.78449 -44061459.82345  22650046.269    22650055.383
       214.000         154.000
  20532101.883   -98785226.39049 -76950459.43047  20532101.142    20532106.615
       235.000         188.000
  22647098.472   -17049133.42349 -11345922.60945  22647097.361    22647104.228
       211.000         149.000
 98  1 25  0 36 29.9940000  0  7G 7G 4G 9G24G26G 2G 5
  19519872.875   -79990200.75649 -61264706.85947  19519872.114    19519877.325
       242.000         203.000
  19494601.406   -46275300.47749 -35510422.69847  19494601.618    19494606.170
       242.000         203.000
  20180140.837   -43437731.74349 -32278588.16047  20180140.300    20180144.933
       238.000         195.000
  21535531.420   -17826568.28449 -12791969.50645  21535532.011    21535538.194
       220.000         160.000
  22641386.868   -57968677.48449 -44096924.35245  22641386.554    22641392.655
       217.000         154.000
  20519259.325   -98852714.33449 -77003047.45247  20519258.903    20519264.425
       235.000         188.000
  22609387.220   -17247307.37449 -11500343.76845  22609386.108    22609393.178
       214.000         150.000
 98  1 25  0 36 59.9940000  0  7G 7G 4G 9G24G26G 2G 5
  19508058.905   -80052283.67449 -61313083.16047  19508058.042    19508063.539
       242.000         203.000
  19461557.105   -46448949.49449 -35645733.60847  19461556.875    19461561.981
       243.000         203.000
  20147324.675   -43610181.60049 -32412964.65547  20147323.998    20147329.129
       237.000         195.000
  21493504.469   -18047421.58049 -12964062.93345  21493504.676    21493510.760
       220.000         161.000
  22632763.060   -58013996.60749 -44132237.96945  22632762.934    22632768.517
       215.000         153.000
  20506474.886   -98919897.15849 -77055397.72647  20506473.834    20506479.531
       235.000         188.000
  22571674.342   -17445489.78549 -11654771.53145  22571673.206    22571679.658
       210.000         150.000
 98  1 25  0 37 29.9940000  0  7G 7G 4G 9G24G26G 2G 5
  19496288.526   -80114137.61849 -61361281.04047  19496287.771    19496292.948
       242.000         203.000
  19428613.250   -46622070.35349 -35780632.95847  19428613.311    19428617.922
       243.000         203.000
  20114598.350   -43782159.26649 -32546973.20547  20114597.574    20114602.970
       238.000         195.000
  21451519.883   -18268051.88149 -13135982.59545  21451519.252    21451525.774
       221.000         162.000
  22624172.306   -58059140.46849 -44167415.10245  22624173.940    22624178.429
       218.000         153.000
  20493749.515   -98986769.37449 -77107505.96746  20493749.143    20493754.574
       234.000         187.000
  22533963.096   -17643662.91749 -11809192.05245  22533962.013    22533968.134
       214.000         151.000
 98  1 25  0 37 59.9940000  0  7G 7G 4G 9G24G26G 2G 5
  19484560.904   -80175766.81349 -61409303.79347  19484560.070    19484565.458
       242.000         203.000
  19395769.183   -46794667.21549 -35915124.01047  19395769.368    19395773.880
       243.000         203.000
  20081961.791   -43953665.16849 -32680614.15147  20081961.567    20081966.441
       238.000         195.000
  21409574.962   -18488473.54949 -13307739.69646  21409574.540    21409581.053
       222.000         163.000
  22615611.998   -58104126.03749 -44202468.80745  22615612.197    22615617.247
       214.000         152.000
  20481081.776   -99053339.05049 -77159378.46346  20481080.933    20481086.509
       234.000         187.000
  22496254.858   -17841820.82049 -11963600.70645  22496253.518    22496260.339
       216.000         151.000
 98  1 25  0 38 29.9940000  0  7G 7G 4G 9G24G26G 2G 5
  19472872.890   -80237187.65349 -61457164.18947  19472872.211    19472877.576
       242.000         203.000
  19363027.408   -46966726.47749 -36049196.14147  19363027.205    19363032.112
       243.000         203.000
  20049415.984   -44124694.49449 -32813883.73347  20049415.199    20049420.427
       238.000         195.000
  21367667.245   -18708699.90449 -13479344.58146  21367666.492    21367674.389
       221.000         164.000
  22607079.325   -58148965.71649 -44237408.85945  22607082.083    22607085.994
       220.000         155.000
  20468472.454   -99119601.81649 -77211011.79946  20468471.782    20468477.365
       235.000         187.000
  22458552.772   -18039946.33249 -12117984.12645  22458552.008    22458557.369
       215.000         150.000
 98  1 25  0 38 59.9940000  0  7G 7G 4G 9G24G26G 2G 5
  19461222.407   -80298411.59149 -61504871.15547  19461221.497    19461227.035
       242.000         203.000
  19330386.647   -47138254.62749 -36182854.42047  19330386.672    19330391.224
       244.000         204.000
  20016960.790   -44295247.50449 -32946782.15747  20016960.267    20016965.499
       237.000         195.000
  21325790.965   -18928761.04449 -13650820.73646  21325790.522    21325797.770
       220.000         164.000
  22598571.929   -58193672.29949 -44272245.18345  22598574.093    22598578.889
       219.000         151.000
  20455918.170   -99185575.06549 -77262419.54146  20455917.583    20455922.714
       234.000         187.000
  22420856.672   -18238040.40449 -12272343.05345  22420855.295    22420861.296
       215.000         150.000
 98  1 25  0 39 29.9940000  0  7G 7G 4G 9G24G26G 2G 5
  19449608.229   -80359444.50549 -61552429.27947  19449607.477    19449612.605
       242.000         203.000
  19297847.427   -47309249.38949 -36316097.07747  19297847.708    19297851.887
       244.000         204.000
  19984598.802   -44465310.69049 -33079298.91247  19984598.570    19984603.385
       239.000         196.000
  21283943.084   -19148672.92849 -13822180.58246  21283942.823    21283948.642
       222.000         164.000
  22590089.321   -58238248.83249 -44306980.15945  22590089.666    22590096.372
       213.000         152.000
  20443414.199   -99251283.97649 -77313621.30646  20443413.629    20443419.378
       234.000         187.000
  22383164.701   -18436112.35149 -12426684.75345  22383163.468    22383170.743
       215.000         150.000
 98  1 25  0 39 59.9940000  0  7G 7G 4G 9G24G26G 2G 5
  19438029.164   -80420292.90349 -61599843.62047  19438028.383    19438033.610
       241.000         203.000
  19265413.047   -47479693.12449 -36448910.35947  19265412.952    19265417.619
       243.000         204.000
  19952331.705   -44634875.68849 -33211427.46247  19952331.129    19952336.351
       239.000         196.000
  21242123.376   -19368436.50549 -13993424.87546  21242122.764    21242130.895
       223.000         165.000
  22581631.218   -58282695.86749 -44341614.26545  22581632.371    22581635.736
       215.000         150.000
  20430961.133   -99316725.12249 -77364614.42346  20430960.490    20430965.849
       234.000         186.000
  22345474.035   -18634177.55849 -12581021.21045  22345473.471    22345479.697
       215.000         151.000
 98  1 25  0 40 29.9940000  0  7G 7G 4G 9G24G26G 2G 5
  19426487.124   -80480946.81749 -61647106.40547  19426486.193    19426491.383
       242.000         202.000
  19233084.644   -47649579.88149 -36581289.62747  19233084.443    19233088.798
       243.000         204.000
  19920160.046   -44803939.04749 -33343165.12347  19920159.710    19920164.332
       238.000         196.000
  21200336.147   -19588029.55849 -14164536.27846  21200335.383    21200342.684
       221.000         164.000
  22573200.780   -58326999.48249 -44376136.56645  22573200.648    22573208.158
       212.000         151.000
  20418560.744   -99381889.81749 -77415392.12246  20418560.115    20418565.522
       233.000         186.000
  22307784.441   -18832236.97949 -12735353.14245  22307783.983    22307791.173
       215.000         151.000
 98  1 25  0 40 59.9930000  0  7G 7G 4G 9G24G26G 2G 5
  19414985.234   -80541389.69249 -61694204.75747  19414984.536    19414989.702
       241.000         202.000
  19200860.635   -47818918.02349 -36713241.41047  19200860.741    19200865.103
       243.000         204.000
  19888083.859   -44972500.20249 -33474511.46447  19888083.356    19888088.202
       238.000         197.000
  21158584.228   -19807437.09249 -14335503.12846  21158583.168    21158590.991
       221.000         164.000
  22564795.745   -58371167.38049 -44410553.22845  22564797.226    22564801.808
       217.000         149.000
  20406211.495   -99446785.78449 -77465960.42946  20406210.854    20406216.089
       233.000         186.000
  22270097.288   -19030284.03949 -12889675.45345  22270094.344    22270103.103
       214.000         151.000
 98  1 25  0 41 29.9930000  0  7G 7G 4G 9G24G26G 2G 5
  19403524.814   -80601614.60549 -61741133.26147  19403523.800    19403529.238
       241.000         202.000
  19168739.497   -47987715.69449 -36844772.04047  19168739.658    19168743.830
       244.000         204.000
  19856099.537   -45140579.08049 -33605481.99447  19856099.129    19856104.020
       240.000         197.000
  21116868.395   -20026654.79249 -14506322.05646  21116867.767    21116875.106
       223.000         165.000
  22556414.311   -58415213.49849 -44444874.85545  22556412.900    22556421.006
       205.000         147.000
  20393913.204   -99511413.70449 -77516319.86146  20393912.768    20393918.150
       234.000         186.000
  22232412.332   -19228319.58349 -13043988.79645  22232410.133    22232418.138
       216.000         152.000
 98  1 25  0 41 59.9930000  0  7G 7G 4G 9G24G26G 2G 5
  19392107.673   -80661612.25649 -61787884.68447  19392106.774    19392111.987
       241.000         202.000
  19136721.317   -48155972.06749 -36975880.88647  19136721.523    19136725.823
       245.000         204.000
  19824207.382   -45308173.64249 -33736075.14547  19824207.147    19824211.692
       239.000         198.000
  21075194.785   -20245650.84349 -14676968.27846  21075195.056    21075201.927
       222.000         165.000
  22548055.376   -58459138.62949 -44479102.33745  22548058.284    22548061.102
       217.000         150.000
  20381669.746   -99575753.82549 -77566455.04446  20381669.304    20381674.590
       233.000         186.000
  22194733.641   -19426322.03549 -13198276.35145  22194732.486    22194739.246
       217.000         152.000
 98  1 25  0 42 29.9930000  0  7G 7G 4G 9G24G26G 2G 5
  19380731.142   -80721396.36049 -61834469.70047  19380730.400    19380735.446
       241.000         202.000
  19104800.936   -48323714.84049 -37106589.52147  19104800.912    19104805.547
       245.000         205.000
  19792402.134   -45475311.43349 -33866312.36847  19792401.566    19792406.316
       240.000         198.000
  21033559.638   -20464444.66549 -14847456.91646  21033559.670    21033565.614
       222.000         165.000
  22539717.161   -58502957.08549 -44513246.62545  22539716.709    22539724.171
       212.000         147.000
  20369474.926   -99639838.23849 -77616390.96346  20369474.166    20369479.195
       233.000         185.000
  22157060.098   -19624297.42849 -13352542.81345  22157059.217    22157065.586
       218.000         152.000
 98  1 25  0 42 59.9930000  0  7G 7G 4G 9G24G26G 2G 5
  19369395.652   -80780964.74249 -61880886.62747  19369394.797    19369400.053
       241.000         202.000
  19072981.738   -48490926.04149 -37236883.94347  19072981.749    19072986.013
       245.000         205.000
  19760684.822   -45641986.87449 -33996189.32247  19760684.513    19760689.005
       239.000         198.000
  20991962.514   -20683039.33949 -15017790.38646  20991961.817    20991968.231
       223.000         165.000
  22531399.786   -58546665.56949 -44547305.21845  22531401.395    22531407.492
       213.000         149.000
  20357330.794   -99703656.01449 -77666119.11446  20357330.293    20357335.654
       232.000         185.000
  22119394.277   -19822232.42349 -13506777.81445  22119393.083    22119399.178
       218.000         152.000
 98  1 25  0 43 29.9930000  0  7G 7G 4G 9G24G26G 2G 5
  19358098.179   -80840333.42349 -61927147.94047  19358097.388    19358102.707
       241.000         201.000
  19041267.697   -48657584.38149 -37366747.57247  19041267.785    19041272.200
       245.000         205.000
  19729058.286   -45808185.30849 -34125694.57947  19729057.728    19729062.926
       240.000         198.000
  20950404.804   -20901426.66549 -15187962.28046  20950404.797    20950410.650
       223.000         165.000
  22523108.333   -58590237.91949 -44581257.72145  22523109.466    22523115.904
       210.000         147.000
  20345243.172   -99767177.05849 -77715616.05646  20345242.362    20345248.634
       232.000         184.000
  22081736.032   -20020127.65749 -13660981.81945  22081734.353    22081741.469
       219.000         153.000
 98  1 25  0 43 59.9930000  0  7G 7G 4G 9G24G26G 2G 5
  19346833.590   -80899529.33749 -61973274.62747  19346832.567    19346837.813
       241.000         201.000
  19009658.799   -48823690.24949 -37496180.69747  19009658.597    19009663.446
       245.000         205.000
  19697522.726   -45973905.82849 -34254827.43747  19697522.409    19697527.005
       239.000         198.000
  20908884.594   -21119616.42149 -15357980.22946  20908884.800    20908890.155
       223.000         165.000
  22514842.824   -58633673.17649 -44615103.40245  22514844.937    22514845.959
       218.000         145.000
  20333213.995   -99830390.64049 -77764873.40746  20333213.070    20333218.865
       232.000         184.000
  22044082.281   -20217999.02749 -13815167.21945  22044081.470    22044087.121
       219.000         153.000
 98  1 25  0 44 29.9930000  0  7G 7G 4G 9G24G26G 2G 5
  19335602.285   -80958550.22549 -62019264.92147  19335601.262    19335606.550
       241.000         201.000
  18978159.590   -48989219.57049 -37625164.56047  18978159.524    18978164.017
       245.000         205.000
  19666079.644   -46139140.10949 -34383581.40047  19666079.217    19666083.979
       239.000         198.000
  20867402.172   -21337607.75449 -15527843.56446  20867401.559    20867408.121
       223.000         164.000
  22506603.476   -58676971.81249 -44648842.76345  22506604.332    22506611.168
       210.000         147.000
  20321246.025   -99893282.74949 -77813880.25046  20321245.385    20321251.644
       231.000         184.000
  22006432.865   -20415847.93549 -13969335.11645  22006431.914    22006438.161
       218.000         153.000
 98  1 25  0 44 59.9930000  0  7G 7G 4G 9G24G26G 2G 5
  19324401.586   -81017410.26749 -62065129.89647  19324400.776    19324406.171
       241.000         201.000
  18946771.493   -49154165.15149 -37753693.57447  18946771.583    18946776.077
       245.000         206.000
  19634733.020   -46303867.64749 -34511940.51347  19634732.557    19634737.158
       239.000         198.000
  20825959.789   -21555388.74149 -15697542.99146  20825959.628    20825966.149
       222.000         164.000
  22498387.488   -58720147.77649 -44682486.31645  22498388.969    22498395.460
       218.000         148.000
  20309340.305   -99955847.68849 -77862632.17546  20309340.056    20309345.438
       232.000         184.000
  21968786.940   -20613678.04349 -14123488.36845  21968785.866    21968792.586
       218.000         153.000
 98  1 25  0 45 29.9930000  0  7G 7G 4G 9G24G26G 2G 5
  19313231.843   -81076107.73349 -62110868.18247  19313231.018    19313236.126
       241.000         201.000
  18915495.023   -49318524.06549 -37881765.44147  18915494.775    18915499.519
       245.000         206.000
  19603485.874   -46468072.34449 -34639892.21147  19603485.310    19603490.012
       240.000         198.000
  20784559.268   -21772949.66049 -15867070.94546  20784559.729    20784565.494
       223.000         164.000
  22490190.879   -58763221.16749 -44716050.08345  22490191.984    22490198.571
       216.000         145.000
  20297494.168  -100018099.89149 -77911140.40446  20297493.308    20297499.211
       232.000         183.000
  21931142.273   -20811501.52649 -14277636.47345  21931140.537    21931146.500
       217.000         152.000
 98  1 25  0 45 59.9930000  0  7G 7G 4G 9G24G26G 2G 5
  19302095.171   -81134631.26349 -62156470.93147  19302094.178    19302099.427
       241.000         200.000
  18884329.682   -49482298.90149 -38009382.18147  18884329.551    18884334.324
       244.000         206.000
  19572337.496   -46631757.78649 -34767439.29747  19572336.663    19572341.733
       240.000         198.000
  20743201.309   -21990287.08949 -16036424.74646  20743200.481    20743207.890
       222.000         165.000
  22482008.116   -58806222.91449 -44749557.96645  22482008.429    22482009.805
       213.000         145.000
  20285700.957  -100080073.85749 -77959431.82246  20285700.552    20285705.790
       231.000         183.000
  21893497.192   -21009327.30849 -14431786.35545  21893496.318    21893501.498
       216.000         152.000
 98  1 25  0 46 29.9930000  0  7G 7G 4G 9G24G26G 2G 5
  19290993.057   -81192973.12549 -62201932.12347  19290992.084    19290997.701
       241.000         200.000
  18853274.761   -49645493.56049 -38136546.83647  18853274.680    18853279.491
       244.000         206.000
  19541289.369   -46794916.36149 -34894575.83347  19541288.987    19541293.576
       240.000         199.000
  20701885.739   -22207401.58749 -16205604.83446  20701885.783    20701891.604
       223.000         165.000
  22473837.998   -58849156.92549 -44783013.04845  22473835.787    22473844.387
       205.000         143.000
  20273956.191  -100141792.94549 -78007524.63746  20273955.373    20273961.560
       230.000         182.000
  21855851.647   -21207155.44649 -14585938.08645  21855850.719    21855857.093
       217.000         152.000
 98  1 25  0 46 59.9930000  0  7G 7G 4G 9G24G26G 2G 5
  19279923.644   -81251143.29549 -62247259.52547  19279922.757    19279927.706
       241.000         200.000
  18822325.721   -49808131.79749 -38263277.90747  18822325.695    18822330.179
       244.000         206.000
  19510340.578   -46957553.44349 -35021306.01247  19510340.243    19510345.188
       240.000         199.000
  20660609.878   -22424307.60949 -16374622.48246  20660609.817    20660615.241
       225.000         166.000
  22465679.471   -58892029.53049 -44816420.31645  22465679.214    22465686.248
       215.000         144.000
  20262256.018  -100203277.58349 -78055434.75446  20262255.193    20262260.842
       230.000         182.000
  21818204.146   -21404994.17849 -14740098.09645  21818202.783    21818209.876
       216.000         153.000
 98  1 25  0 47 29.9930000  0  7G 7G 4G 9G24G26G 2G 5
  19268888.267   -81309134.38049 -62292447.38147  19268887.607    19268892.471
       241.000         200.000
  18791478.331   -49970235.84649 -38389592.73647  18791478.430    18791482.957
       245.000         206.000
  19479485.832   -47119696.43049 -35147651.18247  19479485.543    19479489.754
       240.000         199.000
  20619373.819   -22641004.92949 -16543477.48146  20619374.264    20619379.576
       226.000         167.000
  22457533.382   -58934839.26249 -44849778.53245  22457531.544    22457538.498
       204.000         143.000
  20250602.648  -100264516.29749 -78103153.25246  20250602.500    20250607.583
       230.000         182.000
  21780552.920   -21602852.67349 -14894273.50745  21780553.107    21780558.601
       217.000         152.000
 98  1 25  0 47 59.9920000  0  7G 7G 4G 9G24G26G 2G 5
  19257886.954   -81366946.71449 -62337495.95447  19257885.853    19257891.332
       240.000         200.000
  18760732.648   -50131805.55849 -38515491.19747  18760732.735    18760737.092
       244.000         206.000
  19448723.286   -47281354.65049 -35273618.61747  19448722.849    19448727.793
       241.000         199.000
  20578177.793   -22857491.31649 -16712168.14146  20578177.474    20578183.611
       225.000         168.000
  22449403.391   -58977562.25949 -44883069.25045  22449405.100    22449409.825
       214.000         147.000
  20238997.586  -100325501.57749 -78150674.27146  20238996.724    20239002.587
       231.000         182.000
  21742901.209   -21800713.79649 -15048450.96445  21742901.542    21742906.855
       218.000         152.000
 98  1 25  0 48 29.9920000  0  7G 7G 4G 9G24G26G 2G 5
  19246919.119   -81424582.94349 -62382407.29747  19246918.306    19246923.324
       240.000         199.000
  18730086.932   -50292849.81649 -38640980.20847  18730087.081    18730091.303
       244.000         206.000
  19418051.045   -47442538.47449 -35399216.38847  19418050.573    19418055.506
       240.000         200.000
  20537019.058   -23073781.43449 -16880705.84746  20537018.278    20537024.770
       224.000         168.000
  22441292.989   -59020183.80349 -44916280.84545  22441293.076    22441302.056
       206.000         146.000
  20227443.960  -100386216.22249 -78197984.40246  20227443.023    20227448.961
       230.000         182.000
  21705250.627   -21998568.68849 -15202623.55645  21705249.948    21705255.808
       217.000         153.000
 98  1 25  0 48 59.9920000  0  8G 7G 4G 9G24G26G 2G 5G 8
  19235986.216   -81482035.86549 -62427175.80947  19235985.414    19235990.780
       240.000         199.000
  18699542.742   -50453360.54749 -38766053.49047  18699542.846    18699547.363
       245.000         207.000
  19387470.639   -47603239.69349 -35524438.10547  19387469.884    19387475.039
       240.000         200.000
  20495902.905   -23289847.90549 -17049069.28846  20495903.301    20495908.372
       227.000         168.000
  22433202.933   -59062696.62949 -44949407.78045  22433203.596    22433201.344
       218.000         139.000
  20215945.693  -100446640.22049 -78245068.05946  20215945.472    20215950.507
       229.000         181.000
  21667604.609   -22196400.07749 -15356777.85845  21667603.120    21667610.190
       217.000         153.000
  22102848.795    -8867231.08749  -6313213.78945  22102845.738    22102853.625
       211.000         134.000
 98  1 25  0 49 29.9920000  0  8G 7G 4G 9G24G26G 2G 5G 8
  19225086.165   -81539315.86449 -62471809.57647  19225085.290    19225090.414
       240.000         199.000
  18669104.396   -50613314.81849 -38890693.16447  18669104.528    18669108.831
       244.000         207.000
  19356983.696   -47763449.26049 -35649276.71347  19356983.359    19356988.039
       240.000         200.000
  20454830.513   -23505684.48949 -17217253.60246  20454830.535    20454837.112
       226.000         169.000
  22425132.655   -59105106.55049 -44982454.54045  22425131.594    22425139.950
       209.000         143.000
  20204501.566  -100506779.46449 -78291929.82746  20204501.075    20204506.777
       230.000         181.000
  21629965.220   -22394196.76449 -15510905.09845  21629964.357    21629969.333
       217.000         153.000
  22060938.176    -9087472.61449  -6484830.47144  22060937.900    22060941.771
       212.000         131.000
 98  1 25  0 49 59.9920000  0  8G 7G 4G 9G24G26G 2G 5G 8
  19214217.951   -81596428.80949 -62516313.16647  19214217.124    19214222.366
       240.000         199.000
  18638777.500   -50772683.66649 -39014876.65847  18638777.433    18638782.233
       245.000         207.000
  19326596.198   -47923136.76949 -35773708.52747  19326595.706    19326600.321
       240.000         200.000
  20413801.044   -23721295.61649 -17385262.22946  20413801.299    20413806.920
       227.000         170.000
  22417080.725   -59147419.26449 -45015425.49945  22417079.409    22417088.461
       212.000         146.000
  20193109.784  -100566643.54449 -78338577.18046  20193109.561    20193114.162
       230.000         180.000
  21592335.545   -22591941.97949 -15664992.22045  21592333.868    21592340.510
       218.000         154.000
  22019069.021    -9307495.82149  -6656277.02944  22019066.428    22019074.144
       206.000         130.000
 98  1 25  0 50 29.9920000  0  8G 7G 4G 9G24G26G 2G 5G 8
  19203378.094   -81653392.86949 -62560700.74147  19203377.229    19203382.252
       240.000         199.000
  18608558.862   -50931483.59649 -39138616.83747  18608558.983    18608563.529
       245.000         207.000
  19296308.657   -48082298.90749 -35897730.94847  19296308.304    19296312.953
       240.000         200.000
  20372813.792   -23936685.19749 -17553098.22746  20372813.944    20372819.764
       225.000         171.000
  22409041.539   -59189665.33849 -45048344.42745  22409040.234    22409048.567
       210.000         140.000
  20181770.673  -100626230.91049 -78385008.90646  20181769.881    20181775.707
       230.000         180.000
  21554711.843   -22789655.26849 -15819054.45245  21554710.904    21554716.674
       216.000         154.000
  21977239.125    -9527312.96249  -6827563.03645  21977239.953    21977245.077
       211.000         135.000
 98  1 25  0 50 59.9920000  0  8G 7G 4G 9G24G26G 2G 5G 8
  19192566.433   -81710208.38549 -62604972.57347  19192565.843    19192571.145
       240.000         198.000
  18578449.204   -51089710.92149 -39261910.84247  18578449.207    18578453.818
       245.000         208.000
  19266123.760   -48240921.47449 -36021332.94247  19266123.220    19266128.238
       240.000         200.000
  20331869.981   -24151846.15049 -17720756.06846  20331870.179    20331876.347
       227.000         172.000
  22401011.668   -59231862.64949 -45081225.62245  22401012.302    22401018.662
       215.000         146.000
  20170484.405  -100685540.63149 -78431224.30446  20170483.475    20170489.119
       230.000         181.000
  21517092.092   -22987348.04749 -15973100.71145  21517090.728    21517097.388
       217.000         154.000
  21935446.616    -9746933.60249  -6998695.92545  21935445.857    21935450.255
       206.000         135.000
 98  1 25  0 51 29.9920000  0  8G 7G 4G 9G24G26G 2G 5G 8
  19181781.808   -81766882.30149 -62649134.06147  19181781.139    19181786.016
       241.000         198.000
  18548450.288   -51247356.29849 -39384751.37147  18548450.355    18548454.626
       245.000         208.000
  19236040.586   -48399009.57249 -36144518.45247  19236040.246    19236044.639
       240.000         200.000
  20290965.920   -24366798.23649 -17888251.15646  20290964.667    20290972.109
       226.000         172.000
  22392987.129   -59274032.45949 -45114085.22745  22392987.517    22392991.603
       215.000         144.000
  20159248.788  -100744584.40749 -78477232.45746  20159247.883    20159253.822
       230.000         180.000
  21479474.535   -23185029.21449 -16127137.89945  21479473.160    21479479.821
       217.000         154.000
  21893689.782    -9966367.02149  -7169682.94545  21893688.994    21893694.072
       210.000         139.000
 98  1 25  0 51 59.9920000  0  8G 7G 4G 9G24G26G 2G 5G 8
  19171023.750   -81823416.20249 -62693186.45247  19171022.937    19171028.139
       241.000         198.000
  18518557.961   -51404441.54049 -39507155.43847  18518557.899    18518562.387
       245.000         208.000
  19206055.878   -48556580.04349 -36267300.63047  19206055.425    19206060.275
       240.000         200.000
  20250100.446   -24581547.25349 -18055588.01746  20250100.287    20250107.299
       225.000         172.000
  22384966.219   -59316182.61749 -45146929.50445  22384964.981    22384973.964
       207.000         140.000
  20148064.454  -100803358.68049 -78523030.62346  20148063.736    20148069.790
       230.000         180.000
  21441854.463   -23382724.33049 -16281185.96445  21441853.494    21441860.139
       216.000         155.000
  21851969.070   -10185610.64249  -7340522.08145  21851967.897    21851974.491
       208.000         141.000
 98  1 25  0 52 29.9920000  0  8G 7G 4G 9G24G26G 2G 5G 8
  19160294.146   -81879800.62249 -62737122.35647  19160293.125    19160298.253
       240.000         197.000
  18488773.627   -51560959.01049 -39629117.07847  18488773.458    18488778.059
       245.000         208.000
  19176168.047   -48713641.63049 -36389686.26147  19176167.735    19176172.679
       241.000         201.000
  20209277.050   -24796075.50449 -18222752.83146  20209276.049    20209283.064
       225.000         172.000
  22376950.134   -59358307.56349 -45179754.16445  22376950.959    22376957.105
       220.000         145.000
  20136933.860  -100861850.58249 -78568608.74146  20136933.071    20136938.686
       229.000         180.000
  21404232.439   -23580429.34549 -16435241.72745  21404232.118    21404237.626
       217.000         156.000
  21810288.615   -10404642.24749  -7511195.99045  21810288.352    21810294.389
       212.000         144.000
 98  1 25  0 52 59.9920000  0  8G 7G 4G 9G24G26G 2G 5G 8
  19149593.399   -81936033.38149 -62780940.09347  19149592.393    19149597.305
       241.000         197.000
  18459100.956   -51716889.90849 -39750621.65547  18459101.050    18459105.528
       245.000         208.000
  19146375.813   -48870200.97049 -36511680.54047  19146375.230    19146380.156
       242.000         201.000
  20168496.763   -25010376.96149 -18389740.94546  20168496.420    20168503.202
       227.000         173.000
  22368937.663   -59400413.50749 -45212564.14545  22368937.657    22368945.149
       216.000         143.000
  20125855.911  -100920065.68849 -78613971.18246  20125855.140    20125860.493
       230.000         179.000
  21366610.951   -23778131.01949 -16589294.90045  21366610.084    21366616.227
       218.000         157.000
  21768650.731   -10623450.70949  -7681696.04945  21768650.627    21768656.308
       208.000         145.000
 98  1 25  0 53 29.9920000  0  8G 7G 4G 9G24G26G 2G 5G 8
  19138921.631   -81992113.78549 -62824639.10347  19138920.711    19138926.095
       240.000         197.000
  18429542.460   -51872220.73449 -39871658.63447  18429542.593    18429546.886
       246.000         208.000
  19116677.402   -49026267.16249 -36633290.54247  19116677.040    19116681.854
       242.000         201.000
  20127761.355   -25224443.13649 -18556545.71146  20127760.891    20127767.560
       226.000         174.000
  22360933.821   -59442473.38849 -45245338.01345  22360934.997    22360943.235
       222.000         142.000
  20114833.464  -100977989.14249 -78659106.36346  20114832.941    20114838.887
       229.000         179.000
  21328989.652   -23975831.65749 -16743347.23845  21328989.008    21328995.497
       218.000         157.000
  21727059.543   -10842013.54549  -7852004.69345  21727057.541    21727063.261
       210.000         145.000
 98  1 25  0 53 59.9920000  0  8G 7G 4G 9G24G26G 2G 5G 8
  19128279.087   -82048040.69549 -62868218.50947  19128278.109    19128283.622
       240.000         196.000
  18400097.639   -52026954.34849 -39992230.25847  18400097.548    18400102.168
       245.000         208.000
  19087072.986   -49181839.48649 -36754515.71747  19087072.954    19087077.581
       242.000         202.000
  20087073.716   -25438257.81249 -18723154.50946  20087073.089    20087079.723
       226.000         174.000
  22352942.175   -59484471.38949 -45278063.65345  22352938.273    22352943.231
       202.000         139.000
  20103868.897  -101035608.43549 -78704004.53046  20103868.392    20103874.553
       229.000         179.000
  21291367.506   -24173537.05549 -16897403.30145  21291366.644    21291373.166
       219.000         158.000
  21685516.658   -11060322.14949  -8022115.23245  21685515.630    21685522.488
       208.000         143.000
 98  1 25  0 54 29.9910000  0  8G 7G 4G 9G24G26G 2G 5G 8
  19117668.150   -82103801.55649 -62911668.52647  19117667.164    19117672.322
       240.000         196.000
  18370768.163   -52181081.70049 -40112329.47147  18370768.042    18370772.642
       246.000         209.000
  19057568.209   -49336888.26449 -36875332.92747  19057567.920    19057572.362
       243.000         202.000
  20046438.612   -25651796.66049 -18889548.36746  20046437.780    20046445.060
       227.000         174.000
  22344963.692   -59526398.44149 -45310734.20545  22344963.853    22344972.371
       211.000         150.000
  20092962.606  -101092921.32249 -78748663.93746  20092961.582    20092967.839
       230.000         179.000
  21253749.413   -24371220.83149 -17051442.52145  21253748.806    21253754.216
       219.000         159.000
  21644025.211   -11278361.10449  -8192015.65745  21644024.384    21644030.040
       208.000         142.000
 98  1 25  0 54 59.9910000  0  8G 7G 4G 9G24G26G 2G 5G 8
  19107087.435   -82159403.38349 -62954994.61947  19107086.559    19107091.532
       240.000         196.000
  18341549.945   -52334624.22949 -40231972.97547  18341550.029    18341554.444
       246.000         209.000
  19028163.002   -49491413.95549 -36995742.54347  19028162.357    19028167.115
       243.000         202.000
  20005853.256   -25865073.92649 -19055738.40746  20005852.806    20005859.127
       227.000         174.000
  22336999.286   -59568251.44549 -45343346.74345  22337002.505    22337009.142
       218.000         139.000
  20082111.823  -101149942.69449 -78793096.19646  20082111.344    20082116.926
       229.000         179.000
  21216131.179   -24568905.61349 -17205482.51845  21216130.728    21216135.685
       221.000         160.000
  21602581.563   -11496148.12749  -8361719.75045  21602580.265    21602586.495
       208.000         140.000
 98  1 25  0 55 29.9910000  0  8G 7G 4G 9G24G26G 2G 5G 8
  19096538.398   -82214838.91249 -62998191.13447  19096537.642    19096542.693
       239.000         196.000
  18312441.587   -52487589.57949 -40351166.73547  18312441.501    18312446.030
       246.000         209.000
  18998860.207   -49645400.95849 -37115732.40547  18998859.773    18998864.558
       243.000         202.000
  19965318.692   -26078084.49849 -19221720.63246  19965317.808    19965324.774
       227.000         175.000
  22329051.807   -59610015.13149 -45375890.20145  22329052.698    22329058.108
       215.000         142.000
  20071315.344  -101206678.49049 -78837305.93346  20071314.708    20071321.282
       229.000         178.000
  21178513.251   -24766589.22349 -17359521.61245  21178512.291    21178518.481
       219.000         160.000
  21561188.518   -11713669.50549  -8531216.85945  21561186.991    21561192.923
       208.000         140.000
 98  1 25  0 55 59.9910000  0  8G 7G 4G 9G24G26G 2G 5G 8
  19086023.267   -82270096.26849 -63041248.80447  19086022.542    19086027.646
       239.000         196.000
  18283442.626   -52639980.00849 -40469912.49547  18283442.666    18283446.944
       246.000         209.000
  18969664.623   -49798824.59149 -37235283.27247  18969664.005    18969668.756
       242.000         202.000
  19924836.882   -26290817.64449 -19387486.68946  19924836.653    19924843.050
       226.000         175.000
  22321118.866   -59651703.32349 -45408374.45545  22321118.961    22321127.978
       214.000         141.000
  20060572.585  -101263132.33949 -78881295.95246  20060571.825    20060577.516
       229.000         178.000
  21140901.769   -24964238.10749 -17513533.62645  21140900.929    21140907.527
       220.000         160.000
  21519847.788   -11930915.98549  -8700499.75345  21519847.440    21519852.028
       206.000         140.000
 98  1 25  0 56 29.9910000  0  8G 7G 4G 9G24G26G 2G 5G 8
  19075539.433   -82325189.30749 -63084178.44347  19075538.799    19075543.497
       240.000         196.000
  18254551.043   -52791806.14249 -40588218.55947  18254550.947    18254555.472
       246.000         209.000
  18940575.952   -49951686.48049 -37354396.42747  18940575.502    18940580.044
       243.000         202.000
  19884408.717   -26503269.03949 -19553033.18846  19884408.381    19884414.922
       227.000         175.000
  22313195.103   -59693343.78549 -45440821.48145  22313190.949    22313200.979
       206.000         137.000
  20049879.598  -101319324.48149 -78925082.05746  20049878.798    20049884.296
       228.000         177.000
  21103297.978   -25161846.94849 -17667514.46045  21103297.001    21103302.045
       220.000         161.000
  21478558.698   -12147891.04749  -8869571.16445  21478558.044    21478563.826
       207.000         143.000
 98  1 25  0 56 59.9910000  0  8G 7G 4G 9G24G26G 2G 5G 8
  19065085.681   -82380124.14049 -63126984.79847  19065084.407    19065089.797
       239.000         195.000
  18225768.088   -52943061.53949 -40706079.88147  18225768.263    18225772.399
       246.000         209.000
  18911589.965   -50104008.91349 -37473089.21347  18911589.469    18911594.319
       242.000         202.000
  19844033.591   -26715441.49549 -19718362.33446  19844033.202    19844039.563
       227.000         176.000
  22305278.887   -59734943.44849 -45473236.86645  22305277.748    22305285.801
       208.000         143.000
  20039236.579  -101375253.98149 -78968663.50046  20039235.806    20039241.382
       228.000         177.000
  21065701.896   -25359415.08949 -17821463.56745  21065701.049    21065706.229
       220.000         161.000
  21437319.062   -12364606.95749  -9038440.62245  21437318.563    21437324.960
       214.000         145.000
 98  1 25  0 57 29.9910000  0  8G 7G 4G 9G24G26G 2G 5G 8
  19054660.637   -82434907.85449 -63169673.40347  19054659.873    19054665.273
       238.000         195.000
  18197095.570   -53093736.51549 -40823488.93947  18197095.453    18197099.961
       246.000         209.000
  18882707.293   -50255787.96149 -37591358.59847  18882707.104    18882711.619
       242.000         202.000
  19803710.621   -26927339.90249 -19883477.94646  19803710.816    19803716.565
       228.000         176.000
  22297367.950   -59776514.65449 -45505630.06745  22297371.081    22297376.502
       219.000         143.000
  20028645.400  -101430911.23049 -79012032.79846  20028644.588    20028651.098
       228.000         177.000
  21028117.090   -25556924.17149 -17975366.66845  21028115.678    21028122.651
       221.000         161.000
  21396128.346   -12581066.07649  -9207110.00545  21396128.758    21396132.989
       216.000         147.000
 98  1 25  0 57 59.9910000  0  8G 7G 4G 9G24G26G 2G 5G 8
  19044261.982   -82489553.08849 -63212254.10647  19044261.302    19044266.460
       239.000         195.000
  18168534.415   -53243826.37549 -40940442.06047  18168534.705    18168539.045
       246.000         210.000
  18853927.301   -50407027.79449 -37709207.81047  18853926.908    18853931.833
       242.000         202.000
  19763441.628   -27138954.71049 -20048372.57346  19763441.404    19763447.362
       228.000         176.000
  22289458.611   -59818079.79949 -45538018.60945  22289463.336    22289460.715
       210.000         137.000
  20018106.589  -101486293.18349 -79055187.58246  20018105.984    20018112.009
       228.000         177.000
  20990543.352   -25754375.28249 -18129224.59345  20990542.150    20990548.239
       220.000         162.000
  21354983.940   -12797281.05549  -9375589.14245  21354983.263    21354989.496
       215.000         149.000
 98  1 25  0 58 29.9910000  0  8G 7G 4G 9G24G26G 2G 5G 8
  19033890.254   -82544056.66149 -63254724.42047  19033889.413    19033894.766
       238.000         194.000
  18140085.644   -53393325.66749 -41056934.99947  18140085.840    18140089.899
       246.000         210.000
  18825250.159   -50557727.39449 -37826636.06247  18825249.691    18825254.314
       242.000         203.000
  19723226.484   -27350286.51349 -20213046.66946  19723226.404    19723232.494
       228.000         177.000
  22281551.031   -59859633.99949 -45570398.46645  22281550.344    22281560.535
       209.000         139.000
  20007620.699  -101541396.77849 -79098125.46946  20007620.053    20007625.808
       227.000         176.000
  20952980.250   -25951770.30949 -18283038.82046  20952980.044    20952986.008
       220.000         163.000
  21313886.170   -13013250.87149  -9543877.25045  21313885.374    21313891.628
       213.000         150.000
 98  1 25  0 58 59.9910000  0  8G 7G 4G 9G24G26G 2G 5G 8
  19023545.349   -82598419.55549 -63297085.11147  19023544.654    19023549.444
       238.000         194.000
  18111750.301   -53542228.86149 -41172963.44347  18111750.326    18111754.756
       247.000         210.000
  18796675.019   -50707890.60349 -37943646.34647  18796674.583    18796679.231
       242.000         203.000
  19683059.802   -27561363.33949 -20377522.09046  19683059.461    19683066.442
       229.000         177.000
  22273645.401   -59901179.60949 -45602771.55845  22273641.429    22273648.083
       204.000         140.000
  19997190.337  -101596208.68849 -79140836.05746  19997189.494    19997195.756
       227.000         176.000
  20915428.594   -26149105.80649 -18436806.64546  20915427.831    20915433.826
       222.000         164.000
  21272836.981   -13228965.32149  -9711966.36245  21272836.802    21272841.808
       212.000         151.000
 98  1 25  0 59 29.9910000  0  8G 7G 4G 9G24G26G 2G 5G 8
  19013227.670   -82652639.53749 -63339334.43647  19013226.847    19013231.650
       239.000         194.000
  18083530.241   -53690526.21049 -41288519.79647  18083530.233    18083534.611
       246.000         210.000
  18768205.537   -50857498.70949 -38060224.08147  18768205.092    18768209.771
       242.000         203.000
  19642942.917   -27772178.73649 -20541793.80046  19642942.794    19642949.082
       230.000         177.000
  22265740.644   -59942718.04949 -45635139.33445  22265742.107    22265747.390
       208.000         138.000
  19986817.069  -101650720.52449 -79183312.83346  19986817.244    19986822.757
       227.000         175.000
  20877888.223   -26346381.18049 -18590527.63946  20877887.429    20877893.415
       221.000         164.000
  21231842.010   -13444394.66849  -9879833.29045  21231840.453    21231847.887
       215.000         150.000
 98  1 25  0 59 59.9910000  0  8G 7G 4G 9G24G26G 2G 5G 8
  19002939.756   -82706702.84349 -63381461.68247  19002938.509    19002944.402
       238.000         194.000
  18055424.889   -53838220.74749 -41403606.43347  18055424.959    18055429.553
       246.000         210.000
  18739841.089   -51006554.93149 -38176371.77947  18739840.648    18739845.398
       242.000         203.000
  19602879.869   -27982711.66349 -20705845.39946  19602879.609    19602885.330
       229.000         178.000
  22257839.699   -59984237.37549 -45667491.99045  22257841.437    22257847.985
       215.000         137.000
  19976503.062  -101704921.26949 -79225547.19446  19976502.435    19976508.503
       228.000         175.000
  20840358.385   -26543601.09649 -18744205.40746  20840357.641    20840363.188
       222.000         164.000
  21190905.220   -13659518.68849 -10047462.33345  21190904.092    21190911.390
       214.000         150.000
 98  1 25  1  0 29.9910000  0  8G 7G 4G 9G24G26G 2G 5G 8
  18992682.989   -82760602.20149 -63423461.18047  18992682.160    18992686.966
       238.000         194.000
  18027436.182   -53985302.32349 -41518215.43547  18027436.126    18027440.775
       246.000         210.000
  18711580.258   -51155066.63249 -38292095.17647  18711579.693    18711584.485
       242.000         203.000
  19562870.427   -28192962.79949 -20869677.43346  19562870.626    19562876.589
       230.000         178.000
  22249945.121   -60025725.16549 -45699820.21245  22249942.415    22249950.014
       200.000         140.000
  19966249.280  -101758805.33049 -79267534.78746  19966248.484    19966254.491
       228.000         175.000
  20802841.837   -26740751.61049 -18897829.11046  20802840.503    20802847.580
       221.000         164.000
  21150029.950   -13874319.45549 -10214839.48845  21150028.890    21150034.436
       213.000         149.000
 98  1 25  1  0 59.9910000  0  8G 7G 4G 9G24G26G 2G 5G 8
  18982454.107   -82814355.21949 -63465346.63847  18982453.121    18982458.673
       238.000         194.000
  17999567.928   -54131750.94749 -41632331.22047  17999567.868    17999572.242
       246.000         210.000
  18683422.248   -51303037.73949 -38407397.32547  18683421.656    18683426.657
       242.000         203.000
  19522918.078   -28402913.77549 -21033275.56446  19522918.065    19522924.884
       229.000         179.000
  22242058.329   -60067169.99949 -45732114.81845  22242055.535    22242065.401
       196.000         133.000
  19956056.210  -101812370.33949 -79309273.76746  19956055.180    19956061.351
       228.000         175.000
  20765336.337   -26937844.23249 -19051407.70346  20765335.537    20765341.184
       221.000         165.000
  21109217.697   -14088789.25049 -10381958.72545  21109217.603    21109222.830
       213.000         149.000
 98  1 25  1  1 29.9900000  0  7G 7G 4G 9G24G 2G 5G 8
  18972252.665   -82867964.37249 -63507120.00347  18972252.053    18972257.202
       238.000         194.000
  17971818.560   -54277574.78249 -41745960.16647  17971818.359    17971823.050
       246.000         210.000
  18655365.329   -51450477.65149 -38522285.55747  18655364.890    18655369.786
       242.000         203.000
  19483027.978   -28612537.16549 -21196618.43346  19483027.741    19483034.025
       229.000         178.000
  19945921.356  -101865629.52549 -79350774.44346  19945921.146    19945926.325
       227.000         175.000
  20727838.488   -27134896.68049 -19204954.97446  20727836.657    20727842.905
       222.000         165.000
  21068464.580   -14302948.16049 -10548835.71845  21068463.786    21068468.072
       215.000         148.000
 98  1 25  1  1 59.9900000  0  7G 7G 4G 9G24G 2G 5G 8
  18962076.975   -82921438.04249 -63548787.80047  18962076.198    18962081.635
       238.000         194.000
  17944186.060   -54422784.33249 -41859110.45247  17944185.859    17944190.376
       246.000         210.000
  18627407.307   -51597398.09349 -38636769.01847  18627406.905    18627411.920
       242.000         203.000
  19443198.857   -28821840.69849 -21359712.07646  19443199.233    19443205.485
       230.000         178.000
  19935844.627  -101918583.13349 -79392037.01546  19935844.282    19935850.589
       227.000         174.000
  20690345.952   -27331921.09049 -19358480.41446  20690344.912    20690351.277
       222.000         165.000
  21027765.900   -14516820.87549 -10715489.70245  21027765.221    21027772.054
       217.000         149.000
 98  1 25  1  2 29.9900000  0  7G 7G 4G 9G24G 2G 5G 8
  18951928.513   -82974768.57949 -63590344.05647  18951927.414    18951933.010
       237.000         193.000
  17916674.851   -54567356.45849 -41971764.03847  17916674.864    17916679.243
       246.000         211.000
  18599552.485   -51743776.18349 -38750829.85447  18599551.928    18599556.807
       242.000         204.000
  19403431.681   -29030818.76149 -21522552.10146  19403431.374    19403437.843
       230.000         179.000
  19925823.805  -101971243.01149 -79433070.70546  19925823.360    19925829.131
       227.000         174.000
  20652859.628   -27528912.23849 -19511979.92846  20652859.043    20652864.485
       222.000         165.000
  20987120.534   -14730413.63849 -10881925.54745  20987120.259    20987126.007
       213.000         149.000
 98  1 25  1  2 59.9900000  0  7G 7G 4G 9G24G 2G 5G 8
  18941806.666   -83027959.01649 -63631791.15347  18941805.941    18941811.090
       237.000         193.000
  17889282.121   -54711306.18549 -42083932.64147  17889281.988    17889286.689
       246.000         211.000
  18571805.299   -51889588.53449 -38864449.86147  18571804.787    18571809.630
       242.000         204.000
  19363726.839   -29239468.73249 -21685136.45946  19363725.961    19363732.782
       230.000         179.000
  19915858.013  -102023613.90449 -79473879.20946  19915857.119    19915862.697
       227.000         174.000
  20615376.125   -27725888.72949 -19665468.02546  20615374.553    20615381.537
       222.000         165.000
  20946525.027   -14943744.35749 -11048157.18745  20946523.444    20946531.012
       218.000         148.000
 98  1 25  1  3 29.9900000  0  7G 7G 4G 9G24G 2G 5G 8
  18931715.220   -83080989.75049 -63673113.79447  18931714.417    18931719.719
       237.000         193.000
  17862004.227   -54854652.52249 -42195631.06347  17862004.172    17862008.821
       246.000         211.000
  18544167.864   -52034824.01849 -38977620.35647  18544167.130    18544172.099
       242.000         204.000
  19324080.631   -29447810.98749 -21847481.04446  19324080.358    19324086.644
       230.000         179.000
  19905947.022  -102075696.44149 -79514463.00846  19905945.950    19905953.187
       226.000         173.000
  20577897.569   -27922839.38449 -19818935.97646  20577897.498    20577902.359
       224.000         165.000
  20905977.506   -15156822.73449 -11214192.19745  20905977.083    20905982.356
       217.000         149.000
 98  1 25  1  3 59.9900000  0  7G 7G 4G 9G24G 2G 5G 8
  18921655.151   -83133855.93449 -63714308.21847  18921654.371    18921659.418
       238.000         192.000
  17834845.138   -54997374.46849 -42306842.95047  17834845.284    17834849.636
       246.000         211.000
  18516645.027   -52179457.50849 -39090321.77147  18516644.624    18516649.526
       242.000         204.000
  19284492.682   -29655847.15949 -22009587.12246  19284492.614    19284498.367
       231.000         180.000
  19896090.291  -102127493.76449 -79554824.58246  19896089.974    19896096.031
       227.000         173.000
  20540428.998   -28119737.81549 -19972363.24046  20540427.938    20540433.769
       225.000         165.000
  20865483.111   -15369621.88749 -11380009.66745  20865481.838    20865486.927
       214.000         148.000
 98  1 25  1  4 29.9900000  0  7G 7G 4G 9G24G 2G 5G 8
  18911629.415   -83186541.48449 -63755361.88647  18911628.652    18911634.182
       237.000         192.000
  17807807.147   -55139459.98949 -42417558.92147  17807807.272    17807811.671
       247.000         211.000
  18489238.375   -52323480.60449 -39202547.54847  18489237.897    18489242.626
       242.000         204.000
  19244964.964   -29863566.64449 -22171446.42546  19244964.858    19244970.651
       231.000         180.000
  19886287.296  -102179009.03149 -79594966.36946  19886286.610    19886293.064
       226.000         173.000
  20502973.786   -28316566.35049 -20125736.04946  20502972.977    20502977.115
       224.000         166.000
  20825045.238   -15582124.07549 -11545595.67945  20825044.722    20825048.781
       216.000         149.000
 98  1 25  1  4 59.9900000  0  7G 7G 4G 9G24G 2G 5G 8
  18901633.979   -83239068.01649 -63796291.64547  18901632.972    18901638.868
       239.000         193.000
  17780889.238   -55280914.42649 -42527783.13947  17780889.386    17780893.780
       246.000         211.000
  18461945.102   -52466907.71049 -39314308.91747  18461944.642    18461949.548
       243.000         204.000
  19205497.978   -30070966.89749 -22333056.98746  19205497.481    19205503.886
       231.000         181.000
  19876540.951  -102230226.39949 -79634876.01346  19876540.627    19876546.255
       224.000         173.000
  20465534.073   -28513313.28449 -20279045.26846  20465533.396    20465538.080
       224.000         166.000
  20784667.681   -15794309.14249 -11710934.58645  20784665.645    20784671.480
       209.000         149.000
 98  1 25  1  5 29.9900000  0  7G 7G 4G 9G24G 2G 5G 8
  18891667.669   -83291441.47849 -63837102.12547  18891667.571    18891672.214
       238.000         192.000
  17754094.422   -55421722.29049 -42637503.53147  17754094.446    17754098.773
       247.000         211.000
  18434762.675   -52609752.24649 -39425616.33547  18434762.310    18434767.312
       242.000         204.000
  19166093.909   -30278036.44849 -22494409.84946  19166093.420    19166099.724
       232.000         181.000
  19866853.363  -102281135.00949 -79674545.06646  19866853.733    19866858.450
       225.000         173.000
  20428113.010   -28709962.30649 -20432278.18846  20428112.132    20428117.904
       224.000         165.000
  20744356.552   -16006144.95649 -11876001.36745  20744355.522    20744362.188
       213.000         148.000
 98  1 25  1  5 59.9900000  0  7G 7G 4G 9G24G 2G 5G 8
  18881725.895   -83343686.16949 -63877812.26647  18881725.643    18881730.223
       237.000         192.000
  17727422.180   -55561885.80449 -42746721.83747  17727421.911    17727426.382
       247.000         211.000
  18407689.797   -52752021.28249 -39536475.31547  18407689.612    18407694.108
       243.000         205.000
  19126756.841   -30484753.99749 -22655488.42446  19126756.722    19126762.760
       233.000         182.000
  19857224.566  -102331734.41949 -79713973.19146  19857223.470    19857229.992
       225.000         172.000
  20390709.159   -28906520.49349 -20585440.34346  20390707.837    20390713.756
       226.000         165.000
  20704114.601   -16217617.37449 -12040784.97045  20704112.671    20704118.703
       215.000         148.000
 98  1 25  1  6 29.9900000  0  7G 7G 4G 9G24G 2G 5G 8
  18871804.737   -83395822.27549 -63918437.80047  18871803.772    18871808.689
       236.000         192.000
  17700868.440   -55701426.40449 -42855454.76047  17700868.394    17700872.829
       247.000         211.000
  18380724.543   -52893724.40349 -39646893.32647  18380724.119    18380728.609
       242.000         205.000
  19087486.808   -30691119.08549 -22816292.36046  19087485.739    19087492.794
       233.000         182.000
  19847657.012  -102382012.07749 -79753150.61146  19847655.864    19847662.401
       224.000         172.000
  20353320.927   -29102996.40249 -20738538.37646  20353319.850    20353325.843
       223.000         165.000
  20663941.429   -16428727.90249 -12205286.59745  20663940.572    20663945.313
       215.000         149.000
 98  1 25  1  6 59.9900000  0  7G 7G 4G 9G24G 2G 5G 8
  18861904.824   -83447846.58649 -63958976.21647  18861903.996    18861908.998
       236.000         192.000
  17674434.102   -55840339.80349 -42963698.94747  17674434.104    17674438.391
       248.000         211.000
  18353870.625   -53034842.39949 -39756855.39047  18353870.150    18353874.987
       243.000         205.000
  19048285.413   -30897123.72349 -22976815.41746  19048285.296    19048291.201
       232.000         182.000
  19838154.293  -102431949.69049 -79792063.05346  19838153.732    19838159.493
       225.000         172.000
  20315949.839   -29299382.46849 -20891566.39946  20315948.741    20315954.010
       223.000         166.000
  20623839.925   -16639462.43249 -12369495.25645  20623839.853    20623843.855
       217.000         149.000
 98  1 25  1  7 29.9900000  0  7G 7G 4G 9G24G 2G 5G 8
  18852028.177   -83499748.46949 -63999419.23347  18852027.453    18852032.670
       236.000         191.000
  17648115.952   -55978642.34049 -43071467.13947  17648116.073    17648120.368
       248.000         212.000
  18327127.528   -53175378.27449 -39866363.85447  18327127.104    18327131.816
       243.000         205.000
  19009150.721   -31102777.62149 -23137065.17446  19009150.179    19009156.911
       232.000         182.000
  19828712.310  -102481567.36649 -79830726.19246  19828711.529    19828717.835
       224.000         171.000
  20278593.607   -29495690.43449 -21044533.56446  20278592.503    20278598.448
       224.000         166.000
  20583806.747   -16849837.85249 -12533424.09445  20583805.898    20583811.452
       217.000         149.000
 98  1 25  1  7 59.9900000  0  7G 7G 4G 9G24G 2G 5G 8
  18842177.445   -83551514.40449 -64039756.32047  18842176.513    18842181.875
       236.000         191.000
  17621913.764   -56116335.71249 -43178760.66347  17621913.703    17621918.323
       248.000         212.000
  18300495.703   -53315329.51749 -39975416.76847  18300495.521    18300500.198
       243.000         205.000
  18970080.857   -31308091.08849 -23297049.65946  18970080.716    18970086.916
       232.000         182.000
  19819328.185  -102530881.38149 -79869152.71246  19819327.545    19819332.875
       225.000         171.000
  20241252.634   -29691918.29849 -21197438.34146  20241252.273    20241256.971
       224.000         167.000
  20543841.215   -17059858.01349 -12697076.11445  20543840.025    20543845.934
       216.000         150.000
 98  1 25  1  8 29.9890000  0  7G 7G 4G 9G24G 2G 5G 8
  18832356.930   -83603121.45049 -64079969.58647  18832355.941    18832361.632
       236.000         191.000
  17595831.723   -56253397.64349 -43285562.14847  17595831.759    17595836.168
       248.000         212.000
  18273975.146   -53454696.15949 -40084014.13847  18273974.621    18273979.646
       243.000         205.000
  18931076.118   -31513062.35249 -23456767.48646  18931075.649    18931082.471
       232.000         183.000
  19810002.052  -102579890.17949 -79907341.40846  19810000.702    19810007.425
       225.000         171.000
  20203927.547   -29888062.95949 -21350278.24846  20203927.152    20203932.755
       224.000         167.000
  20503943.645   -17269520.55749 -12860449.46145  20503943.675    20503949.548
       214.000         150.000
 98  1 25  1  8 59.9890000  0  7G 7G 4G 9G24G 2G 5G 8
  18822567.877   -83654563.42049 -64120054.23347  18822566.938    18822572.239
       236.000         191.000
  17569870.031   -56389827.17049 -43391870.85447  17569870.092    17569874.646
       248.000         212.000
  18247562.849   -53593493.68249 -40192168.05047  18247562.545    18247567.044
       243.000         205.000
  18892133.606   -31717706.42349 -23616230.37246  18892133.598    18892139.435
       233.000         183.000
  19800730.459  -102628612.47249 -79945306.85446  19800729.920    19800736.139
       224.000         171.000
  20166614.203   -30084145.70049 -21503069.93246  20166613.874    20166617.977
       224.000         168.000
  20464109.682   -17478849.31149 -13023562.72645  20464109.022    20464116.211
       216.000         150.000
 98  1 25  1  9 29.9890000  0  7G 7G 4G 9G24G 2G 5G 8
  18812813.170   -83705824.73649 -64159998.10647  18812812.411    18812817.874
       236.000         190.000
  17544032.129   -56525606.53949 -43497672.94347  17544032.119    17544036.582
       248.000         212.000
  18221260.462   -53731713.66849 -40299871.92847  18221260.014    18221264.890
       243.000         205.000
  18853258.453   -31921996.63049 -23775417.50946  18853257.861    18853263.868
       231.000         184.000
  19791515.639  -102677036.84549 -79983040.13746  19791514.989    19791520.774
       225.000         171.000
  20129314.842   -30280154.82849 -21655804.25246  20129314.116    20129319.082
       225.000         168.000
  20424343.284   -17687822.96849 -13186399.29645  20424342.572    20424348.885
       213.000         149.000
 98  1 25  1  9 59.9890000  0  7G 7G 4G 9G24G 2G 5G 8
  18803088.860   -83756926.17049 -64199817.40047  18803088.193    18803093.317
       236.000         190.000
  17518319.210   -56660728.56349 -43602962.81647  17518319.250    17518323.623
       248.000         212.000
  18195068.364   -53869354.05149 -40407124.16847  18195068.017    18195072.866
       243.000         205.000
  18814452.315   -32125923.93949 -23934321.86846  18814451.946    18814458.268
       233.000         184.000
  19782359.594  -102725152.34349 -80020532.75946  19782359.208    19782365.989
       224.000         171.000
  20092028.952   -30476093.09949 -21808483.37046  20092028.058    20092034.004
       224.000         169.000
  20384645.077   -17896438.20549 -13348956.57045  20384644.025    20384649.308
       211.000         150.000
 98  1 25  1 10 29.9890000  0  7G 7G 4G 9G24G 2G 5G 8
  18793392.929   -83807878.71549 -64239520.66447  18793392.215    18793397.025
       235.000         190.000
  17492730.878   -56795196.09749 -43707742.69547  17492730.914    17492735.309
       248.000         212.000
  18168987.973   -54006407.52149 -40513919.07247  18168987.452    18168992.298
       243.000         205.000
  18775717.704   -32329475.39749 -24092933.36046  18775717.261    18775723.603
       233.000         184.000
  19773265.250  -102772943.32449 -80057772.48846  19773265.003    19773270.715
       224.000         170.000
  20054755.022   -30671968.62949 -21961113.59746  20054753.963    20054759.579
       225.000         169.000
  20345013.522   -18104703.25949 -13511240.97745  20345014.010    20345018.676
       212.000         151.000
 98  1 25  1 10 59.9890000  0  7G 7G 4G 9G24G 2G 5G 8
  18783722.876   -83858695.21849 -64279117.93147  18783722.410    18783727.199
       236.000         190.000
  17467263.971   -56929025.55849 -43812025.37247  17467263.965    17467268.298
       248.000         212.000
  18143021.802   -54142860.51849 -40620246.07747  18143021.348    18143026.273
       243.000         205.000
  18737055.415   -32532647.04549 -24251248.88846  18737055.037    18737061.432
       233.000         185.000
  19764231.702  -102820415.22949 -80094763.60746  19764232.017    19764237.588
       225.000         170.000
  20017495.706   -30867767.16549 -22113683.83846  20017494.887    20017500.087
       226.000         169.000
  20305450.260   -18312609.07349 -13673245.46145  20305449.530    20305455.288
       215.000         153.000
 98  1 25  1 11 29.9890000  0  7G 7G 4G 9G24G 2G 5G 8
  18774076.632   -83909386.51049 -64318617.63647  18774075.958    18774081.104
       235.000         190.000
  17441916.870   -57062225.39349 -43915817.43447  17441916.992    17441921.274
       248.000         212.000
  18117169.869   -54278713.45049 -40726105.49947  18117169.465    18117174.358
       243.000         205.000
  18698463.943   -32735446.33449 -24409274.26946  18698463.293    18698469.949
       233.000         186.000
  19755258.431  -102867570.41349 -80131507.93246  19755257.610    19755263.836
       224.000         169.000
  19980249.432   -31063497.44849 -22266200.90346  19980248.941    19980253.948
       224.000         169.000
  20265954.948   -18520158.29349 -13834972.07545  20265956.220    20265959.534
       218.000         154.000
 98  1 25  1 11 59.9890000  0  7G 7G 4G 9G24G 2G 5G 8
  18764454.375   -83959951.74449 -64358019.11047  18764453.129    18764458.256
       235.000         190.000
  17416692.058   -57194782.66549 -44019108.80248  17416692.155    17416696.652
       248.000         213.000
  18091434.180   -54413955.18649 -40831488.66747  18091433.751    18091438.780
       243.000         205.000
  18659943.468   -32937872.73849 -24567009.08746  18659943.440    18659949.880
       234.000         186.000
  19746344.925  -102914410.95549 -80168007.07546  19746344.420    19746351.163
       225.000         170.000
  19943019.315   -31259142.84049 -22418651.81946  19943017.926    19943024.322
       225.000         170.000
  20226529.286   -18727341.73149 -13996413.66845  20226527.546    20226533.876
       216.000         155.000
 98  1 25  1 12 29.9890000  0  7G 7G 4G 9G24G 2G 5G 8
  18754857.825   -84010381.80249 -64397315.24647  18754857.163    18754862.630
       235.000         190.000
  17391587.737   -57326706.68749 -44121906.72248  17391587.864    17391592.090
       249.000         213.000
  18065813.043   -54548595.03549 -40936402.82847  18065812.648    18065817.520
       243.000         205.000
  18621492.550   -33139933.71149 -24724459.14746  18621492.029    18621498.447
       233.000         187.000
  19737487.160  -102960959.14449 -80204278.41446  19737485.943    19737492.711
       224.000         169.000
  19905804.179   -31454709.30649 -22571041.21446  19905803.219    19905809.047
       225.000         170.000
  20187172.772   -18934161.40949 -14157571.80945  20187171.962    20187176.989
       215.000         155.000
 98  1 25  1 12 59.9890000  0  7G 7G 4G 9G24G 2G 5G 8
  18745288.930   -84060666.67749 -64436498.25347  18745288.117    18745293.661
       235.000         189.000
  17366605.361   -57457989.97749 -44224205.36848  17366605.379    17366609.880
       247.000         213.000
  18040305.986   -54682635.56649 -41040849.98347  18040305.526    18040310.457
       243.000         206.000
  18583111.033   -33341629.92949 -24881624.99046  18583110.620    18583116.506
       234.000         187.000
  19728683.592  -103007222.45049 -80240327.75146  19728683.706    19728688.784
       224.000         169.000
  19868606.513   -31650183.75649 -22723358.91746  19868606.560    19868611.476
       225.000         170.000
  20147888.890   -19140599.45449 -14318432.57445  20147888.447    20147893.448
       218.000         155.000
 98  1 25  1 13 29.9890000  0  7G 7G 4G 9G24G 2G 5G 8
  18735747.848   -84110805.19849 -64475567.22547  18735746.802    18735752.400
       235.000         189.000
  17341746.044   -57588626.57949 -44326000.10848  17341746.079    17341750.617
       247.000         213.000
  18014913.261   -54816074.93349 -41144828.71147  18014912.925    18014917.737
       243.000         206.000
  18544800.406   -33542953.60549 -25038500.53746  18544799.572    18544805.918
       233.000         187.000
  19719937.131  -103053185.85149 -80276143.41046  19719936.692    19719942.875
       223.000         169.000
  19831425.956   -31845568.57449 -22875606.79646  19831424.920    19831430.964
       225.000         171.000
  20108678.243   -19346652.66649 -14478993.47845  20108678.891    20108681.893
       217.000         156.000
 98  1 25  1 13 59.9890000  0  7G 7G 4G 9G24G 2G 5G 8
  18726234.598   -84160797.62149 -64514522.35847  18726233.638    18726239.334
       235.000         189.000
  17317008.928   -57718620.93249 -44427294.39248  17317008.764    17317013.321
       247.000         213.000
  17989634.665   -54948914.92149 -41248340.38547  17989634.455    17989639.127
       244.000         206.000
  18506564.735   -33743883.00949 -25195068.85946  18506564.492    18506571.130
       235.000         187.000
  19711248.803  -103098842.97949 -80311720.41946  19711247.987    19711254.023
       224.000         168.000
  19794264.110   -32040855.47349 -23027778.36546  19794263.427    19794269.329
       225.000         171.000
  20069544.113   -19552303.80849 -14639241.07045  20069543.894    20069548.857
       220.000         157.000
 98  1 25  1 14 29.9890000  0  7G 7G 4G 9G24G 2G 5G 8
  18716746.676   -84210656.79449 -64553373.64947  18716745.297    18716751.156
       235.000         188.000
  17292392.104   -57847982.89549 -44528095.89948  17292392.056    17292396.455
       247.000         213.000
  17964467.461   -55081169.61249 -41351395.98447  17964467.178    17964472.147
       243.000         206.000
  18468405.342   -33944411.64149 -25351324.89246  18468404.779    18468410.639
       234.000         187.000
  19702619.490  -103144190.85849 -80347056.43946  19702619.001    19702624.692
       225.000         168.000
  19757116.626   -32236066.80149 -23179891.04146  19757115.663    19757120.889
       228.000         172.000
  20030483.976   -19757566.43649 -14799185.91645  20030483.215    20030488.083
       218.000         158.000
 98  1 25  1 14 59.9890000  0  7G 7G 4G 9G24G 2G 5G 8
  18707281.975   -84260393.65749 -64592129.63747  18707281.059    18707285.823
       234.000         188.000
  17267897.349   -57976703.63949 -44628397.76048  17267897.483    17267902.043
       247.000         213.000
  17939413.400   -55212829.73949 -41453988.28747  17939412.893    17939417.949
       244.000         206.000
  18430321.723   -34144542.09849 -25507270.66047  18430321.694    18430327.333
       235.000         188.000
  19694050.891  -103189219.23849 -80382143.50946  19694050.303    19694055.870
       224.000         167.000
  19719984.567   -32431197.35949 -23331940.78846  19719983.849    19719988.664
       226.000         172.000
  19991497.992   -19962438.90449 -14958826.75745  19991498.384    19991503.251
       217.000         159.000
 98  1 25  1 15 29.9880000  0  7G 7G 4G 9G24G 2G 5G 8
  18697840.387   -84310009.60649 -64630791.40647  18697839.875    18697845.067
       235.000         188.000
  17243526.852   -58104771.36149 -44728190.76648  17243527.085    17243531.285
       247.000         213.000
  17914475.438   -55343879.61249 -41556105.05947  17914474.807    17914479.944
       243.000         206.000
  18392316.302   -34344262.05549 -25662896.55447  18392315.985    18392321.876
       234.000         188.000
  19685544.891  -103233918.81849 -80416974.36646  19685544.561    19685550.457
       224.000         167.000
  19682868.220   -32626245.08149 -23483925.97346  19682867.744    19682872.954
       226.000         173.000
  19952587.334   -20166915.89149 -15118159.41545  19952586.941    19952592.013
       220.000         159.000
 98  1 25  1 15 59.9880000  0  7G 7G 4G 9G24G 2G 5G 8
  18688422.807   -84359499.37149 -64669354.84846  18688422.314    18688427.453
       233.000         187.000
  17219280.710   -58232185.69349 -44827474.64748  17219280.830    17219285.231
       247.000         213.000
  17889650.313   -55474336.73049 -41657759.95347  17889649.923    17889654.883
       243.000         206.000
  18354384.626   -34543593.99549 -25818220.11247  18354384.324    18354390.468
       235.000         189.000
  19677099.145  -103278301.49649 -80451558.28946  19677098.658    19677104.080
       223.000         167.000
  19645766.731   -32821214.57849 -23635850.22146  19645766.239    19645771.178
       227.000         173.000
  19913749.569   -20371010.24749 -15277193.91545  19913749.248    19913754.939
       220.000         160.000
 98  1 25  1 16 29.9880000  0  7G 7G 4G 9G24G 2G 5G 8
  18679030.118   -84408858.19949 -64707816.26846  18679028.917    18679034.887
       234.000         186.000
  17195160.127   -58358940.28449 -44926244.43848  17195160.338    17195164.605
       247.000         213.000
  17864940.006   -55604190.25249 -41758944.51147  17864939.320    17864944.270
       243.000         206.000
  18316523.693   -34742554.65349 -25973254.35447  18316523.295    18316529.733
       236.000         189.000
  19668712.085  -103322375.83049 -80485901.94446  19668711.005    19668718.380
       222.000         167.000
  19608681.927   -33016096.38549 -23787706.11246  19608681.073    19608686.616
       225.000         173.000
  19874981.790   -20574736.17049 -15435941.33845  19874981.886    19874986.251
       220.000         160.000
 98  1 25  1 16 59.9880000  0  7G 7G 4G 9G24G 2G 5G 8
  18669664.743   -84458073.64849 -64746165.95446  18669664.330    18669669.449
       232.000         186.000
  17171163.948   -58485041.09349 -45024504.78648  17171164.080    17171168.548
       247.000         214.000
  17840346.379   -55733430.80049 -41859651.42147  17840345.756    17840350.663
       243.000         206.000
  18278732.344   -34941149.63849 -26128003.65547  18278732.057    18278738.164
       236.000         190.000
  19660383.770  -103366141.52149 -80520005.09246  19660383.430    19660389.627
       221.000         166.000
  19571618.191   -33210867.22449 -23939475.54646  19571616.892    19571623.149
       227.000         173.000
  19836285.954   -20778084.05749 -15594394.18245  19836285.635    19836288.947
       218.000         160.000
 98  1 25  1 17 29.9880000  0  7G 7G 4G 9G24G 2G 5G 8
  18660325.900   -84507149.56949 -64784406.93146  18660325.166    18660330.546
       233.000         186.000
  17147289.430   -58610502.58049 -45122266.96048  17147289.389    17147293.694
       247.000         214.000
  17815869.745   -55862056.18149 -41959878.98347  17815869.350    17815873.991
       244.000         206.000
  18241011.677   -35139372.86549 -26282463.27647  18241011.181    18241017.031
       236.000         190.000
  19652115.421  -103409591.99449 -80553862.62246  19652113.865    19652120.911
       221.000         165.000
  19534576.653   -33405521.63249 -24091154.24946  19534575.375    19534580.664
       227.000         173.000
  19797664.603   -20981039.85749 -15752541.50545  19797664.092    19797669.281
       219.000         160.000
 98  1 25  1 17 59.9880000  0  7G 7G 4G 9G24G 2G 5G 8
  18651012.279   -84556092.89349 -64822544.57246  18651011.513    18651016.759
       233.000         186.000
  17123534.860   -58735333.55049 -45219537.82548  17123534.883    17123539.247
       247.000         214.000
  17791507.887   -55990078.71849 -42059636.79747  17791507.466    17791512.178
       244.000         206.000
  18203362.455   -35337220.51849 -26436630.25047  18203361.895    18203367.972
       235.000         190.000
  19643905.924  -103452733.26949 -80587479.21446  19643904.708    19643911.664
       223.000         165.000
  19497560.055   -33600044.80749 -24242730.69446  19497559.341    19497564.553
       227.000         174.000
  19759119.256   -21183596.48549 -15910377.78445  19759118.367    19759123.372
       217.000         161.000
 98  1 25  1 18 29.9880000  0  7G 7G 4G 9G24G 2G 5G 8
  18641722.334   -84604911.95849 -64860585.39246  18641721.785    18641727.029
       233.000         186.000
  17099901.325   -58859528.37349 -45316312.98648  17099901.195    17099905.644
       247.000         214.000
  17767261.719   -56117492.71749 -42158920.42747  17767261.211    17767266.039
       243.000         206.000
  18165787.964   -35534675.63449 -26590491.34347  18165787.767    18165793.332
       236.000         190.000
  19635755.069  -103495566.34749 -80620855.65846  19635754.400    19635761.116
       221.000         164.000
  19460568.394   -33794437.12849 -24394205.17046  19460567.050    19460572.405
       228.000         174.000
  19720654.153   -21385731.53749 -16067885.56345  19720653.256    19720658.923
       218.000         161.000
 98  1 25  1 18 59.9880000  0  7G 7G 4G 9G24G 2G 5G 8
  18632453.844   -84653618.27149 -64898538.35846  18632453.011    18632458.614
       232.000         186.000
  17076389.199   -58983085.24649 -45412591.04748  17076389.102    17076393.484
       247.000         214.000
  17743130.265   -56244304.23349 -42257734.59147  17743129.897    17743134.818
       244.000         207.000
  18128289.555   -35731730.78149 -26744040.77247  18128289.097    18128295.423
       236.000         190.000
  19627663.525  -103538087.64149 -80653989.14146  19627662.432    19627669.180
       221.000         164.000
  19423602.070   -33988696.27649 -24545575.88546  19423600.931    19423606.573
       228.000         174.000
  19682275.346   -21587413.48849 -16225040.27945  19682273.975    19682280.761
       220.000         162.000
 98  1 25  1 19 29.9880000  0  7G 7G 4G 9G24G 2G 5G 8
  18623206.861   -84702211.59949 -64936403.28246  18623206.003    18623211.177
       232.000         185.000
  17053002.796   -59105981.42949 -45508354.28548  17053002.772    17053007.256
       247.000         214.000
  17719114.097   -56370510.17749 -42356076.88247  17719113.583    17719118.707
       244.000         207.000
  18090870.639   -35928368.44949 -26897264.89747  18090870.231    18090876.242
       236.000         190.000
  19619632.154  -103580292.79749 -80686876.29846  19619631.742    19619636.390
       221.000         163.000
  19386659.334   -34182831.49749 -24696850.04246  19386658.645    19386664.471
       227.000         175.000
  19643985.396   -21788628.50449 -16381831.14746  19643985.052    19643990.395
       222.000         163.000
 98  1 25  1 19 59.9880000  0  7G 7G 4G 9G24G 2G 5G 8
  18613985.115   -84750671.99549 -64974164.61346  18613984.447    18613989.555
       233.000         185.000
  17029746.499   -59228193.97849 -45603584.81848  17029746.432    17029750.822
       247.000         214.000
  17695210.919   -56496122.31149 -42453956.46247  17695210.441    17695215.266
       244.000         207.000
  18053532.177   -36124583.31249 -27050159.55847  18053531.740    18053537.850
       236.000         191.000
  19611659.490  -103622189.30849 -80719522.94246  19611659.031    19611664.393
       220.000         163.000
  19349738.013   -34376854.05349 -24848036.39446  19349737.376    19349743.020
       228.000         175.000
  19605782.559   -21989385.88249 -16538265.41246  19605782.199    19605787.502
       222.000         163.000
 98  1 25  1 20 29.9880000  0  7G 7G 4G 9G24G 2G 5G 8
  18604789.458   -84798995.65849 -65011819.40446  18604789.003    18604793.982
       232.000         184.000
  17006620.528   -59349721.76249 -45698281.76848  17006620.502    17006624.813
       247.000         214.000
  17671421.667   -56621135.84049 -42551369.59847  17671421.190    17671426.127
       244.000         207.000
  18016273.645   -36320378.32349 -27202727.05847  18016273.413    18016279.335
       236.000         191.000
  19603745.161  -103663779.57549 -80751930.95545  19603744.930    19603750.374
       219.000         162.000
  19312834.093   -34570785.40249 -24999151.66946  19312833.074    19312839.234
       227.000         175.000
  19567663.218   -22189704.10249 -16694357.48346  19567662.689    19567668.057
       222.000         163.000
 98  1 25  1 20 59.9880000  0  7G 7G 4G 9G24G 2G 5G 8
  18595619.077   -84847186.39249 -65049370.61546  18595618.621    18595623.552
       232.000         184.000
  16983620.865   -59470585.81749 -45792461.53148  16983620.964    16983625.207
       247.000         214.000
  17647745.304   -56745555.78549 -42648320.20347  17647744.751    17647749.301
       245.000         207.000
  17979091.228   -36515773.02249 -27354982.63547  17979090.724    17979096.587
       237.000         192.000
  19595888.159  -103705068.59149 -80784104.23645  19595887.639    19595894.038
       220.000         162.000
  19275944.270   -34764642.65449 -25150209.21646  19275943.222    19275948.803
       227.000         176.000
  19529620.039   -22389622.18149 -16850137.77846  19529619.356    19529624.398
       219.000         163.000
 98  1 25  1 21 29.9880000  0  7G 7G 4G 9G24G 2G 5G 8
  18586474.189   -84895243.11449 -65086817.40146  18586473.242    18586478.383
       232.000         184.000
  16960746.747   -59590790.11649 -45886127.19748  16960746.679    16960751.000
       247.000         214.000
  17624180.859   -56869387.77549 -42744812.65947  17624180.674    17624185.410
       245.000         207.000
  17941986.201   -36710760.86749 -27506921.17947  17941985.982    17941991.895
       237.000         192.000
  19588085.613  -103746071.02349 -80816054.18645  19588084.221    19588091.870
       220.000         161.000
  19239068.056   -34958428.25549 -25301210.93746  19239067.551    19239072.268
       228.000         176.000
  19491647.907   -22589166.61849 -17005626.89645  19491646.414    19491651.980
       219.000         162.000
 98  1 25  1 21 59.9880000  0  7G 7G 4G 9G24G 2G 5G 8
  18577355.190   -84943163.86649 -65124158.23946  18577354.725    18577359.811
       232.000         184.000
  16937995.750   -59710347.24449 -45979288.57348  16937995.819    16938000.218
       247.000         214.000
  17600730.325   -56992621.30249 -42840838.78247  17600729.978    17600734.634
       245.000         207.000
  17904959.817   -36905335.67949 -27658537.87947  17904959.484    17904965.609
       238.000         193.000
  19580336.995  -103786790.55349 -80847783.69545  19580336.955    19580343.434
       221.000         162.000
  19202210.254   -35152117.48849 -25452137.57946  19202209.897    19202214.687
       228.000         176.000
  19453747.094   -22788336.84249 -17160824.43745  19453745.962    19453751.952
       221.000         162.000
 98  1 25  1 22 29.9870000  0  7G 7G 4G 9G24G 2G 5G 8
  18568258.317   -84990968.37749 -65161408.49646  18568257.343    18568262.468
       233.000         184.000
  16915362.893   -59829283.52149 -46071966.17248  16915362.748    16915367.156
       247.000         214.000
  17577395.936   -57115244.29049 -42936389.16047  17577395.602    17577400.360
       245.000         207.000
  17868014.248   -37099485.93949 -27809823.76147  17868013.662    17868019.790
       237.000         193.000
  19572643.371  -103827220.62449 -80879287.66545  19572642.811    19572648.923
       221.000         160.000
  19165373.687   -35345694.63649 -25602976.87146  19165372.389    19165377.352
       230.000         176.000
  19415920.355   -22987117.75149 -17315718.62745  19415919.439    19415925.111
       222.000         162.000
 98  1 25  1 22 59.9870000  0  7G 7G 4G 9G24G 2G 5G 8
  18559177.568   -85038688.33049 -65198592.86346  18559177.049    18559181.707
       233.000         184.000
  16892841.539   -59947633.99349 -46164187.30248  16892841.559    16892845.904
       247.000         214.000
  17554173.464   -57237279.05049 -43031481.17547  17554173.109    17554177.953
       245.000         207.000
  17831145.276   -37293233.34749 -27960795.73147  17831144.885    17831151.114
       237.000         193.000
  19565001.865  -103867377.38749 -80910578.65345  19565001.162    19565007.524
       219.000         160.000
  19128556.005   -35539172.67449 -25753738.93846  19128554.757    19128560.540
       231.000         177.000
  19378165.851   -23185519.19949 -17470317.12545  19378165.585    19378169.799
       222.000         162.000
 98  1 25  1 23 29.9870000  0  7G 7G 4G 9G24G 2G 5G 8
  18550110.773   -85086334.87749 -65235720.03146  18550109.826    18550114.937
       233.000         184.000
  16870431.118   -60065401.45749 -46255954.13248  16870431.114    16870435.535
       247.000         214.000
  17531063.665   -57358721.87049 -43126111.93947  17531063.128    17531067.941
       244.000         207.000
  17794357.236   -37486555.67049 -28111436.45847  17794357.143    17794362.739
       238.000         194.000
  19557410.186  -103907271.75249 -80941665.18245  19557409.397    19557415.346
       220.000         160.000
  19091758.721   -35732543.50149 -25904417.46546  19091757.571    19091763.280
       230.000         177.000
  19340487.885   -23383517.79349 -17624601.71545  19340488.089    19340491.978
       220.000         162.000
 98  1 25  1 23 59.9870000  0  7G 7G 4G 9G24G 2G 5G 8
  18541056.259   -85133916.41549 -65272796.54546  18541055.464    18541060.871
       232.000         184.000
  16848130.709   -60182590.79449 -46347270.47848  16848130.722    16848135.256
       248.000         214.000
  17508066.523   -57479572.48549 -43220281.24647  17508066.078    17508070.739
       245.000         207.000
  17757648.914   -37679459.09049 -28261750.77147  17757648.546    17757654.590
       237.000         194.000
  19549872.763  -103946881.09249 -80972529.62445  19549872.135    19549878.618
       220.000         160.000
  19054980.086   -35925816.15249 -26055019.50046  19054979.332    19054983.939
       230.000         177.000
  19302886.856   -23581112.31049 -17778571.44445  19302886.500    19302890.510
       221.000         162.000
 98  1 25  1 24 29.9870000  0  7G 7G 4G 9G24G 2G 5G 8
  18532011.819   -85181444.98449 -65309831.78646  18532010.336    18532016.393
       231.000         183.000
  16825941.005   -60299198.40349 -46438133.53148  16825940.923    16825945.271
       247.000         214.000
  17485181.069   -57599836.35849 -43313993.34847  17485180.551    17485185.266
       244.000         207.000
  17721015.829   -37871966.93949 -28411756.84547  17721015.616    17721021.629
       238.000         194.000
  19542389.676  -103986204.87749 -81003171.53545  19542387.487    19542394.872
       219.000         159.000
  19018216.186   -36119011.37749 -26205561.19346  19018215.393    19018220.013
       230.000         178.000
  19265362.806   -23778302.20349 -17932225.86245  19265363.456    19265367.090
       220.000         162.000
 98  1 25  1 24 59.9870000  0  7G 7G 4G 9G24G 2G 5G 8
  18522979.327   -85228910.80449 -65346818.12346  18522978.699    18522983.670
       231.000         183.000
  16803865.587   -60415205.41749 -46528528.58248  16803865.526    16803869.808
       247.000         214.000
  17462404.758   -57719526.61849 -43407258.47947  17462404.359    17462409.261
       245.000         207.000
  17684456.931   -38064085.32049 -28561459.43947  17684456.975    17684462.556
       239.000         195.000
  19534958.811  -104025254.72549 -81033599.99145  19534957.340    19534964.113
       219.000         158.000
  18981465.804   -36312135.49849 -26356047.47846  18981464.196    18981470.612
       231.000         178.000
  19227916.185   -23975085.26349 -18085563.26545  19227915.391    19227920.510
       222.000         162.000
 98  1 25  1 25 29.9870000  0  7G 7G 4G 9G24G 2G 5G 8
  18513960.474   -85276304.81349 -65383748.51746  18513959.862    18513964.478
       231.000         182.000
  16781907.565   -60530595.66649 -46618443.04248  16781907.437    16781911.914
       247.000         214.000
  17439735.332   -57838655.25549 -43500085.98147  17439734.923    17439739.670
       245.000         207.000
  17647970.478   -38255822.89849 -28710865.30447  17647970.374    17647976.298
       239.000         195.000
  19527581.414  -104064023.65749 -81063809.56445  19527580.977    19527585.915
       219.000         160.000
  18944728.797   -36505189.36649 -26506479.03946  18944727.748    18944733.532
       230.000         178.000
  19190548.155   -24171455.44949 -18238578.96245  19190546.651    19190553.108
       221.000         162.000
 98  1 25  1 25 59.9870000  0  7G 7G 4G 9G24G 2G 5G 8
  18504957.159   -85323617.42749 -65420615.46846  18504956.225    18504961.926
       231.000         182.000
  16760070.214   -60645351.63749 -46707863.25748  16760070.105    16760074.272
       247.000         214.000
  17417172.862   -57957221.87349 -43592475.54647  17417172.332    17417177.091
       245.000         207.000
  17611555.310   -38447185.80849 -28859979.21547  17611555.004    17611560.551
       239.000         196.000
  19520262.044  -104102487.62149 -81093781.48145  19520262.144    19520267.182
       220.000         159.000
  18908008.286   -36698156.86349 -26656843.27946  18908008.058    18908012.743
       231.000         179.000
  19153261.658   -24367397.05349 -18391260.69046  19153260.744    19153265.661
       223.000         163.000
 98  1 25  1 26 29.9870000  0  7G 7G 4G 9G24G 2G 5G 8
  18495968.026   -85370855.64149 -65457424.45546  18495967.578    18495971.838
       231.000         182.000
  16738352.836   -60759477.03949 -46796792.12448  16738352.779    16738356.881
       247.000         215.000
  17394716.883   -58075228.72349 -43684428.93147  17394716.588    17394721.266
       245.000         207.000
  17575211.170   -38638175.25349 -29008802.12447  17575210.985    17575216.707
       239.000         196.000
  19512993.352  -104140684.86249 -81123545.59045  19512992.836    19512999.485
       219.000         159.000
  18871303.990   -36891039.18649 -26807141.16046  18871303.478    18871308.617
       230.000         179.000
  19116058.719   -24562899.51249 -18543600.23846  19116058.718    19116063.029
       222.000         164.000
 98  1 25  1 26 59.9870000  0  7G 7G 4G 9G24G 2G 5G 8
  18486994.087   -85418014.10949 -65494171.30046  18486992.721    18486998.339
       231.000         182.000
  16716753.601   -60872981.64249 -46885237.24548  16716753.542    16716757.877
       247.000         215.000
  17372367.722   -58192674.23749 -43775944.90847  17372367.091    17372371.987
       244.000         207.000
  17538941.635   -38828772.95149 -29157319.77247  17538941.583    17538947.102
       240.000         196.000
  19505774.605  -104178619.86649 -81153105.32045  19505773.984    19505779.439
       220.000         159.000
  18834618.124   -37083824.76149 -26957363.64946  18834617.366    18834622.487
       231.000         179.000
  19078938.019   -24757970.09949 -18695603.25546  19078937.816    19078942.888
       223.000         164.000
 98  1 25  1 27 29.9870000  0  7G 7G 4G 9G24G 2G 5G 8
  18478032.183   -85465108.95949 -65530868.57346  18478030.995    18478036.445
       231.000         182.000
  16695271.205   -60985872.16549 -46973203.87048  16695271.074    16695275.417
       247.000         215.000
  17350130.253   -58309532.45449 -43867003.25247  17350129.835    17350134.607
       244.000         207.000
  17502746.806   -39018977.85449 -29305531.35547  17502746.591    17502752.364
       240.000         196.000
  19498604.050  -104216300.93349 -81182467.21845  19498604.267    19498610.323
       219.000         159.000
  18797951.204   -37276510.68349 -27107508.48946  18797950.620    18797956.056
       231.000         180.000
  19041897.992   -24952616.67949 -18847275.87446  19041896.779    19041901.928
       222.000         164.000
 98  1 25  1 27 59.9870000  0  7G 7G 4G 9G24G 2G 5G 8
  18469082.911   -85512137.49449 -65567514.18046  18469082.101    18469087.186
       231.000         181.000
  16673905.267   -61098150.62149 -47060693.55448  16673905.376    16673909.478
       248.000         215.000
  17328008.332   -58425783.96649 -43957588.83847  17328008.000    17328012.778
       244.000         207.000
  17466628.055   -39208783.03949 -29453431.45747  17466627.835    17466633.783
       240.000         197.000
  19491480.083  -104253737.86649 -81211638.84545  19491478.680    19491485.729
       217.000         159.000
  18761302.704   -37469100.02649 -27257578.07646  18761302.011    18761307.289
       231.000         180.000
  19004937.961   -25146843.19149 -18998621.16146  19004937.466    19004942.716
       223.000         164.000
 98  1 25  1 28 29.9870000  0  7G 7G 4G 9G24G 2G 5G 8
  18460148.385   -85559088.53249 -65604099.39046  18460148.195    18460152.442
       231.000         181.000
  16652654.655   -61209823.26149 -47147711.17748  16652654.677    16652658.908
       248.000         215.000
  17306000.922   -58541433.74149 -44047705.53547  17306000.715    17306005.399
       244.000         207.000
  17430586.202   -39398184.19349 -29601016.73647  17430585.257    17430591.976
       240.000         197.000
  19484399.981  -104290943.49249 -81240630.23945  19484399.411    19484404.519
       219.000         159.000
  18724671.236   -37661599.61849 -27407577.71546  18724670.131    18724675.483
       231.000         180.000
  18968056.581   -25340656.06049 -19149644.14646  18968055.678    18968060.416
       223.000         164.000
 98  1 25  1 28 59.9870000  0  7G 7G 4G 9G24G 2G 5G 8
  18451231.147   -85605948.64249 -65640613.75646  18451230.209    18451235.357
       230.000         181.000
  16631520.070   -61320886.48649 -47234253.93748  16631520.178    16631524.380
       248.000         215.000
  17284106.217   -58656491.30649 -44137360.78047  17284105.373    17284110.305
       244.000         207.000
  17394623.555   -39587168.75849 -29748277.40747  17394623.413    17394629.207
       240.000         197.000
  19477368.747  -104327893.10149 -81269422.16245  19477368.678    19477374.832
       220.000         160.000
  18688058.392   -37854001.07649 -27557500.90046  18688057.257    18688063.122
       231.000         181.000
  18931255.001   -25534049.38949 -19300340.21746  18931253.516    18931259.202
       224.000         165.000
 98  1 25  1 29 29.9860000  0  7G 7G 4G 9G24G 2G 5G 8
  18442330.511   -85652721.88749 -65677060.42446  18442329.281    18442335.203
       230.000         181.000
  16610502.936   -61431332.27049 -47320315.56248  16610502.898    16610507.287
       248.000         215.000
  17262321.412   -58770970.92049 -44226565.66547  17262321.164    17262325.914
       243.000         207.000
  17358740.293   -39775736.52449 -29895213.28847  17358739.844    17358745.966
       239.000         198.000
  19470387.396  -104364580.69649 -81298009.89245  19470386.752    19470392.521
       220.000         159.000
  18651463.656   -38046307.49149 -27707350.02246  18651463.031    18651468.063
       231.000         181.000
  18894537.175   -25727002.61949 -19450693.33446  18894537.184    18894541.360
       223.000         166.000
 98  1 25  1 29 59.9860000  0  7G 7G 4G 9G24G 2G 5G 8
  18433443.825   -85699421.78849 -65713449.96046  18433443.013    18433448.387
       230.000         180.000
  16589600.294   -61541176.36149 -47405908.34548  16589600.289    16589604.409
       248.000         215.000
  17240638.883   -58884913.58049 -44315352.15047  17240638.464    17240643.476
       244.000         207.000
  17322935.665   -39963890.81849 -30041826.99347  17322935.451    17322940.917
       240.000         198.000
  19463456.783  -104401001.01949 -81326389.38345  19463456.330    19463462.993
       221.000         159.000
  18614882.893   -38238540.52049 -27857141.95946  18614881.965    18614887.382
       232.000         181.000
  18857900.040   -25919531.94549 -19600716.16046  18857898.499    18857903.946
       222.000         166.000
 98  1 25  1 30 29.9860000  0  7G 7G 4G 9G24G 2G 5G 8
  18424569.848   -85746055.11549 -65749787.60646  18424569.066    18424574.176
       230.000         180.000
  16568812.908   -61650414.85949 -47491029.22948  16568812.979    16568817.092
       247.000         215.000
  17219057.437   -58998325.07649 -44403724.73747  17219057.035    17219061.626
       244.000         207.000
  17287214.849   -40151605.07749 -30188097.80047  17287214.341    17287220.167
       240.000         199.000
  19456578.520  -104437146.88149 -81354554.98145  19456578.101    19456583.295
       219.000         159.000
  18578319.307   -38430683.44549 -28006863.68146  18578318.708    18578323.979
       231.000         181.000
  18821346.104   -26111623.65949 -19750397.97846  18821345.883    18821350.601
       223.000         166.000
 98  1 25  1 30 59.9860000  0  7G 7G 4G 9G24G 2G 5G 8
  18415705.465   -85792637.99649 -65786085.94446  18415704.773    18415710.011
       231.000         180.000
  16548140.582   -61759048.49149 -47575678.79148  16548140.641    16548144.721
       248.000         215.000
  17197577.923   -59111200.53349 -44491679.63447  17197577.685    17197582.570
       244.000         207.000
  17251579.662   -40338869.03649 -30334017.73047  17251579.300    17251585.119
       240.000         199.000
  19449752.213  -104473019.50249 -81382507.67145  19449752.007    19449757.624
       221.000         159.000
  18541772.968   -38622735.42649 -28156514.54146  18541772.178    18541777.056
       231.000         181.000
  18784875.119   -26303279.76549 -19899740.37746  18784875.261    18784879.655
       221.000         167.000
 98  1 25  1 31 29.9860000  0  7G 7G 4G 9G24G 2G 5G 8
  18406848.864   -85839180.12949 -65822352.53446  18406847.704    18406852.863
       231.000         180.000
  16527582.484   -61867081.83949 -47659860.60048  16527582.373    16527586.523
       248.000         215.000
  17176203.413   -59223524.49249 -44579204.79547  17176202.872    17176207.602
       244.000         207.000
  17216027.738   -40525695.51149 -30479596.76347  17216027.692    17216033.351
       240.000         199.000
  19442975.840  -104508629.51249 -81410255.74545  19442974.629    19442980.423
       219.000         159.000
  18505241.844   -38814707.42649 -28306103.07846  18505240.818    18505246.141
       231.000         181.000
  18748483.476   -26494518.82049 -20048757.78046  18748482.646    18748488.346
       223.000         167.000
 98  1 25  1 31 59.9860000  0  7G 7G 4G 9G24G 2G 5G 8
  18398003.332   -85885663.73049 -65858573.51746  18398002.238    18398007.377
       230.000         179.000
  16507138.472   -61974515.81049 -47743575.36148  16507138.446    16507142.719
       247.000         215.000
  17154937.172   -59335279.23749 -44666286.41047  17154936.794    17154941.577
       244.000         207.000
  17180559.577   -40712081.81049 -30624832.80047  17180559.246    17180564.855
       240.000         199.000
  19436248.220  -104543983.18649 -81437804.04945  19436248.185    19436253.732
       218.000         159.000
  18468726.445   -39006596.94049 -28455627.34046  18468725.377    18468730.970
       232.000         182.000
  18712170.081   -26685346.20049 -20197454.40946  18712169.864    18712173.531
       222.000         167.000
 98  1 25  1 32 29.9860000  0  7G 7G 4G 9G24G 2G 5G 8
  18389175.058   -85932056.79349 -65894723.95146  18389174.310    18389179.450
       230.000         179.000
  16486807.343   -62081356.51049 -47826827.83348  16486807.361    16486811.630
       248.000         215.000
  17133782.445   -59446448.13949 -44752911.52947  17133782.000    17133786.850
       244.000         207.000
  17145173.447   -40898037.00349 -30769732.91547  17145173.363    17145178.790
       241.000         199.000
  19429570.008  -104579077.01249 -81465149.91445  19429570.039    19429574.922
       220.000         159.000
  18432229.823   -39198387.77849 -28605074.71346  18432228.734    18432234.141
       232.000         182.000
  18675938.490   -26875744.09849 -20345816.39046  18675938.177    18675943.028
       221.000         168.000
 98  1 25  1 32 59.9860000  0  7G 7G 4G 9G24G 2G 5G 8
  18380366.435   -85978346.44849 -65930793.80846  18380365.957    18380370.763
       229.000         179.000
  16466590.956   -62187594.33849 -47909610.53648  16466590.886    16466594.951
       248.000         215.000
  17112744.289   -59557004.33449 -44839059.21747  17112744.004    17112748.835
       243.000         207.000
  17109867.657   -41083570.20649 -30914304.20847  17109867.345    17109873.004
       240.000         199.000
  19422942.627  -104613904.16049 -81492287.95445  19422941.717    19422947.307
       219.000         158.000
  18395752.312   -39390078.23549 -28754443.86746  18395751.876    18395757.255
       233.000         182.000
  18639791.160   -27065699.62949 -20493833.66246  18639790.821    18639795.850
       224.000         168.000
 98  1 25  1 33 29.9860000  0  7G 7G 4G 9G24G 2G 5G 8
  18371576.834   -86024536.13949 -65966785.76646  18371575.743    18371580.678
       230.000         178.000
  16446488.446   -62293233.54949 -47991926.78148  16446488.543    16446492.629
       248.000         215.000
  17091822.830   -59666947.34249 -44924729.09147  17091822.537    17091827.290
       244.000         207.000
  17074640.557   -41268689.60349 -31058553.05347  17074639.933    17074646.207
       241.000         199.000
  19416365.041  -104648469.96549 -81519222.33045  19416365.200    19416369.806
       219.000         159.000
  18359294.443   -39581665.75649 -28903732.81446  18359293.755    18359298.989
       232.000         183.000
  18603730.509   -27255199.52249 -20641495.87846  18603730.256    18603735.255
       224.000         169.000
 98  1 25  1 33 59.9860000  0  7G 7G 4G 9G24G 2G 5G 8
  18362803.749   -86070638.53649 -66002709.70846  18362802.466    18362807.925
       228.000         178.000
  16426498.648   -62398280.52049 -48073781.54848  16426498.682    16426503.035
       247.000         215.000
  17071014.931   -59776293.57649 -45009933.95547  17071014.303    17071019.144
       243.000         207.000
  17039493.294   -41453389.39749 -31202474.94347  17039493.254    17039498.606
       241.000         200.000
  19409836.950  -104682775.35949 -81545953.82245  19409835.840    19409842.354
       220.000         158.000
  18322859.882   -39773130.53749 -29052926.11846  18322859.139    18322864.021
       232.000         183.000
  18567762.264   -27444213.79549 -20788779.71046  18567761.516    18567766.409
       223.000         169.000
 98  1 25  1 34 29.9860000  0  7G 7G 4G 9G24G 2G 5G 8
  18354042.414   -86116679.30749 -66038585.63046  18354041.182    18354046.326
       229.000         177.000
  16406623.193   -62502726.73549 -48155168.18648  16406623.161    16406627.515
       248.000         215.000
  17050320.613   -59885042.86949 -45094673.66247  17050320.259    17050324.969
       244.000         207.000
  17004428.272   -41637657.14249 -31346060.16047  17004427.969    17004433.659
       241.000         200.000
  19403359.191  -104716816.43949 -81572479.34845  19403358.464    19403364.357
       219.000         157.000
  18286452.511   -39964452.31649 -29202007.98846  18286452.163    18286456.258
       233.000         183.000
  18531890.242   -27632722.42149 -20935669.51746  18531890.059    18531894.016
       223.000         169.000
 98  1 25  1 34 59.9860000  0  7G 7G 4G 9G24G 2G 5G 8
  18345286.147   -86162693.37149 -66074440.74346  18345285.653    18345290.337
       229.000         177.000
  16386862.305   -62606570.85349 -48236085.66148  16386862.311    16386866.468
       248.000         215.000
  17029737.587   -59993207.37449 -45178957.69647  17029737.078    17029742.131
       243.000         207.000
  16969444.492   -41821498.01149 -31489312.74847  16969444.228    16969449.885
       241.000         200.000
  19396928.607  -104750610.14049 -81598812.09745  19396927.467    19396934.779
       218.000         157.000
  18250070.470   -40155641.27649 -29350986.36246  18250069.710    18250075.163
       233.000         184.000
  18496113.465   -27820730.79649 -21082169.53646  18496113.217    18496118.203
       225.000         170.000
 98  1 25  1 35 29.9860000  0  7G 7G 4G 9G24G 2G 5G 8
  18336535.331   -86208679.10649 -66110273.78846  18336534.261    18336539.402
       229.000         176.000
  16367213.779   -62709824.49649 -48316543.02448  16367213.734    16367217.873
       248.000         215.000
  17009261.006   -60100812.76849 -45262806.05847  17009260.654    17009265.416
       243.000         207.000
  16934543.266   -42004904.94049 -31632227.20047  16934543.020    16934548.679
       241.000         200.000
  19390545.857  -104784151.45749 -81624948.19845  19390545.005    19390551.193
       218.000         157.000
  18213715.899   -40346685.74649 -29499852.15146  18213715.377    18213720.261
       232.000         184.000
  18460432.248   -28008237.26249 -21228278.44246  18460431.439    18460435.841
       226.000         170.000
 98  1 25  1 35 59.9860000  0  7G 7G 4G 9G24G 2G 5G 8
  18327792.131   -86254624.49549 -66146075.38846  18327791.204    18327796.537
       228.000         176.000
  16347679.766   -62812476.37849 -48396531.48748  16347679.857    16347684.090
       248.000         215.000
  16988888.787   -60207869.56849 -45346226.95047  16988888.347    16988893.226
       244.000         207.000
  16899725.752   -42187872.28749 -31774799.12947  16899725.334    16899731.290
       241.000         200.000
  19384213.763  -104817426.73249 -81650877.00445  19384212.909    19384218.814
       217.000         156.000
  18177388.226   -40537588.66849 -29648607.64846  18177387.187    18177392.297
       233.000         184.000
  18424846.415   -28195242.57149 -21373996.84346  18424846.104    18424850.776
       225.000         171.000
 98  1 25  1 36 29.9850000  0  7G 7G 4G 9G24G 2G 5G 8
  18319060.464   -86300510.04349 -66181830.35746  18319059.809    18319065.744
       228.000         176.000
  16328263.265   -62914510.87349 -48476038.86548  16328263.289    16328267.413
       248.000         215.000
  16968623.203   -60314366.04749 -45429211.21647  16968622.887    16968627.638
       244.000         207.000
  16864994.106   -42370388.20349 -31917019.28247  16864993.688    16864999.600
       241.000         201.000
  19377933.764  -104850428.16649 -81676592.40645  19377932.317    19377940.029
       216.000         154.000
  18141085.720   -40728359.38449 -29797260.12246  18141084.748    18141090.228
       232.000         185.000
  18389352.565   -28381764.02949 -21519338.20546  18389351.247    18389356.571
       225.000         172.000
 98  1 25  1 36 59.9850000  0  8G 7G 4G 9G24G 2G 5G16G 8
  18310344.896   -86346310.77949 -66217519.24246  18310344.003    18310349.081
       228.000         176.000
  16308963.977   -63015929.14149 -48555066.06748  16308964.029    16308968.265
       248.000         215.000
  16948463.504   -60420306.19149 -45511761.98247  16948463.073    16948467.958
       244.000         207.000
  16830347.529   -42552457.03949 -32058891.06547  16830347.213    16830352.884
       242.000         201.000
  19371707.765  -104883145.77249 -81702086.64445  19371707.876    19371713.518
       218.000         155.000
  18104804.093   -40919020.43949 -29945827.13946  18104803.116    18104808.237
       233.000         185.000
  20382888.594   -13757053.20449 -10290766.56945  20382887.181    20382893.194
       209.000         141.000
  18353946.657   -28567823.15249 -21664319.31146  18353946.237    18353950.697
       226.000         172.000
 98  1 25  1 37 29.9850000  0  8G 7G 4G 9G24G 2G 5G16G 8
  18301650.085   -86392002.38249 -66253123.08346  18301649.871    18301654.389
       229.000         176.000
  16289786.298   -63116708.34049 -48633595.29748  16289786.306    16289790.568
       248.000         215.000
  16928411.516   -60525679.89249 -45593871.36647  16928411.065    16928415.949
       244.000         207.000
  16795789.322   -42734061.74949 -32200401.19747  16795788.877    16795794.510
       242.000         201.000
  19365537.355  -104915571.25849 -81727353.27445  19365536.438    19365543.277
       217.000         155.000
  18068545.371   -41109561.11449 -30094300.36346  18068544.747    18068549.664
       233.000         185.000
  20358941.491   -13882895.86649 -10388825.75945  20358941.738    20358946.588
       209.000         142.000
  18318630.176   -28753412.62349 -21808934.45446  18318629.487    18318634.777
       226.000         172.000
 98  1 25  1 37 59.9850000  0  8G 7G 4G 9G24G 2G 5G16G 8
  18292974.367   -86437593.95649 -66288648.98046  18292973.578    18292979.523
       228.000         176.000
  16270732.452   -63216837.02049 -48711617.62948  16270732.366    16270736.626
       248.000         215.000
  16908471.666   -60630464.51549 -45675521.72847  16908471.209    16908475.976
       243.000         207.000
  16761318.794   -42915205.30949 -32341551.99347  16761318.381    16761323.942
       242.000         201.000
  19359420.820  -104947713.79349 -81752399.45445  19359420.702    19359425.672
       217.000         154.000
  18032310.529   -41299976.39949 -30242675.87546  18032309.762    18032315.024
       233.000         186.000
  20335088.772   -14008243.32349 -10486499.07945  20335086.443    20335094.366
       206.000         144.000
  18283403.381   -28938530.34849 -21953181.99746  18283403.243    18283407.442
       226.000         172.000
 98  1 25  1 38 29.9850000  0  8G 7G 4G 9G24G 2G 5G16G 8
  18284315.242   -86483098.16149 -66324106.79346  18284314.073    18284319.521
       228.000         175.000
  16251799.440   -63316330.48249 -48789144.97548  16251799.333    16251803.783
       248.000         215.000
  16888647.579   -60734640.66249 -45756697.94347  16888647.253    16888652.074
       244.000         207.000
  16726937.332   -43095881.15949 -32482338.32947  16726936.803    16726942.245
       242.000         201.000
  19353355.495  -104979587.91749 -81777236.40045  19353355.061    19353360.867
       216.000         154.000
  17996101.978   -41490253.72549 -30390943.87946  17996101.158    17996106.015
       234.000         186.000
  20311328.059   -14133104.71549 -10583793.64145  20311326.181    20311332.765
       206.000         142.000
  18248266.537   -29123175.37649 -22097061.20546  18248265.978    18248270.911
       226.000         173.000
 98  1 25  1 38 59.9850000  0  8G 7G 4G 9G24G 2G 5G16G 8
  18275670.887   -86528524.38549 -66359503.84246  18275670.217    18275674.599
       227.000         175.000
  16232986.754   -63415191.91749 -48866179.84448  16232986.757    16232990.839
       248.000         215.000
  16868941.238   -60838198.40949 -45837392.29347  16868940.905    16868945.598
       244.000         207.000
  16692645.598   -43276085.24749 -32622757.06747  16692645.252    16692651.078
       242.000         201.000
  19347339.178  -105011203.40349 -81801871.87745  19347337.357    19347344.290
       214.000         152.000
  17959922.403   -41680378.41049 -30539092.95646  17959921.725    17959926.991
       235.000         186.000
  20287663.510   -14257461.34249 -10680694.87745  20287663.383    20287669.057
       202.000         139.000
  18213226.176   -29307313.42349 -22240545.36646  18213225.546    18213230.311
       225.000         173.000
 98  1 25  1 39 29.9850000  0  8G 7G 4G 9G24G 2G 5G16G 8
  18267038.212   -86573889.09649 -66394852.97646  18267036.854    18267042.924
       227.000         175.000
  16214293.095   -63513427.71949 -48942727.21248  16214293.138    16214297.228
       248.000         215.000
  16849353.501   -60941132.49649 -45917600.68047  16849353.066    16849357.783
       243.000         207.000
  16658442.281   -43455824.75549 -32762813.79747  16658441.841    16658447.527
       242.000         202.000
  19341372.108  -105042560.32149 -81826305.85645  19341370.948    19341377.358
       213.000         150.000
  17923775.137   -41870333.45349 -30687109.84646  17923774.429    17923779.238
       234.000         187.000
  20264092.963   -14381324.95749 -10777211.96845  20264092.471    20264098.235
       204.000         139.000
  18178284.951   -29490930.35149 -22383623.46846  18178283.686    18178289.740
       226.000         173.000
 98  1 25  1 39 59.9850000  0  8G 7G 4G 9G24G 2G 5G16G 8
  18258414.365   -86619207.77449 -66430166.23246  18258413.683    18258419.149
       227.000         175.000
  16195712.151   -63611071.10649 -49018812.95448  16195712.152    16195716.422
       248.000         215.000
  16829883.227   -61043449.42149 -45997328.15947  16829883.074    16829887.532
       244.000         207.000
  16624329.120   -43635090.28549 -32902501.18747  16624328.757    16624334.617
       242.000         202.000
  19335453.021  -105073665.40649 -81850543.59845  19335451.455    19335458.655
       216.000         152.000
  17887660.414   -42060117.18349 -30834993.24646  17887659.871    17887665.106
       235.000         187.000
  20240616.709   -14504693.19649 -10873343.04445  20240616.563    20240622.453
       205.000         138.000
  18143441.726   -29674032.47049 -22526300.41346  18143440.937    18143445.812
       226.000         173.000
 98  1 25  1 40 29.9850000  0  8G 7G 4G 9G24G 2G 5G16G 8
  18249799.434   -86664479.44049 -66465442.85146  18249798.397    18249803.482
       227.000         175.000
  16177240.262   -63708141.49449 -49094452.19448  16177240.200    16177244.348
       250.000         215.000
  16810526.174   -61145171.61049 -46076592.19847  16810525.715    16810530.579
       244.000         207.000
  16590306.861   -43813878.39549 -33041816.55547  16590306.330    16590312.148
       241.000         202.000
  19329580.622  -105104525.46749 -81874590.39345  19329580.290    19329584.976
       215.000         150.000
  17851573.850   -42249753.28649 -30982761.60447  17851573.313    17851578.043
       235.000         188.000
  20217233.620   -14627572.43449 -10969093.06745  20217233.141    20217238.792
       202.000         138.000
  18108695.564   -29856624.76049 -22668580.08446  18108695.561    18108700.059
       226.000         174.000
 98  1 25  1 40 59.9850000  0  8G 7G 4G 9G24G 2G 5G16G 8
  18241196.377   -86709688.87749 -66500670.98646  18241195.373    18241200.328
       227.000         175.000
  16158879.067   -63804630.15549 -49169638.14748  16158879.021    16158883.295
       250.000         215.000
  16791280.988   -61246305.91149 -46155398.14847  16791280.538    16791285.171
       243.000         207.000
  16556376.458   -43992183.71649 -33180755.73647  16556376.299    16556381.819
       242.000         202.000
  19323757.443  -105135126.24149 -81898435.16445  19323757.301    19323762.799
       213.000         149.000
  17815515.721   -42439240.10349 -31130413.64047  17815515.205    17815520.139
       235.000         188.000
  20193946.966   -14749944.89249 -11064448.19745  20193946.282    20193953.173
       206.000         138.000
  18074046.885   -30038704.90049 -22810460.67946  18074046.718    18074051.074
       226.000         174.000
 98  1 25  1 41 29.9850000  0  8G 7G 4G 9G24G 2G 5G16G 8
  18232610.228   -86754809.68649 -66535830.05146  18232609.557    18232614.450
       227.000         175.000
  16140629.876   -63900530.20549 -49244365.44448  16140629.814    16140633.979
       250.000         215.000
  16772145.923   -61346861.19149 -46233752.91747  16772145.265    16772150.261
       243.000         207.000
  16522541.645   -44169986.79749 -33319303.55547  16522541.453    16522546.764
       242.000         203.000
  19317987.898  -105165445.34549 -81922060.47045  19317986.866    19317993.601
       214.000         148.000
  17779486.733   -42628573.84449 -31277946.40247  17779486.058    17779490.960
       235.000         188.000
  20170756.868   -14871809.79249 -11159407.83745  20170755.986    20170763.045
       198.000         135.000
  18039492.470   -30220289.19649 -22951954.91346  18039491.980    18039495.890
       227.000         173.000
 98  1 25  1 41 59.9850000  0  8G 7G 4G 9G24G 2G 5G16G 8
  18224041.400   -86799839.16649 -66570917.96046  18224041.698    18224046.370
       228.000         175.000
  16122491.427   -63995848.41749 -49318639.36148  16122491.381    16122495.667
       249.000         215.000
  16753120.030   -61446842.59649 -46311660.51147  16753119.477    16753124.307
       244.000         207.000
  16488804.886   -44347274.57149 -33457449.83947  16488804.668    16488810.140
       242.000         203.000
  19312270.211  -105195492.23349 -81945473.63245  19312269.824    19312276.216
       213.000         148.000
  17743483.288   -42817773.04449 -31425374.31947  17743482.573    17743487.412
       235.000         189.000
  20147664.225   -14993158.99149 -11253965.59645  20147662.134    20147670.332
       199.000         133.000
  18005032.116   -30401379.47749 -23093064.19246  18005031.796    18005036.093
       228.000         174.000
 98  1 25  1 42 29.9850000  0  8G 7G 4G 9G24G 2G 5G16G 8
  18215489.250   -86844781.24649 -66605937.76646  18215488.949    18215493.435
       227.000         174.000
  16104467.206   -64090566.17549 -49392445.39748  16104467.199    16104471.338
       250.000         215.000
  16734205.242   -61546240.22149 -46389113.21747  16734204.701    16734209.691
       244.000         207.000
  16455164.740   -44524054.55449 -33595200.44847  16455164.327    16455170.244
       243.000         203.000
  19306606.108  -105225257.09249 -81968667.06045  19306604.556    19306612.528
       212.000         147.000
  17707505.160   -43006839.46349 -31572698.77947  17707504.540    17707509.343
       236.000         189.000
  20124669.070   -15113999.57249 -11348127.07745  20124668.862    20124674.986
       206.000         135.000
  17970666.691   -30581971.00349 -23233784.82746  17970666.197    17970671.230
       227.000         174.000
 98  1 25  1 42 59.9850000  0  8G 7G 4G 9G24G 2G 5G16G 8
  18206952.767   -86889640.60849 -66640893.11346  18206952.149    18206956.998
       226.000         173.000
  16086561.856   -64184659.34749 -49465764.73648  16086561.975    16086565.986
       249.000         215.000
  16715401.787   -61645053.13749 -46466110.30047  16715401.268    16715406.136
       243.000         207.000
  16421621.568   -44700325.00849 -33732554.01847  16421621.478    16421626.814
       243.000         203.000
  19300997.208  -105254732.26549 -81991634.72345  19300998.017    19301003.529
       212.000         146.000
  17671554.369   -43195762.13149 -31719911.22247  17671553.638    17671558.974
       236.000         190.000
  20101772.197   -15234323.99349 -11441886.36345  20101771.643    20101778.018
       202.000         134.000
  17936395.748   -30762066.35249 -23374118.84246  17936394.822    17936400.006
       227.000         174.000
 98  1 25  1 43 29.9840000  0  8G 7G 4G 9G24G 2G 5G16G 8
  18198431.377   -86934420.98149 -66675786.91446  18198429.979    18198436.387
       226.000         173.000
  16068777.389   -64278117.19749 -49538589.02548  16068777.357    16068781.559
       250.000         215.000
  16696710.239   -61743277.99149 -46542649.15847  16696709.718    16696714.732
       244.000         207.000
  16388173.457   -44876095.88749 -33869518.31247  16388173.094    16388178.752
       242.000         203.000
  19295442.392  -105283923.03149 -82014380.79045  19295441.304    19295448.931
       214.000         146.000
  17635632.682   -43384531.83049 -31867004.47647  17635632.266    17635636.396
       237.000         190.000
  20078971.287   -15354142.37549 -11535251.28045  20078971.377    20078976.037
       202.000         134.000
  17902221.162   -30941654.73549 -23514057.82346  17902220.581    17902225.545
       228.000         175.000
 98  1 25  1 43 59.9840000  0  8G 7G 4G 9G24G 2G 5G16G 8
  18189922.232   -86979136.47549 -66710630.15046  18189921.030    18189926.010
       225.000         172.000
  16051111.242   -64370953.35449 -49610928.87348  16051111.307    16051115.407
       250.000         215.000
  16678132.926   -61840902.48549 -46618720.19847  16678132.449    16678137.240
       243.000         207.000
  16354815.916   -45051390.81649 -34006111.72647  16354815.757    16354821.146
       242.000         204.000
  19289940.543  -105312835.61349 -82036910.07945  19289938.404    19289946.200
       212.000         146.000
  17599739.373   -43573152.31449 -32013981.45547  17599738.684    17599743.429
       236.000         190.000
  20056266.624   -15473455.66149 -11628222.66145  20056265.756    20056270.881
       202.000         133.000
  17868144.671   -31120727.88749 -23653595.31546  17868144.011    17868148.813
       227.000         175.000
 98  1 25  1 44 29.9840000  0  8G 7G 4G 9G24G 2G 5G16G 8
  18181428.393   -87023771.65249 -66745410.81246  18181427.490    18181432.961
       225.000         171.000
  16033567.333   -64463147.05849 -49682768.10948  16033567.272    16033571.434
       250.000         215.000
  16659669.568   -61937927.92849 -46694324.44947  16659669.221    16659674.194
       243.000         207.000
  16321549.085   -45226209.09949 -34142333.73647  16321548.777    16321554.599
       243.000         204.000
  19284495.029  -105341451.13349 -82059207.88545  19284494.562    19284501.783
       211.000         145.000
  17563880.177   -43761593.47149 -32160818.70247  17563879.609    17563884.475
       237.000         190.000
  20033661.373   -15592249.17049 -11720789.03745  20033662.424    20033668.753
       210.000         137.000
  17834168.856   -31299271.89349 -23792720.49346  17834167.333    17834173.271
       228.000         175.000
 98  1 25  1 44 59.9840000  0  8G 7G 4G 9G24G 2G 5G16G 8
  18172950.872   -87068321.13249 -66780124.68846  18172949.659    18172955.865
       226.000         171.000
  16016141.709   -64554719.23349 -49754123.03848  16016141.716    16016145.840
       250.000         215.000
  16641315.565   -62034378.88349 -46769481.04447  16641315.027    16641319.806
       243.000         207.000
  16288369.818   -45400567.08649 -34278197.07247  16288369.277    16288375.092
       242.000         204.000
  19279102.087  -105369790.91049 -82081290.85245  19279101.146    19279108.251
       211.000         143.000
  17528055.073   -43949855.93049 -32307516.69547  17528054.141    17528058.909
       237.000         191.000
  20011154.994   -15710522.06149 -11812949.73545  20011154.276    20011162.828
       204.000         138.000
  17800295.055   -31477279.84049 -23931427.96446  17800294.143    17800299.324
       226.000         175.000
 98  1 25  1 45 29.9840000  0  8G 7G 4G 9G24G 2G 5G16G 8
  18164492.049   -87112772.60449 -66814762.19946  18164491.794    18164496.695
       226.000         172.000
  15998829.386   -64645696.21849 -49825014.17748  15998829.601    15998833.598
       249.000         215.000
  16623073.269   -62130242.79149 -46844180.19547  16623072.836    16623077.710
       243.000         206.000
  16255279.790   -45574456.27649 -34413695.10247  16255279.354    16255284.966
       243.000         204.000
  19273762.105  -105397852.98349 -82103157.40645  19273761.483    19273766.971
       213.000         143.000
  17492267.524   -44137920.75449 -32454060.68747  17492266.896    17492271.369
       237.000         191.000
  19988746.516   -15828279.22349 -11904708.52245  19988745.060    19988752.337
       204.000         137.000
  17766526.505   -31654734.95849 -24069704.64346  17766525.011    17766530.277
       227.000         175.000
 98  1 25  1 45 59.9840000  0  8G 7G 4G 9G24G 2G 5G16G 8
  18156048.188   -87157145.59949 -66849338.55746  18156047.840    18156052.737
       227.000         172.000
  15981628.639   -64736086.83549 -49895448.41348  15981628.619    15981632.646
       249.000         215.000
  16604942.877   -62225518.64449 -46918421.12747  16604942.527    16604947.280
       243.000         207.000
  16222281.652   -45747862.45949 -34548816.77447  16222281.438    16222286.935
       243.000         204.000
  19268474.735  -105425638.44549 -82124808.43645  19268475.332    19268479.636
       214.000         145.000
  17456517.258   -44325789.37049 -32600451.79947  17456516.645    17456521.364
       236.000         191.000
  19966440.041   -15945501.38949 -11996050.41845  19966439.302    19966445.045
       205.000         135.000
  17732862.740   -31831639.08149 -24207551.99546  17732861.855    17732867.183
       228.000         176.000
 98  1 25  1 46 29.9840000  0  8G 7G 4G 9G24G 2G 5G16G 8
  18147618.109   -87201446.08249 -66883858.41746  18147617.136    18147622.478
       226.000         172.000
  15964541.573   -64825879.77849 -49965416.93248  15964541.408    15964545.499
       250.000         215.000
  16586922.182   -62320217.87949 -46992212.75247  16586921.943    16586926.746
       243.000         206.000
  16189376.251   -45920781.25549 -34683558.66747  16189376.128    16189381.759
       244.000         204.000
  19263238.290  -105453156.98749 -82146251.49345  19263237.058    19263243.737
       213.000         146.000
  17420804.065   -44513463.10049 -32746691.04847  17420803.269    17420808.296
       237.000         191.000
  19944236.024   -16062183.27049 -12086971.30645  19944233.674    19944241.249
       201.000         134.000
  17699302.411   -32007999.77349 -24344975.89846  17699302.128    17699306.688
       227.000         176.000
 98  1 25  1 46 59.9840000  0  8G 7G 4G 9G24G 2G 5G16G 8
  18139199.394   -87245686.98249 -66918331.83946  18139198.724    18139204.124
       226.000         172.000
  15947565.456   -64915089.84349 -50034931.25748  15947565.450    15947569.619
       250.000         215.000
  16569012.734   -62414333.02449 -47065549.23947  16569012.431    16569017.345
       243.000         206.000
  16156563.713   -46093212.27449 -34817920.46847  16156563.544    16156569.038
       245.000         205.000
  19258047.571  -105480434.55049 -82167506.73545  19258047.321    19258054.642
       213.000         146.000
  17385124.481   -44700960.42149 -32892792.84347  17385124.159    17385128.447
       236.000         191.000
  19922133.449   -16178332.20749 -12177476.95545  19922134.773    19922137.791
       207.000         133.000
  17665842.501   -32183832.27849 -24481988.21546  17665841.752    17665846.622
       228.000         176.000
 98  1 25  1 47 29.9840000  0  8G 7G 4G 9G24G 2G 5G16G 8
  18130788.036   -87289889.01449 -66952774.98446  18130787.507    18130792.593
       225.000         172.000
  15930700.985   -65003713.17649 -50103988.38948  15930701.075    15930705.301
       249.000         215.000
  16551216.935   -62507850.70349 -47138420.17347  16551216.601    16551221.452
       243.000         206.000
  16123845.482   -46265147.57849 -34951895.99947  16123845.184    16123850.596
       244.000         205.000
  19252903.660  -105507466.34049 -82188570.46245  19252901.833    19252909.738
       211.000         144.000
  17349474.704   -44888301.04949 -33038772.53947  17349473.889    17349478.395
       236.000         191.000
  19900132.687   -16293949.07249 -12267568.02545  19900132.765    19900139.219
       208.000         136.000
  17632480.015   -32359153.55049 -24618602.17246  17632478.989    17632484.097
       229.000         176.000
 98  1 25  1 47 59.9840000  0  8G 7G 4G 9G24G 2G 5G16G 8
  18122382.968   -87334058.36249 -66987192.65446  18122381.416    18122387.543
       225.000         172.000
  15913950.406   -65091738.15949 -50172579.27048  15913950.501    15913954.639
       250.000         215.000
  16533533.218   -62600779.30849 -47210832.07647  16533532.923    16533537.620
       243.000         206.000
  16091222.329   -46436583.22249 -35085482.17947  16091222.039    16091227.546
       244.000         205.000
  19247803.797  -105534266.33149 -82209453.60245  19247803.833    19247810.890
       211.000         145.000
  17313853.827   -45075490.01749 -33184634.05247  17313853.089    17313858.018
       237.000         191.000
  19878236.310   -16409019.68949 -12357233.43645  19878239.281    19878239.810
       211.000         136.000
  17599217.323   -32533950.22249 -24754807.35446  17599217.076    17599221.174
       228.000         177.000
 98  1 25  1 48 29.9840000  0  8G 7G 4G 9G24G 2G 5G16G 8
  18113989.685   -87378165.39049 -67021561.77346  18113988.846    18113993.734
       224.000         171.000
  15897314.575   -65179159.78549 -50240700.01148  15897314.568    15897318.623
       249.000         214.000
  16515961.158   -62693121.05149 -47282786.69747  16515960.888    16515965.394
       243.000         206.000
  16058696.667   -46607506.51249 -35218669.13347  16058696.236    16058701.952
       244.000         205.000
  19242747.363  -105560838.21749 -82230158.98645  19242747.413    19242752.895
       210.000         145.000
  17278263.133   -45262520.25449 -33330371.88947  17278262.388    17278267.132
       236.000         192.000
  19856441.338   -16523556.44349 -12446482.83045  19856436.875    19856442.544
       195.000         133.000
  17566057.588   -32708205.74349 -24890590.85946  17566056.942    17566062.196
       229.000         177.000
 98  1 25  1 48 59.9840000  0  8G 7G 4G 9G24G 2G 5G16G 8
  18105608.845   -87422207.07449 -67055879.97246  18105607.459    18105613.428
       224.000         171.000
  15880791.698   -65265988.10149 -50308358.42848  15880791.807    15880795.967
       248.000         214.000
  16498502.264   -62784868.27649 -47354278.05247  16498502.145    16498506.557
       244.000         206.000
  16026270.530   -46777906.88649 -35351448.61047  16026270.594    16026276.115
       244.000         205.000
  19237735.240  -105587177.36849 -82250683.02845  19237733.264    19237740.677
       209.000         146.000
  17242702.198   -45449394.20349 -33475987.93247  17242701.336    17242706.093
       236.000         192.000
  19834744.366   -16637565.51849 -12535321.08545  19834741.314    19834750.461
       197.000         132.000
  17533004.784   -32881899.23949 -25025936.43246  17533004.044    17533008.535
       229.000         177.000
 98  1 25  1 49 29.9840000  0  8G 7G 4G 9G24G 2G 5G16G 8
  18097240.539   -87466182.08749 -67090146.22346  18097239.652    18097245.316
       223.000         170.000
  15864380.357   -65352230.31449 -50375560.14148  15864380.388    15864384.650
       248.000         214.000
  16481154.372   -62876032.29049 -47425314.95247  16481153.845    16481158.793
       243.000         206.000
  15993944.685   -46947780.23249 -35483817.41947  15993944.303    15993950.109
       244.000         205.000
  19232769.889  -105613270.37749 -82271015.27945  19232768.881    19232774.636
       211.000         147.000
  17207174.693   -45636092.23849 -33621466.90647  17207174.011    17207178.558
       236.000         192.000
  19813149.861   -16751040.99849 -12623743.50145  19813149.512    19813158.368
       201.000         135.000
  17500063.950   -33055004.50849 -25160823.64446  17500063.148    17500068.306
       230.000         177.000
 98  1 25  1 49 59.9840000  0  8G 7G 4G 9G24G 2G 5G16G 8
  18088889.544   -87510066.63049 -67124341.97046  18088888.003    18088894.020
       223.000         169.000
  15848081.297   -65437882.44149 -50442302.04848  15848081.362    15848085.442
       248.000         214.000
  16463915.185   -62966624.87249 -47495906.58647  16463914.819    16463919.631
       243.000         206.000
  15961719.978   -47117122.12449 -35615772.10947  15961719.522    15961725.105
       244.000         205.000
  19227851.910  -105639115.28049 -82291154.15445  19227850.396    19227857.910
       211.000         148.000
  17171685.435   -45822589.29149 -33766789.26147  17171684.580    17171689.797
       236.000         192.000
  19791658.674   -16863977.08549 -12711745.62245  19791656.371    19791665.217
       201.000         135.000
  17467238.090   -33227505.36549 -25295239.88046  17467237.103    17467242.500
       230.000         178.000
 98  1 25  1 50 29.9830000  0  8G 7G 4G 9G24G 2G 5G16G 8
  18080556.923   -87553854.90349 -67158462.70746  18080555.842    18080561.326
       223.000         168.000
  15831895.190   -65522941.04649 -50508581.46948  15831895.267    15831899.444
       248.000         214.000
  16446785.802   -63056640.60049 -47566048.71847  16446785.577    16446790.450
       243.000         206.000
  15929595.607   -47285936.64149 -35747315.85847  15929595.351    15929600.824
       244.000         206.000
  19222986.438  -105664683.56949 -82311077.51445  19222985.064    19222992.435
       213.000         148.000
  17136233.445   -46008890.66349 -33911959.14747  17136232.533    17136237.757
       236.000         193.000
  19770269.272   -16976376.64449 -12799329.69245  19770269.028    19770276.971
       199.000         136.000
  17434525.726   -33399410.06649 -25429191.57246  17434524.830    17434529.418
       231.000         178.000
 98  1 25  1 50 59.9830000  0  8G 7G 4G 9G24G 2G 5G16G 8
  18072239.893   -87597561.34849 -67192519.67646  18072239.089    18072244.074
       223.000         168.000
  15815818.788   -65607423.07049 -50574411.61148  15815818.776    15815822.961
       248.000         214.000
  16429764.038   -63146090.65249 -47635750.06747  16429763.481    16429768.356
       243.000         206.000
  15897566.459   -47454251.00949 -35878469.88547  15897566.094    15897571.612
       244.000         206.000
  19218175.574  -105689964.65049 -82330777.06345  19218174.055    19218180.147
       213.000         146.000
  17100817.783   -46195001.15649 -34056980.29247  17100816.821    17100821.807
       237.000         193.000
  19748981.439   -17088241.97649 -12886497.47045  19748980.915    19748991.779
       200.000         138.000
  17401924.418   -33570731.30049 -25562688.63046  17401923.029    17401928.699
       231.000         178.000
 98  1 25  1 51 29.9830000  0  8G 7G 4G 9G24G 2G 5G16G 8
  18063938.649   -87641184.72649 -67226511.92846  18063938.616    18063942.030
       225.000         169.000
  15799852.911   -65691324.25149 -50639789.14148  15799852.939    15799857.176
       248.000         214.000
  16412849.377   -63234977.79249 -47705012.78347  16412848.801    16412853.676
       243.000         206.000
  15865631.679   -47622069.36149 -36009237.40447  15865631.512    15865636.990
       244.000         206.000
  19213419.353  -105714958.62049 -82350252.90645  19213418.987    19213424.830
       212.000         146.000
  17065442.583   -46380899.06949 -34201835.79447  17065442.000    17065447.011
       237.000         194.000
  19727796.010   -17199568.95549 -12973245.76145  19727795.841    19727805.808
       200.000         139.000
  17369431.922   -33741480.56849 -25695739.99846  17369431.883    17369436.024
       229.000         178.000
 98  1 25  1 51 59.9830000  0  8G 7G 4G 9G24G 2G 5G16G 8
  18055651.231   -87684735.59349 -67260447.64346  18055651.393    18055655.975
       224.000         169.000
  15783996.918   -65774647.86049 -50704716.61548  15783996.856    15784001.035
       248.000         214.000
  16396040.974   -63323306.48149 -47773840.33547  16396040.517    16396045.140
       243.000         206.000
  15833789.878   -47789399.06749 -36139624.15547  15833789.596    15833795.064
       244.000         207.000
  19208715.312  -105739678.83349 -82369515.44445  19208713.055    19208721.204
       210.000         147.000
  17030104.696   -46566600.98049 -34346538.55547  17030104.234    17030108.819
       238.000         194.000
  19706709.757   -17310378.03349 -13059590.46045  19706709.489    19706718.633
       205.000         140.000
  17337043.564   -33911682.23049 -25828364.64546  17337043.475    17337047.594
       229.000         179.000
 98  1 25  1 52 29.9830000  0  8G 7G 4G 9G24G 2G 5G16G 8
  18047373.715   -87728234.30949 -67294342.74346  18047373.883    18047377.910
       225.000         169.000
  15768249.027   -65857403.47649 -50769201.49648  15768249.028    15768253.248
       247.000         214.000
  16379339.318   -63411074.27849 -47842230.83347  16379339.080    16379343.832
       243.000         206.000
  15802042.298   -47956233.60249 -36269625.06147  15802042.174    15802047.612
       244.000         207.000
  19204061.374  -105764135.26149 -82388572.40645  19204060.516    19204067.213
       213.000         146.000
  16994804.063   -46752107.33049 -34491088.94047  16994803.582    16994808.203
       237.000         194.000
  19685721.673   -17420672.17949 -13145533.93245  19685722.428    19685730.837
       204.000         140.000
  17304759.114   -34081337.90949 -25960563.87246  17304758.885    17304763.201
       230.000         179.000
 98  1 25  1 52 59.9830000  0  8G 7G 4G 9G24G 2G 5G16G 8
  18039103.886   -87771692.80849 -67328206.51846  18039102.519    18039108.054
       224.000         169.000
  15752607.886   -65939598.12749 -50833249.26548  15752607.837    15752612.103
       247.000         214.000
  16362744.607   -63498280.07149 -47910183.41047  16362744.368    16362748.872
       243.000         206.000
  15770391.577   -48122559.24749 -36399229.43147  15770391.255    15770396.536
       244.000         207.000
  19199451.185  -105788362.07449 -82407450.48245  19199449.498    19199456.325
       210.000         147.000
  16959543.547   -46937402.69549 -34635474.91947  16959543.013    16959547.679
       239.000         195.000
  19664831.456   -17530454.74949 -13231078.80445  19664833.159    19664839.413
       212.000         142.000
  17272577.727   -34250452.37349 -26092341.36446  17272576.404    17272581.863
       229.000         179.000
 98  1 25  1 53 29.9830000  0  8G 7G 4G 9G24G 2G 5G16G 8
  18030841.264   -87815113.44249 -67362040.77846  18030840.779    18030846.661
       223.000         168.000
  15737074.452   -66021227.02449 -50896856.18348  15737074.420    15737078.552
       248.000         214.000
  16346258.187   -63584916.76449 -47977692.52747  16346257.881    16346262.601
       243.000         206.000
  15738840.806   -48288359.53749 -36528424.42847  15738840.467    15738846.133
       244.000         207.000
  19194884.561  -105812359.49149 -82426149.80245  19194884.648    19194891.177
       214.000         147.000
  16924320.226   -47122502.47849 -34779708.49347  16924319.467    16924324.426
       238.000         195.000
  19644039.724   -17639723.27349 -13316223.05045  19644042.312    19644043.424
       214.000         143.000
  17240498.434   -34419030.08149 -26223700.60446  17240497.832    17240503.031
       229.000         179.000
 98  1 25  1 53 59.9830000  0  8G 7G 4G 9G24G 2G 5G16G 8
  18022584.693   -87858501.94949 -67395850.00746  18022583.055    18022589.266
       221.000         168.000
  15721647.164   -66102297.98149 -50960028.34648  15721647.280    15721651.141
       248.000         214.000
  16329877.269   -63670999.00149 -48044769.60647  16329876.622    16329881.638
       243.000         206.000
  15707389.856   -48453635.23949 -36657210.65847  15707389.690    15707395.084
       244.000         207.000
  19190361.242  -105836130.00749 -82444672.28445  19190361.109    19190367.561
       211.000         146.000
  16889130.719   -47307424.43949 -34923803.50647  16889129.799    16889134.849
       238.000         195.000
  19623344.514   -17748480.86649 -13400969.18345  19623343.322    19623349.411
       211.000         143.000
  17208520.620   -34587074.62149 -26354644.39246  17208519.420    17208524.605
       229.000         180.000
 98  1 25  1 54 29.9830000  0  8G 7G 4G 9G24G 2G 5G16G 8
  18014334.958   -87901854.24449 -67429631.01946  18014334.086    18014339.901
       223.000         168.000
  15706325.728   -66182812.40649 -51022766.84648  15706325.817    15706329.956
       247.000         214.000
  16313604.395   -63756513.37549 -48111404.18747  16313604.217    16313609.015
       243.000         206.000
  15676039.002   -48618385.07149 -36785587.12747  15676038.804    15676044.131
       244.000         208.000
  19185881.402  -105859671.70149 -82463016.51745  19185881.251    19185885.952
       213.000         145.000
  16853975.676   -47492165.62449 -35067757.65547  16853974.846    16853979.741
       239.000         196.000
  19602747.489   -17856717.58349 -13485309.50145  19602747.340    19602754.196
       209.000         144.000
  17176645.365   -34754579.87449 -26485167.96346  17176644.856    17176649.565
       230.000         180.000
 98  1 25  1 54 59.9830000  0  8G 7G 4G 9G24G 2G 5G16G 8
  18006094.916   -87945155.77349 -67463372.47246  18006093.661    18006099.010
       222.000         168.000
  15691109.171   -66262775.95149 -51085076.09048  15691109.311    15691113.430
       247.000         213.000
  16297440.769   -63841454.14049 -48177591.80147  16297440.367    16297445.178
       243.000         206.000
  15644784.481   -48782628.65549 -36913569.11347  15644784.061    15644789.394
       244.000         208.000
  19181447.164  -105882973.88649 -82481174.05045  19181445.821    19181451.214
       209.000         145.000
  16818853.175   -47676735.43649 -35211578.26647  16818852.421    16818857.310
       239.000         196.000
  19582248.222   -17964442.22849 -13569250.78845  19582249.601    19582255.442
       214.000         146.000
  17144871.225   -34921553.96549 -26615277.64446  17144870.783    17144876.187
       229.000         180.000
 98  1 25  1 55 29.9830000  0  8G 7G 4G 9G24G 2G 5G16G 8
  17997863.679   -87988411.21549 -67497078.01846  17997862.619    17997868.672
       223.000         167.000
  15675995.954   -66342196.46349 -51146962.19348  15675995.994    15676000.020
       247.000         213.000
  16281382.901   -63925838.73349 -48243346.03147  16281382.583    16281387.528
       242.000         206.000
  15613621.831   -48946389.40349 -37041174.86447  15613621.685    15613626.941
       244.000         208.000
  19177059.391  -105906031.77749 -82499141.27045  19177058.748    19177064.555
       208.000         144.000
  16783761.199   -47861145.08349 -35355274.07747  16783760.334    16783765.166
       239.000         196.000
  19561847.599   -18071651.73449 -13652790.63745  19561848.934    19561852.397
       215.000         147.000
  17113198.316   -35087995.92249 -26744972.66046  17113197.710    17113202.272
       230.000         180.000
 98  1 25  1 55 59.9830000  0  8G 7G 4G 9G24G 2G 5G16G 8
  17989642.256   -88031615.13549 -67530743.42046  17989641.111    17989646.844
       222.000         167.000
  15660987.419   -66421066.80649 -51208419.59248  15660987.244    15660991.433
       247.000         213.000
  16265431.196   -64009665.80749 -48308665.83547  16265430.897    16265435.808
       242.000         205.000
  15582550.633   -49109669.64049 -37168406.19247  15582550.235    15582555.588
       244.000         208.000
  19172716.040  -105928856.12049 -82516926.52045  19172717.064    19172721.300
       216.000         145.000
  16748702.017   -48045382.49849 -35498835.67647  16748701.285    16748706.326
       240.000         197.000
  19541543.765   -18178350.97549 -13735932.87245  19541542.761    19541547.124
       214.000         146.000
  17081628.385   -35253896.97049 -26874246.20246  17081627.465    17081632.010
       231.000         180.000
 98  1 25  1 56 29.9830000  0  8G 7G 4G 9G24G 2G 5G16G 8
  17981429.741   -88074771.93349 -67564372.09346  17981428.896    17981434.420
       222.000         167.000
  15646083.218   -66499388.72849 -51269449.64848  15646083.362    15646087.464
       248.000         213.000
  16249585.324   -64092936.60249 -48373552.17047  16249584.886    16249589.469
       243.000         205.000
  15551569.698   -49272475.47749 -37295267.85547  15551569.562    15551574.814
       245.000         208.000
  19168414.695  -105951459.79349 -82534539.80345  19168414.383    19168420.799
       209.000         141.000
  16713674.246   -48229454.49549 -35642268.38347  16713673.265    16713677.947
       240.000         197.000
  19521334.801   -18284548.22549 -13818683.96045  19521333.422    19521339.994
       212.000         145.000
  17050162.899   -35419249.24249 -27003092.11646  17050162.268    17050166.452
       231.000         180.000
 98  1 25  1 56 59.9830000  0  8G 7G 4G 9G24G 2G 5G16G 8
  17973223.237   -88117897.75549 -67597976.62946  17973222.947    17973227.465
       223.000         167.000
  15631283.815   -66577160.18949 -51330050.77648  15631283.957    15631287.900
       247.000         213.000
  16233840.094   -64175678.28349 -48438026.20947  16233839.487    16233844.591
       242.000         205.000
  15520678.018   -49434812.31849 -37421764.06547  15520677.718    15520682.846
       245.000         208.000
  19164154.754  -105973846.12349 -82551983.66345  19164153.822    19164162.421
       207.000         139.000
  16678676.727   -48413367.37449 -35785577.10047  16678676.153    16678680.591
       239.000         197.000
  19501222.888   -18390236.08049 -13901038.10145  19501222.175    19501228.130
       214.000         145.000
  17018803.501   -35584043.76249 -27131503.42446  17018802.778    17018807.272
       231.000         181.000
 98  1 25  1 57 29.9820000  0  8G 7G 4G 9G24G 2G 5G16G 8
  17965018.221   -88161015.83449 -67631575.12246  17965017.627    17965022.263
       223.000         166.000
  15616589.630   -66654378.64949 -51390220.99048  15616589.780    15616593.808
       247.000         213.000
  16218191.569   -64257911.80949 -48502104.28247  16218191.220    16218195.964
       242.000         205.000
  15489877.292   -49596671.09749 -37547887.75647  15489876.951    15489882.307
       245.000         208.000
  19159932.679  -105996033.60649 -82569272.66845  19159929.507    19159936.818
       204.000         140.000
  16643711.100   -48597112.80549 -35928755.33547  16643710.339    16643715.291
       240.000         198.000
  19481206.985   -18495420.92749 -13983000.30245  19481204.972    19481211.959
       213.000         145.000
  16987551.786   -35748272.78449 -27259474.08046  16987551.093    16987556.194
       230.000         181.000
 98  1 25  1 57 59.9820000  0  8G 7G 4G 9G24G 2G 5G16G 8
  17956815.084   -88204123.53549 -67665165.52746  17956814.526    17956819.680
       222.000         166.000
  15601998.960   -66731053.14949 -51449967.34648  15601999.091    15602003.011
       247.000         213.000
  16202641.358   -64339628.83549 -48565779.88847  16202641.075    16202645.612
       242.000         205.000
  15459167.864   -49758050.18549 -37673637.66747  15459167.471    15459172.789
       245.000         209.000
  19155747.026  -106018029.15049 -82586412.03645  19155745.693    19155753.143
       210.000         141.000
  16608776.110   -48780697.40749 -36071808.25747  16608775.374    16608780.059
       240.000         198.000
  19461284.165   -18600114.85549 -14064579.97745  19461284.153    19461287.122
       214.000         145.000
  16956406.353   -35911943.45549 -27387009.66146  16956406.044    16956410.733
       230.000         181.000
 98  1 25  1 58 29.9820000  0  8G 7G 4G 9G24G 2G 5G16G 8
  17948611.690   -88247232.67449 -67698757.06346  17948610.316    17948616.333
       221.000         165.000
  15587508.159   -66807202.82249 -51509304.74748  15587508.263    15587512.090
       247.000         213.000
  16187188.483   -64420834.04849 -48629056.68547  16187187.823    16187192.614
       243.000         205.000
  15428548.688   -49918954.78849 -37799017.85547  15428548.618    15428553.747
       245.000         209.000
  19151597.869  -106039833.20749 -82603402.26245  19151597.015    19151603.854
       210.000         144.000
  16573872.537   -48964116.73449 -36214732.39047  16573871.737    16573876.411
       240.000         198.000
  19441457.438   -18704305.82549 -14145767.70045  19441456.929    19441461.395
       215.000         145.000
  16925366.706   -36075057.74649 -27514111.70246  16925366.193    16925370.386
       231.000         182.000
 98  1 25  1 58 59.9820000  0  8G 7G 4G 9G24G 2G 5G16G 8
  17940407.914   -88290343.91049 -67732350.22946  17940407.604    17940411.524
       220.000         164.000
  15573115.270   -66882837.90549 -51568241.16748  15573115.287    15573119.137
       247.000         213.000
  16171833.431   -64501525.38949 -48691933.05947  16171833.323    16171838.002
       243.000         205.000
  15398020.653   -50079380.58949 -37924024.94747  15398020.392    15398025.636
       245.000         209.000
  19147484.401  -106061449.44149 -82620246.13845  19147484.103    19147490.165
       208.000         141.000
  16539002.968   -49147357.45949 -36357517.35547  16539002.127    16539007.005
       240.000         198.000
  19421726.783   -18807992.94549 -14226562.82145  19421726.628    19421731.327
       213.000         145.000
  16894432.187   -36237620.02149 -27640783.59946  16894432.048    16894436.527
       231.000         182.000
 98  1 25  1 59 29.9820000  0  8G 7G 4G 9G24G 2G 5G16G 8
  17932206.619   -88333441.66149 -67765932.89046  17932204.623    17932210.449
       220.000         163.000
  15558819.519   -66957962.46549 -51626779.77548  15558819.473    15558823.577
       247.000         213.000
  16156577.548   -64581695.76949 -48754403.48547  16156577.154    16156581.875
       243.000         205.000
  15367586.554   -50239312.96849 -38048647.55447  15367586.211    15367591.547
       245.000         209.000
  19143406.365  -106082880.24349 -82636945.49345  19143404.077    19143409.113
       202.000         138.000
  16504170.250   -49330404.49749 -36500151.39647  16504169.331    16504174.405
       240.000         198.000
  19402091.483   -18911176.73549 -14306965.75345  19402089.233    19402095.979
       212.000         143.000
  16863602.049   -36399633.41549 -27767027.79146  16863601.632    16863606.637
       232.000         182.000
 98  1 25  1 59 59.9820000  0  8G 7G 4G 9G24G 2G 5G16G 8
  17924008.684   -88376521.89249 -67799501.90046  17924007.638    17924013.038
       221.000         163.000
  15544620.067   -67032581.06449 -51684924.12847  15544620.013    15544624.272
       247.000         212.000
  16141419.269   -64661353.33749 -48816474.32247  16141418.808    16141423.799
       243.000         205.000
  15337247.629   -50398744.74749 -38172880.08247  15337247.365    15337252.428
       245.000         209.000
  19139364.067  -106104122.67649 -82653498.04545  19139363.984    19139371.451
       207.000         138.000
  16469370.963   -49513275.89149 -36642648.56947  16469370.202    16469374.702
       241.000         199.000
  19382555.584   -19013837.13649 -14386960.83745  19382554.787    19382560.675
       213.000         142.000
  16832876.928   -36561095.00249 -27892842.00646  16832876.472    16832881.674
       232.000         182.000
 98  1 25  2  0 29.9820000  0  8G 7G 4G 9G24G 2G 5G16G 8
  17915812.008   -88419595.32649 -67833065.62746  17915811.702    17915816.644
       221.000         163.000
  15530516.757   -67106694.24649 -51742674.65447  15530516.697    15530520.729
       247.000         212.000
  16126353.839   -64740522.52949 -48878164.60847  16126353.278    16126358.090
       243.000         205.000
  15307001.989   -50557686.59149 -38296730.84747  15307001.753    15307006.922
       245.000         209.000
  19135357.796  -106125175.03749 -82669902.56245  19135358.757    19135363.864
       211.000         137.000
  16434604.362   -49695975.39749 -36785011.80147  16434603.601    16434608.223
       241.000         199.000
  19363118.873   -19115978.06449 -14466551.16645  19363118.792    19363123.974
       214.000         144.000
  16802257.473   -36722001.15749 -28018223.41546  16802256.930    16802261.757
       231.000         182.000
 98  1 25  2  0 59.9820000  0  8G 7G 4G 9G24G 2G 5G16G 8
  17907614.682   -88462673.03149 -67866632.66146  17907613.847    17907618.928
       220.000         164.000
  15516510.175   -67180299.33249 -51800029.25547  15516510.214    15516514.105
       247.000         212.000
  16111377.752   -64819222.31849 -48939489.11847  16111377.176    16111381.891
       243.000         204.000
  15276850.350   -50716134.29749 -38420196.56347  15276849.827    15276855.190
       244.000         209.000
  19131387.000  -106146042.46749 -82686162.87845  19131385.787    19131393.335
       209.000         138.000
  16399869.402   -49878508.98349 -36927245.74447  16399868.987    16399873.300
       241.000         200.000
  19343777.820   -19217615.78648 -14545749.30445  19343770.816    19343788.717
       189.000         143.000
  16771742.162   -36882360.01849 -28143178.36046  16771741.655    16771746.017
       231.000         183.000
 98  1 25  2  1 29.9820000  0  8G 7G 4G 9G24G 2G 5G16G 8
  17899415.251   -88505761.11949 -67900207.79646  17899414.403    17899419.569
       222.000         164.000
  15502600.856   -67253393.23149 -51856985.53247  15502601.013    15502604.897
       247.000         212.000
  16096490.153   -64897457.38349 -49000451.51347  16096489.782    16096494.395
       243.000         204.000
  15246793.021   -50874086.30349 -38543276.02647  15246792.905    15246797.990
       245.000         209.000
  19127452.557  -106166718.46049 -82702274.00645  19127452.270    19127456.767
       215.000         137.000
  16365164.202   -50060886.09049 -37069357.75947  16365163.483    16365168.142
       241.000         200.000
  19324530.505   -19318757.73049 -14624561.29645  19324537.691    19324530.241
       219.000         142.000
  16741331.371   -37042169.57049 -28267705.27246  16741330.468    16741335.338
       231.000         183.000
 98  1 25  2  1 59.9820000  0  8G 7G 4G 9G24G 2G 5G16G 8
  17891212.738   -88548866.06049 -67933796.05746  17891211.692    17891217.262
       221.000         164.000
  15488786.951   -67325985.83949 -51913551.18747  15488787.026    15488790.968
       247.000         212.000
  16081692.708   -64975218.41249 -49061044.52547  16081692.116    16081697.122
       243.000         204.000
  15216828.106   -51031553.07149 -38665977.37547  15216827.869    15216832.874
       245.000         209.000
  19123554.445  -106187203.09249 -82718236.09345  19123554.489    19123558.619
       213.000         139.000
  16330488.477   -50243107.92449 -37211348.77747  16330487.629    16330492.236
       241.000         200.000
  19305374.452   -19419428.45749 -14703005.94245  19305371.809    19305378.036
       205.000         138.000
  16711025.903   -37201425.47949 -28391800.77046  16711025.318    16711030.493
       231.000         183.000
 98  1 25  2  2 29.9820000  0  7G 7G 4G 9G24G 5G16G 8
  17883007.969   -88591982.49849 -67967393.28546  17883007.152    17883012.498
       222.000         164.000
  15475068.575   -67398076.15449 -51969725.45147  15475068.823    15475072.748
       247.000         212.000
  16066988.583   -65052489.02149 -49121255.39347  16066988.166    16066993.129
       243.000         204.000
  15186955.706   -51188533.38549 -38788299.67247  15186955.559    15186960.860
       246.000         209.000
  16295848.057   -50425144.48349 -37353195.43047  16295847.030    16295851.943
       242.000         200.000
  19286302.726   -19519651.38449 -14781101.69945  19286299.343    19286302.335
       207.000         139.000
  16680825.765   -37360128.32349 -28515465.31446  16680825.215    16680829.931
       231.000         183.000
 98  1 25  2  2 59.9820000  0  7G 7G 4G 9G24G 5G16G 8
  17874802.112   -88635104.31149 -68000994.70046  17874799.734    17874807.123
       220.000         163.000
  15461444.046   -67469673.63849 -52025515.68647  15461444.095    15461448.015
       247.000         212.000
  16052379.278   -65129261.62849 -49181078.21147  16052378.919    16052383.751
       243.000         204.000
  15157177.604   -51345018.22849 -38910235.88747  15157177.295    15157182.592
       245.000         209.000
  16261241.990   -50607000.45949 -37494901.37047  16261240.967    16261245.838
       241.000         201.000
  19267316.422   -19619424.29849 -14858846.88445  19267320.472    19267321.986
       218.000         138.000
  16650729.112   -37518286.95149 -28638705.78946  16650729.110    16650733.123
       232.000         183.000
 98  1 25  2  3 29.9820000  0  7G 7G 4G 9G24G 5G16G 8
  17866597.519   -88678219.66849 -68034591.08445  17866597.382    17866601.774
       221.000         162.000
  15447909.304   -67540799.25449 -52080938.23347  15447909.395    15447913.363
       247.000         212.000
  16037866.449   -65205527.14449 -49240505.89347  16037866.086    16037871.014
       243.000         204.000
  15127490.606   -51501024.32649 -39031799.05647  15127490.406    15127495.639
       245.000         210.000
  16226672.444   -50788664.61249 -37636457.83147  16226671.479    16226676.526
       241.000         201.000
  19248415.542   -19718752.07349 -14936245.15745  19248412.621    19248413.900
       210.000         138.000
  16620736.298   -37675900.29749 -28761521.36946  16620735.804    16620740.667
       232.000         183.000
 98  1 25  2  3 59.9820000  0  7G 7G 4G 9G24G 5G16G 8
  17858397.447   -88721311.60049 -68068169.19645  17858395.810    17858401.177
       220.000         162.000
  15434463.487   -67611457.42249 -52135996.53047  15434463.433    15434467.585
       246.000         211.000
  16023451.867   -65281276.34449 -49299531.24447  16023451.465    16023456.518
       243.000         204.000
  15097894.256   -51656554.20649 -39152991.14447  15097894.235    15097899.373
       245.000         210.000
  16192144.157   -50970111.88049 -37777845.29347  16192143.422    16192148.056
       242.000         201.000
  19229603.490   -19817612.24849 -15013278.94845  19229597.167    19229612.102
       201.000         140.000
  16590846.774   -37832970.87149 -28883914.00946  16590846.046    16590851.133
       231.000         183.000
 98  1 25  2  4 29.9810000  0  7G 7G 4G 9G24G 5G16G 8
  17850202.243   -88764377.42849 -68101726.97645  17850201.373    17850206.645
       222.000         161.000
  15421106.333   -67681649.57749 -52190691.71047  15421106.300    15421110.284
       246.000         211.000
  16009132.078   -65356527.34149 -49358168.39647  16009131.579    16009136.525
       243.000         204.000
  15068387.796   -51811611.72549 -39273815.16847  15068387.462    15068392.717
       245.000         210.000
  16157656.906   -51151343.58849 -37919064.79647  16157656.257    16157660.660
       243.000         201.000
  19210884.158   -19915977.93249 -15089927.54945  19210882.623    19210885.597
       209.000         139.000
  16561058.469   -37989509.21149 -29005891.93046  16561057.558    16561063.174
       231.000         183.000
 98  1 25  2  4 59.9810000  0  7G 7G 4G 9G24G 5G16G 8
  17842014.623   -88807403.98549 -68135254.15745  17842013.741    17842018.764
       221.000         161.000
  15407838.062   -67751374.79149 -52245023.03547  15407838.056    15407842.195
       246.000         211.000
  15994907.425   -65431278.35249 -49416415.94547  15994906.906    15994911.712
       242.000         204.000
  15038970.596   -51966199.93349 -39394273.48747  15038970.507    15038975.610
       244.000         210.000
  16123208.665   -51332370.23949 -38060124.50547  16123208.005    16123212.490
       243.000         202.000
  19192264.936   -20013821.44449 -15166169.29545  19192264.252    19192268.262
       208.000         141.000
  16531370.270   -38145521.55549 -29127459.97346  16531369.861    16531374.708
       231.000         184.000
 98  1 25  2  5 29.9810000  0  7G 7G 4G 9G24G 5G16G 8
  17833833.439   -88850396.30549 -68168754.65245  17833832.405    17833837.310
       219.000         160.000
  15394660.690   -67820622.32349 -52298982.13747  15394660.678    15394664.437
       246.000         211.000
  15980776.760   -65505535.50449 -49474278.66647  15980776.249    15980781.206
       242.000         203.000
  15009642.768   -52120318.84849 -39514366.12647  15009642.591    15009647.589
       245.000         210.000
  16088799.734   -51513190.50349 -38201023.39347  16088798.966    16088803.697
       243.000         202.000
  19173746.131   -20111137.20149 -15241999.70345  19173745.352    19173753.179
       214.000         143.000
  16501783.277   -38301002.23849 -29248613.74746  16501782.893    16501786.972
       232.000         184.000
 98  1 25  2  5 59.9810000  0  7G 7G 4G 9G24G 5G16G 8
  17825655.748   -88893370.18749 -68202240.80545  17825654.576    17825659.964
       217.000         159.000
  15381577.021   -67889377.34349 -52352557.47147  15381576.836    15381581.024
       246.000         211.000
  15966736.836   -65579315.64149 -49531769.69647  15966736.368    15966741.174
       242.000         203.000
  14980406.255   -52273957.50149 -39634084.53847  14980405.901    14980411.164
       245.000         210.000
  16054423.975   -51693836.45449 -38341786.46047  16054423.084    16054427.894
       243.000         202.000
  19155329.978   -20207916.14549 -15317411.83245  19155326.793    19155333.462
       208.000         144.000
  16472298.569   -38455945.25049 -29369348.54446  16472297.766    16472302.934
       232.000         184.000
 98  1 25  2  6 29.9810000  0  7G 7G 4G 9G24G 5G16G 8
  17817480.335   -88936332.07849 -68235717.58845  17817478.846    17817484.512
       217.000         158.000
  15368589.531   -67957626.82849 -52405738.87947  15368589.617    15368593.531
       246.000         210.000
  15952786.374   -65652625.67349 -49588894.40247  15952786.126    15952790.982
       242.000         203.000
  14951266.571   -52427087.46149 -39753406.56447  14951266.224    14951271.402
       245.000         210.000
  16020079.862   -51874315.95749 -38482419.82147  16020079.310    16020083.694
       244.000         203.000
  19137014.904   -20304161.13249 -15392407.92145  19137017.089    19137017.297
       209.000         143.000
  16442919.985   -38610330.64849 -29489648.84846  16442919.574    16442924.476
       231.000         184.000
 98  1 25  2  6 59.9810000  0  7G 7G 4G 9G24G 5G16G 8
  17809305.808   -88979288.67749 -68269190.26545  17809304.495    17809310.513
       216.000         158.000
  15355699.515   -68025364.07749 -52458521.14347  15355699.440    15355703.528
       246.000         210.000
  15938928.197   -65725450.96049 -49645641.38847  15938927.350    15938932.348
       242.000         203.000
  14922227.851   -52579686.96849 -39872315.24747  14922227.757    14922233.004
       245.000         210.000
  15985769.464   -52054618.13749 -38622915.01247  15985768.902    15985773.368
       243.000         203.000
  19118799.289   -20399883.52449 -15466996.81845  19118798.581    19118801.895
       208.000         142.000
  16413650.646   -38764142.08549 -29609501.90646  16413650.416    16413654.361
       231.000         185.000
 98  1 25  2  7 29.9810000  0  7G 7G 4G 9G24G 5G16G 8
  17801129.765   -89022253.69849 -68302669.51345  17801128.945    17801134.408
       218.000         158.000
  15342904.615   -68092601.54349 -52510913.96847  15342904.748    15342908.489
       246.000         210.000
  15925159.740   -65797804.53249 -49702020.80847  15925159.531    15925164.261
       242.000         203.000
  14893289.898   -52731757.05749 -39990811.39947  14893289.510    14893294.513
       245.000         210.000
  15951493.118   -52234741.49549 -38763270.86247  15951492.551    15951497.117
       244.000         203.000
  19100678.547   -20495107.67349 -15541197.45545  19100682.992    19100686.012
       213.000         143.000
  16384493.574   -38917363.59049 -29728895.28246  16384493.141    16384497.826
       232.000         185.000
 98  1 25  2  7 59.9810000  0  6G 7G 4G 9G24G 5G 8
  17792952.884   -89065224.07249 -68336152.91145  17792952.076    17792958.795
       218.000         159.000
  15330201.472   -68159357.09249 -52562931.27047  15330201.492    15330205.552
       246.000         210.000
  15911483.225   -65869675.33749 -49758024.04047  15911482.820    15911487.434
       242.000         203.000
  14864454.390   -52883288.51049 -40108887.83447  14864454.182    14864459.451
       245.000         210.000
  15917256.280   -52414657.23549 -38903464.93047  15917255.533    15917260.416
       244.000         203.000
  16355450.992   -39069983.16649 -29847819.61546  16355450.777    16355455.543
       233.000         185.000
 98  1 25  2  8 29.9810000  0  6G 7G 4G 9G24G 5G 8
  17784776.873   -89108189.22249 -68369632.25045  17784777.425    17784780.833
       219.000         159.000
  15317589.144   -68225635.35249 -52614576.65947  15317589.194    15317593.193
       246.000         210.000
  15897901.891   -65941045.62649 -49813637.25847  15897901.562    15897906.398
       242.000         203.000
  14835719.550   -53034290.83349 -40226551.95647  14835719.165    14835724.697
       245.000         210.000
  15883063.083   -52594343.69949 -39043480.34047  15883062.555    15883066.875
       243.000         203.000
  16326521.939   -39222006.81649 -29966279.59646  16326521.494    16326526.418
       233.000         185.000
 98  1 25  2  8 59.9810000  0  6G 7G 4G 9G24G 5G 8
  17776602.980   -89151144.03249 -68403103.54045  17776602.204    17776607.462
       219.000         159.000
  15305065.350   -68291448.50049 -52665859.63047  15305065.454    15305069.507
       246.000         210.000
  15884418.191   -66011903.10149 -49868850.89447  15884417.796    15884422.552
       241.000         203.000
  14807079.431   -53184795.63249 -40343828.40847  14807079.032    14807084.198
       245.000         210.000
  15848912.405   -52773806.78749 -39183321.70247  15848911.547    15848916.234
       243.000         204.000
  16297706.989   -39373430.74649 -30084272.26946  16297706.553    16297711.015
       232.000         185.000
 98  1 25  2  9 29.9810000  0  6G 7G 4G 9G24G 5G 8
  17768433.649   -89194074.43649 -68436555.78145  17768431.751    17768437.497
       217.000         159.000
  15292629.102   -68356801.45149 -52716783.99747  15292629.223    15292632.913
       247.000         210.000
  15871031.419   -66082251.27149 -49923667.66047  15871031.014    15871035.961
       241.000         203.000
  14778531.145   -53334817.70249 -40460728.69747  14778530.846    14778536.011
       245.000         211.000
  15814803.540   -52953050.13649 -39322991.82747  15814802.750    15814807.310
       244.000         204.000
  16269006.813   -39524251.25649 -30201794.73846  16269005.622    16269010.805
       233.000         186.000
 98  1 25  2  9 59.9810000  0  6G 7G 4G 9G24G 5G 8
  17760268.741   -89236980.77749 -68469989.31045  17760267.623    17760273.202
       218.000         159.000
  15280282.319   -68421684.25849 -52767342.02347  15280282.331    15280286.485
       246.000         210.000
  15857743.269   -66152080.86549 -49978080.34247  15857743.133    15857747.760
       241.000         202.000
  14750074.484   -53484358.24049 -40577253.77347  14750074.156    14750079.429
       245.000         211.000
  15780734.380   -53132084.77549 -39462499.33047  15780733.555    15780738.158
       244.000         204.000
  16240419.295   -39674479.50749 -30318855.71146  16240418.762    16240423.144
       233.000         186.000
 98  1 25  2 10 29.9810000  0  6G 7G 4G 9G24G 5G 8
  17752106.821   -89279872.03849 -68503411.08445  17752105.413    17752111.498
       219.000         158.000
  15268026.692   -68486087.84249 -52817526.63147  15268026.605    15268030.835
       246.000         210.000
  15844549.908   -66221412.45849 -50032104.97447  15844549.627    15844554.547
       241.000         202.000
  14721707.426   -53633428.14349 -40693412.12147  14721707.314    14721712.459
       245.000         211.000
  15746700.182   -53310935.46549 -39601863.49247  15746699.527    15746704.019
       244.000         204.000
  16211941.792   -39824129.32249 -30435465.95746  16211941.207    16211946.278
       232.000         186.000
 98  1 25  2 10 59.9810000  0  7G 7G 4G 9G24G30G 5G 8
  17743949.037   -89322741.02449 -68536815.48045  17743948.030    17743953.660
       217.000         157.000
  15255862.763   -68550009.66049 -52867335.83247  15255862.886    15255866.919
       247.000         210.000
  15831450.124   -66290252.45849 -50085746.54847  15831449.566    15831454.365
       241.000         202.000
  14693436.037   -53781995.37949 -40809178.77947  14693435.596    14693440.899
       245.000         211.000
  18883617.524    -9992206.90249  -6427690.62045  18883617.244    18883619.961
       211.000         143.000
  15712706.891   -53489571.40949 -39741060.32147  15712706.000    15712710.554
       244.000         205.000
  16183577.872   -39973182.60649 -30551611.37646  16183577.123    16183581.907
       234.000         186.000
 98  1 25  2 11 29.9800000  0  7G 7G 4G 9G24G30G 5G 8
  17735794.409   -89365593.33049 -68570206.89245  17735792.027    17735800.008
       216.000         157.000
  15243792.916   -68613437.44149 -52916760.06947  15243792.942    15243797.013
       246.000         210.000
  15818442.644   -66358606.99149 -50139009.83147  15818442.140    15818447.205
       240.000         202.000
  14665266.786   -53930025.65549 -40924527.02447  14665266.527    14665271.533
       247.000         211.000
  18843355.903   -10203783.02349  -6592555.06745  18843356.256    18843361.109
       217.000         146.000
  15678760.923   -53667958.38149 -39880063.14547  15678760.140    15678764.884
       243.000         205.000
  16155326.600   -40121644.21849 -30667295.74346  16155326.390    16155330.477
       234.000         187.000
 98  1 25  2 11 59.9800000  0  7G 7G 4G 9G24G30G 5G 8
  17727642.635   -89408431.16649 -68603587.02245  17727641.029    17727647.295
       217.000         156.000
  15231819.258   -68676359.43149 -52965790.17847  15231819.351    15231823.400
       246.000         210.000
  15805529.705   -66426465.10149 -50191886.28747  15805529.450    15805534.341
       240.000         202.000
  14637202.175   -54077506.14349 -41039446.86247  14637201.846    14637207.090
       247.000         211.000
  18803089.002   -10415386.88549  -6757441.12445  18803087.563    18803092.276
       215.000         146.000
  15644864.358   -53846086.02649 -40018863.89347  15644863.686    15644868.264
       244.000         205.000
  16127187.156   -40269518.04149 -30782522.10146  16127186.611    16127191.219
       236.000         187.000
 98  1 25  2 12 29.9800000  0  7G 7G 4G 9G24G30G 5G 8
  17719494.326   -89451251.18949 -68636953.27345  17719493.780    17719498.094
       215.000         154.000
  15219940.657   -68738781.92549 -53014431.08047  15219940.794    15219944.828
       246.000         210.000
  15792709.428   -66493836.08549 -50244383.17047  15792708.915    15792713.858
       240.000         201.000
  14609241.991   -54224437.86649 -41153939.09547  14609241.732    14609246.888
       247.000         212.000
  18762817.313   -10627016.06249  -6922346.92845  18762816.682    18762820.708
       214.000         145.000
  15611022.539   -54023925.93049 -40157440.43447  15611022.034    15611026.194
       244.000         205.000
  16099161.591   -40416793.46149 -30897282.17346  16099161.113    16099165.728
       235.000         187.000
 98  1 25  2 12 59.9800000  0  7G 7G 4G 9G24G30G 5G 8
  17711347.567   -89494062.67649 -68670312.87245  17711346.740    17711351.698
       215.000         155.000
  15208152.732   -68800727.85749 -53062700.62747  15208152.895    15208156.659
       246.000         210.000
  15779980.375   -66560727.48149 -50296506.34547  15779980.087    15779984.893
       240.000         201.000
  14581383.217   -54370836.68649 -41268016.07547  14581382.919    14581388.207
       247.000         212.000
  18722541.478   -10838666.29849  -7087269.14045  18722542.024    18722546.318
       213.000         144.000
  15577234.270   -54201484.30549 -40295797.59947  15577233.506    15577238.057
       243.000         205.000
  16071247.742   -40563481.88549 -31011584.83246  16071247.317    16071252.291
       234.000         187.000
 98  1 25  2 13 29.9800000  0  8G 7G 4G 9G24G30G 5G 8G10
  17703201.940   -89536868.46249 -68703668.05345  17703201.019    17703204.478
       217.000         154.000
  15196456.658   -68862191.27549 -53110594.19547  15196456.732    15196460.431
       246.000         209.000
  15767343.674   -66627133.96149 -50348251.66747  15767343.205    15767348.184
       241.000         201.000
  14553621.372   -54516725.93749 -41381695.99247  14553620.998    14553626.435
       247.000         212.000
  18682264.371   -11050323.37649  -7252196.66045  18682264.248    18682267.883
       212.000         141.000
  15543493.059   -54378795.53249 -40433962.18247  15543492.194    15543497.036
       244.000         206.000
  16043444.296   -40709589.90249 -31125435.24646  16043444.085    16043448.603
       233.000         187.000
  18825004.050   -10674417.17059  -8289979.08945  18825004.131    18825010.528
       216.000         154.000
 98  1 25  2 13 59.9800000  0  8G 7G 4G 9G24G30G 5G 8G10
  17695059.342   -89579657.89449 -68737010.45545  17695058.656    17695064.949
       216.000         154.000
  15184850.563   -68923181.53849 -53158119.06447  15184850.717    15184854.454
       246.000         209.000
  15754795.884   -66693073.28649 -50399632.96647  15754795.752    15754800.213
       241.000         201.000
  14525954.542   -54662115.96449 -41494986.90147  14525954.231    14525959.361
       247.000         212.000
  18641986.665   -11261983.96349  -7417126.95445  18641985.962    18641989.445
       204.000         138.000
  15509795.268   -54555878.59849 -40571948.97647  15509794.593    15509799.253
       244.000         206.000
  16015753.754   -40855104.27349 -31238823.06246  16015753.065    16015757.907
       234.000         187.000
  18785697.925   -10880972.13549  -8450930.89145  18785696.723    18785702.807
       220.000         152.000
 98  1 25  2 14 29.9800000  0  8G 7G 4G 9G24G30G 5G 8G10
  17686921.033   -89622425.35149 -68770335.73745  17686921.089    17686925.068
       218.000         155.000
  15173333.523   -68983704.16049 -53205279.53647  15173333.410    15173337.646
       246.000         209.000
  15742333.797   -66758562.08849 -50450663.20647  15742333.259    15742338.413
       241.000         201.000
  14498381.223   -54807014.53849 -41607894.86047  14498381.000    14498386.209
       248.000         212.000
  18601709.509   -11473641.24449  -7582054.63845  18601710.674    18601711.801
       207.000         138.000
  15476140.295   -54732736.51549 -40709760.32547  15476139.562    15476144.155
       244.000         206.000
  15988177.797   -41000016.83149 -31351741.93746  15988177.855    15988181.987
       235.000         187.000
  18746368.323   -11087651.15749  -8611979.40145  18746366.411    18746372.896
       216.000         152.000
 98  1 25  2 14 59.9800000  0  8G 7G 4G 9G24G30G 5G 8G10
  17678787.899   -89665165.18149 -68803639.51245  17678787.720    17678792.551
       220.000         155.000
  15161904.913   -69043761.77849 -53252077.67547  15161904.962    15161908.968
       246.000         209.000
  15729957.913   -66823597.88249 -50501340.46447  15729957.557    15729962.618
       240.000         201.000
  14470904.655   -54951404.98949 -41720406.88547  14470904.481    14470909.350
       247.000         212.000
  18561435.564   -11685281.30049  -7746968.93845  18561435.596    18561440.482
       208.000         137.000
  15442526.764   -54909376.90649 -40847402.17947  15442525.812    15442530.381
       244.000         206.000
  15960717.126   -41144323.93649 -31464189.04246  15960716.716    15960721.288
       233.000         187.000
  18707018.564   -11294435.63149  -8773110.12245  18707017.421    18707024.281
       212.000         153.000
 98  1 25  2 15 29.9800000  0  8G 7G 4G 9G24G30G 5G 8G10
  17670660.150   -89707877.86549 -68836922.11445  17670658.937    17670663.210
       219.000         158.000
  15150563.791   -69103359.71949 -53298517.62147  15150563.663    15150567.852
       246.000         209.000
  15717668.037   -66888181.40049 -50551665.29747  15717667.565    15717672.524
       240.000         201.000
  14443525.957   -55095281.06349 -41832518.09547  14443525.755    14443530.732
       247.000         212.000
  18521162.703   -11896916.50149  -7911879.39845  18521163.605    18521166.314
       213.000         137.000
  15408956.108   -55085791.53949 -40984868.11847  15408955.412    15408960.062
       244.000         206.000
  15933374.619   -41288010.05549 -31576152.25146  15933374.025    15933378.463
       235.000         187.000
  18667652.783   -11501303.85049  -8934305.99445  18667651.254    18667656.435
       213.000         146.000
 98  1 25  2 15 59.9800000  0  8G 7G 4G 9G24G30G 5G 8G10
  17662537.866   -89750560.67749 -68870181.45245  17662536.570    17662542.144
       219.000         157.000
  15139308.926   -69162504.29249 -53344604.29547  15139309.184    15139313.163
       246.000         209.000
  15705463.504   -66952316.78549 -50601640.93247  15705463.104    15705468.149
       240.000         200.000
  14416247.309   -55238631.21649 -41944219.49647  14416247.100    14416252.170
       247.000         212.000
  18480889.421   -12108554.20549  -8076791.87645  18480891.855    18480892.147
       213.000         139.000
  15375434.372   -55261949.50749 -41122134.05847  15375433.579    15375438.295
       244.000         206.000
  15906151.292   -41431069.82749 -31687627.39646  15906150.351    15906155.139
       235.000         187.000
  18628275.228   -11708234.01149  -9095550.16545  18628274.354    18628280.558
       211.000         142.000
 98  1 25  2 16 29.9800000  0  8G 7G 4G 9G24G30G 5G 8G10
  17654416.506   -89793238.77949 -68903437.10545  17654415.612    17654421.708
       220.000         158.000
  15128135.225   -69221222.52749 -53390358.75747  15128135.170    15128139.185
       246.000         209.000
  15693345.307   -67015998.59449 -50651263.13447  15693344.923    15693349.833
       240.000         201.000
  14389064.453   -55381477.94749 -42055528.62247  14389064.138    14389069.452
       245.000         212.000
  18440611.329   -12320216.47449  -8241723.44745  18440611.680    18440616.235
       213.000         141.000
  15341960.061   -55437858.06849 -41259205.65447  15341959.413    15341964.156
       244.000         206.000
  15879040.180   -41573539.76349 -31798642.92647  15879039.250    15879044.113
       234.000         188.000
  18588885.633   -11915226.58149  -9256843.13645  18588884.593    18588893.961
       207.000         132.000
 98  1 25  2 16 59.9800000  0  8G 7G 4G 9G24G30G 5G 8G10
  17646296.441   -89835910.10049 -68936687.50345  17646295.134    17646300.679
       218.000         157.000
  15117040.411   -69279526.10249 -53435790.10847  15117040.241    15117044.560
       245.000         209.000
  15681315.848   -67079213.98949 -50700521.89947  15681315.721    15681320.362
       240.000         201.000
  14361978.210   -55523816.99949 -42166442.15347  14361977.830    14361983.140
       245.000         212.000
  18400326.805   -12531912.89249  -8406681.68145  18400326.589    18400331.015
       213.000         144.000
  15308534.087   -55613512.80949 -41396079.46647  15308533.393    15308537.842
       244.000         207.000
  15852039.411   -41715429.66349 -31909206.48647  15852038.652    15852044.012
       234.000         188.000
  18549485.543   -12122274.10149  -9418178.71944  18549484.759    18549486.043
       206.000         127.000
 98  1 25  2 17 29.9800000  0  8G 7G 4G 9G24G30G 5G 8G10
  17638177.030   -89878577.91349 -68969935.13845  17638175.735    17638182.175
       216.000         157.000
  15106026.394   -69337405.16149 -53480890.66047  15106026.465    15106030.614
       246.000         209.000
  15669374.643   -67141965.62849 -50749419.28347  15669374.178    15669379.010
       241.000         201.000
  14334986.824   -55665657.57649 -42276967.25448  14334986.525    14334991.908
       246.000         213.000
  18360035.053   -12743647.19549  -8571669.37745  18360035.802    18360039.447
       212.000         146.000
  15275156.380   -55788913.81049 -41532755.55547  15275155.670    15275160.367
       244.000         207.000
  15825148.287   -41856743.51049 -32019321.17447  15825147.808    15825152.235
       233.000         188.000
  18510073.765   -12329383.66649  -9579562.74344  18510071.494    18510077.087
       202.000         125.000
 98  1 25  2 17 59.9800000  0  8G 7G 4G 9G24G30G 5G 8G10
  17630056.755   -89921249.67249 -69003185.88645  17630055.736    17630061.571
       214.000         156.000
  15095091.215   -69394869.96349 -53525668.42247  15095091.266    15095095.315
       246.000         208.000
  15657518.941   -67204267.91849 -50797966.53647  15657518.436    15657523.295
       240.000         201.000
  14308089.677   -55807003.04749 -42387106.56548  14308089.566    14308094.419
       246.000         213.000
  18319738.656   -12955405.85149  -8736676.09845  18319738.869    18319743.345
       215.000         146.000
  15241825.214   -55964070.27349 -41669241.10447  15241824.445    15241829.155
       244.000         207.000
  15798362.979   -41997501.10949 -32129002.41947  15798362.131    15798367.252
       234.000         188.000
  18470648.610   -12536563.94549  -9741001.89344  18470646.777    18470651.935
       205.000         130.000
 98  1 25  2 18 29.9800000  0  8G 7G 4G 9G24G30G 5G 8G10
  17621934.894   -89963929.85849 -69036443.17145  17621934.299    17621938.722
       214.000         154.000
  15084234.098   -69451924.46149 -53570126.46447  15084234.222    15084238.190
       245.000         208.000
  15645748.460   -67266122.09949 -50846164.61047  15645748.074    15645752.662
       240.000         200.000
  14281286.780   -55947853.13049 -42496859.85648  14281286.621    14281291.749
       246.000         213.000
  18279439.539   -13167179.03649  -8901694.10445  18279439.777    18279443.261
       210.000         146.000
  15208538.087   -56138995.25849 -41805546.27547  15208537.379    15208541.933
       245.000         207.000
  15771683.846   -42137700.78449 -32238248.91447  15771683.061    15771688.388
       234.000         188.000
  18431206.266   -12743834.94349  -9902511.68645  18431205.422    18431213.032
       210.000         140.000
 98  1 25  2 18 59.9790000  0  8G 7G 4G 9G24G30G 5G 8G10
  17613813.534   -90006607.18449 -69069698.23445  17613811.962    17613817.357
       215.000         155.000
  15073458.954   -69508548.17949 -53614248.83647  15073459.081    15073462.998
       246.000         208.000
  15634061.918   -67327535.34249 -50894019.09847  15634061.355    15634066.235
       240.000         200.000
  14254581.636   -56088189.70449 -42606213.01048  14254581.409    14254586.353
       246.000         213.000
  18239140.975   -13378948.91249  -9066709.54845  18239140.026    18239145.638
       211.000         145.000
  15175298.289   -56313671.43149 -41941657.56747  15175297.560    15175302.150
       245.000         207.000
  15745117.945   -42277305.71649 -32347031.97647  15745117.312    15745121.933
       234.000         188.000
  18391747.796   -12951190.50949 -10064087.35145  18391747.788    18391751.658
       216.000         144.000
 98  1 25  2 19 29.9790000  0  8G 7G 4G 9G24G30G 5G 8G10
  17605688.686   -90049303.74749 -69102968.29745  17605688.665    17605692.320
       218.000         156.000
  15062764.133   -69564749.96249 -53658042.43147  15062764.135    15062767.898
       245.000         208.000
  15622454.027   -67388535.18049 -50941551.45247  15622453.391    15622458.200
       240.000         200.000
  14227969.352   -56228037.95249 -42715185.65848  14227969.012    14227974.092
       246.000         213.000
  18198840.161   -13590730.76249  -9231734.35045  18198840.605    18198845.568
       211.000         144.000
  15142103.569   -56488110.91549 -42077584.42847  15142103.040    15142107.454
       245.000         207.000
  15718663.555   -42416324.42449 -32455358.24447  15718663.386    15718668.035
       235.000         188.000
  18352268.936   -13158654.06749 -10225747.20545  18352267.909    18352274.519
       218.000         150.000
 98  1 25  2 19 59.9790000  0  8G 7G 4G 9G24G30G 5G 8G10
  17597558.961   -90092026.11549 -69136258.44145  17597557.604    17597562.951
       218.000         155.000
  15052146.217   -69620547.29249 -53701520.86347  15052146.356    15052150.265
       246.000         208.000
  15610925.587   -67449117.47249 -50988758.44947  15610925.381    15610930.296
       240.000         200.000
  14201449.581   -56367400.32249 -42823779.69348  14201449.341    14201454.261
       246.000         213.000
  18158536.924   -13802525.54249  -9396769.19745  18158538.216    18158540.728
       212.000         145.000
  15108955.875   -56662303.13449 -42213318.61647  15108955.108    15108959.744
       245.000         207.000
  15692322.591   -42554747.41149 -32563220.30547  15692321.732    15692326.667
       234.000         188.000
  18312770.831   -13366217.80549 -10387485.11545  18312769.773    18312775.731
       216.000         152.000
 98  1 25  2 20 29.9790000  0  8G 7G 4G 9G24G30G 5G 8G10
  17589427.541   -90134757.58449 -69169555.68345  17589426.513    17589430.961
       220.000         156.000
  15041610.153   -69675914.62249 -53744664.23347  15041610.150    15041614.002
       245.000         207.000
  15599479.347   -67509268.03049 -51035629.02647  15599479.065    15599483.994
       239.000         199.000
  14175023.046   -56506272.73649 -42931991.94548  14175022.906    14175027.758
       246.000         213.000
  18118229.541   -14014342.08249  -9561821.02245  18118230.730    18118233.684
       210.000         145.000
  15075857.936   -56836233.82849 -42348849.01547  15075857.271    15075862.086
       245.000         207.000
  15666097.444   -42692561.46249 -32670607.87847  15666096.727    15666101.034
       235.000         188.000
  18273254.676   -13573875.90049 -10549296.52745  18273254.369    18273259.327
       214.000         151.000
 98  1 25  2 20 59.9790000  0  8G 7G 4G 9G24G30G 5G 8G10
  17581294.138   -90177499.63749 -69202861.16045  17581293.384    17581297.605
       220.000         155.000
  15031154.213   -69730860.92749 -53787479.52647  15031154.378    15031158.456
       245.000         207.000
  15588113.063   -67568998.44349 -51082172.22047  15588112.884    15588117.662
       240.000         199.000
  14148689.203   -56644657.74849 -43039824.40048  14148688.777    14148694.023
       246.000         213.000
  18077916.348   -14226189.38549  -9726896.82745  18077915.899    18077921.113
       207.000         146.000
  15042810.457   -57009899.62049 -42484172.99347  15042809.799    15042814.400
       245.000         208.000
  15639985.089   -42829782.70349 -32777533.50947  15639984.744    15639989.383
       235.000         188.000
  18233722.154   -13781620.17349 -10711175.11445  18233721.427    18233727.444
       208.000         146.000
 98  1 25  2 21 29.9790000  0  8G 7G 4G 9G24G30G 5G 8G10
  17573157.632   -90220257.86949 -69236179.24445  17573157.526    17573162.433
       218.000         155.000
  15020776.507   -69785396.00149 -53829974.38247  15020776.553    15020780.506
       245.000         207.000
  15576827.070   -67628306.75749 -51128386.50447  15576826.747    15576831.636
       239.000         199.000
  14122449.014   -56782551.00849 -43147273.67648  14122448.692    14122453.644
       246.000         213.000
  18037600.076   -14438052.26849  -9891984.76945  18037599.450    18037603.872
       211.000         146.000
  15009812.976   -57183302.40549 -42619292.03747  15009812.153    15009816.761
       245.000         208.000
  15613984.099   -42966418.85949 -32884003.24447  15613983.774    15613988.297
       234.000         189.000
  18194174.581   -13989443.29049 -10873115.12845  18194173.676    18194180.377
       208.000         143.000
 98  1 25  2 21 59.9790000  0  8G 7G 4G 9G24G30G 5G 8G10
  17565019.666   -90263022.82949 -69269502.59745  17565018.071    17565023.764
       216.000         153.000
  15010477.259   -69839518.96349 -53872148.11047  15010477.243    15010481.449
       245.000         207.000
  15565622.355   -67687187.91349 -51174267.94047  15565622.034    15565626.842
       240.000         199.000
  14096305.667   -56919935.25549 -43254326.31748  14096305.321    14096310.533
       247.000         213.000
  17997282.362   -14649923.07949 -10057078.88445  17997281.022    17997285.864
       214.000         147.000
  14976862.056   -57356460.53249 -42754220.43647  14976861.335    14976865.984
       245.000         208.000
  15588094.886   -43102467.52049 -32990015.18047  15588093.847    15588099.004
       235.000         189.000
  18154613.223   -14197339.43349 -11035112.03345  18154611.924    18154618.319
       203.000         137.000
 98  1 25  2 22 29.9790000  0  8G 7G 4G 9G24G30G 5G 8G10
  17556881.661   -90305787.68949 -69302825.85145  17556881.284    17556886.150
       217.000         153.000
  15000256.521   -69893229.21349 -53914000.24547  15000256.538    15000260.694
       245.000         207.000
  15554494.672   -67745664.26749 -51219833.94047  15554494.398    15554499.312
       240.000         199.000
  14070261.002   -57056800.89549 -43360974.84548  14070260.701    14070265.820
       246.000         213.000
  17956965.147   -14861791.11249 -10222170.84745  17956965.831    17956969.666
       214.000         147.000
  14943955.740   -57529384.25649 -42888966.18047  14943954.975    14943959.726
       245.000         208.000
  15562315.091   -43237940.94349 -33095578.88147  15562314.484    15562318.895
       234.000         189.000
  18115035.712   -14405320.07949 -11197174.82445  18115034.583    18115041.771
       209.000         136.000
 98  1 25  2 22 59.9790000  0  8G 7G 4G 9G24G30G 5G 8G10
  17548742.846   -90348557.16649 -69336152.71245  17548741.679    17548747.233
       215.000         153.000
  14990111.641   -69946540.91949 -53955541.83047  14990111.682    14990115.890
       244.000         207.000
  15543441.197   -67803750.89849 -51265096.26647  15543440.840    15543445.611
       240.000         199.000
  14044313.345   -57193156.57349 -43467226.00948  14044313.034    14044318.147
       246.000         213.000
  17916650.180   -15073648.10949 -10387254.21245  17916650.821    17916655.473
       211.000         148.000
  14911093.126   -57702078.60149 -43023533.19047  14911092.446    14911096.843
       245.000         208.000
  15536647.578   -43372824.62149 -33200683.04447  15536646.643    15536651.499
       234.000         189.000
  18075443.668   -14613377.93349 -11359297.78345  18075442.252    18075447.203
       208.000         138.000
 98  1 25  2 23 29.9790000  0  8G 7G 4G 9G24G30G 5G 8G10
  17540601.416   -90391340.53749 -69369490.38745  17540599.676    17540606.310
       216.000         153.000
  14980041.300   -69999460.70349 -53996778.01947  14980041.263    14980045.634
       244.000         207.000
  15532459.608   -67861459.65249 -51310064.13647  15532459.322    15532463.953
       240.000         199.000
  14018459.861   -57329017.36249 -43573091.53948  14018459.562    14018464.625
       246.000         213.000
  17876336.044   -15285500.70049 -10552334.13845  17876335.301    17876339.734
       214.000         149.000
  14878269.638   -57874567.03349 -43157939.74647  14878268.679    14878273.484
       245.000         208.000
  15511094.310   -43507107.80649 -33305319.29647  15511093.833    15511098.078
       235.000         189.000
  18035835.581   -14821518.66249 -11521485.31645  18035833.672    18035840.338
       213.000         142.000
 98  1 25  2 23 59.9790000  0  8G 7G 4G 9G24G30G 5G 8G10
  17532458.418   -90434132.04149 -69402834.44945  17532458.212    17532462.910
       219.000         154.000
  14970046.187   -70051985.56649 -54037706.47447  14970046.003    14970050.403
       244.000         206.000
  15521548.750   -67918796.62649 -51354742.30847  15521548.466    15521552.886
       239.000         198.000
  13992700.455   -57464383.77349 -43678571.84348  13992700.255    13992704.921
       246.000         213.000
  17836017.857   -15497374.34249 -10717430.45445  17836018.431    17836021.198
       216.000         150.000
  14845484.355   -58046854.67849 -43292189.84447  14845483.556    14845488.127
       245.000         208.000
  15485652.732   -43640804.21749 -33409498.30847  15485652.066    15485656.514
       235.000         190.000
  17996211.371   -15029745.44949 -11683739.91545  17996210.822    17996216.988
       213.000         148.000
 98  1 25  2 24 29.9790000  0  8G 7G 4G 9G24G30G 5G 8G10
  17524315.048   -90476926.03849 -69436180.41345  17524313.001    17524319.062
       212.000         154.000
  14960127.296   -70104109.43549 -54078322.47447  14960127.339    14960131.390
       243.000         206.000
  15510711.053   -67975749.09549 -51399120.86947  15510710.608    15510715.395
       239.000         198.000
  13967034.652   -57599258.35949 -43783668.90648  13967034.243    13967039.343
       246.000         213.000
  17795695.019   -15709272.87649 -10882546.18245  17795694.367    17795699.484
       215.000         152.000
  14812744.572   -58218903.50349 -43426253.84947  14812743.881    14812748.340
       245.000         209.000
  15460322.213   -43773917.15449 -33513222.67647  15460321.402    15460326.676
       236.000         190.000
  17956573.460   -15238043.54149 -11846050.07145  17956572.623    17956578.865
       212.000         149.000
 98  1 25  2 24 59.9790000  0  8G 7G 4G 9G24G30G 5G 8G10
  17516168.542   -90519735.97849 -69469538.81345  17516168.059    17516172.433
       215.000         154.000
  14950283.494   -70155839.00149 -54118631.21947  14950283.534    14950287.569
       244.000         205.000
  15499952.472   -68032285.83949 -51443175.48447  15499952.286    15499957.214
       239.000         197.000
  13941462.168   -57733642.52049 -43888383.82448  13941461.917    13941467.008
       246.000         213.000
  17755367.953   -15921192.98949 -11047678.70845  17755367.875    17755372.585
       219.000         153.000
  14780053.223   -58390697.78849 -43560119.51147  14780052.652    14780057.087
       246.000         209.000
  15435104.974   -43906434.82249 -33616483.19347  15435104.450    15435108.678
       235.000         190.000
  17916926.070   -15446391.79349 -12008399.30545  17916925.311    17916931.033
       208.000         149.000
 98  1 25  2 25 29.9790000  0  8G 7G 4G 9G24G30G 5G 8G10
  17508019.904   -90562557.53549 -69502906.26245  17508018.921    17508024.748
       212.000         153.000
  14940514.302   -70207176.51549 -54158634.47447  14940514.377    14940518.167
       244.000         205.000
  15489276.847   -68088386.70849 -51486890.46347  15489276.347    15489281.348
       238.000         197.000
  13915988.247   -57867508.84149 -43992695.22748  13915987.952    13915992.866
       246.000         213.000
  17715037.384   -16133131.82849 -11212825.85945  17715037.904    17715042.180
       215.000         154.000
  14747414.118   -58562217.31349 -43693771.07647  14747413.498    14747417.776
       246.000         209.000
  15409997.667   -44038374.50749 -33719293.33847  15409997.131    15410001.778
       235.000         190.000
  17877271.557   -15654777.02749 -12170777.33745  17877270.893    17877277.272
       204.000         147.000
 98  1 25  2 25 59.9780000  0  8G 7G 4G 9G24G30G 5G 8G10
  17499869.402   -90605387.53549 -69536280.31545  17499868.583    17499874.075
       214.000         151.000
  14930818.790   -70258126.65449 -54198335.87547  14930818.759    14930822.724
       244.000         205.000
  15478686.024   -68144041.61849 -51530257.93847  15478685.249    15478690.306
       238.000         197.000
  13890613.352   -58000854.70249 -44096601.08048  13890613.309    13890618.223
       245.000         213.000
  17674705.558   -16345077.29749 -11377978.15645  17674706.375    17674709.756
       219.000         154.000
  14714835.255   -58733420.35449 -43827176.02847  14714834.602    14714839.075
       246.000         209.000
  15384998.587   -44169745.67849 -33821660.48147  15384997.678    15385003.058
       235.000         190.000
  17837613.773   -15863178.51249 -12333168.01545  17837612.758    17837619.374
       203.000         143.000
 98  1 25  2 26 29.9780000  0  8G 7G 4G 9G24G30G 5G 8G10
  17491715.202   -90648238.22449 -69569670.46345  17491714.378    17491720.010
       214.000         151.000
  14921193.390   -70308708.50149 -54237750.29747  14921193.533    14921197.510
       243.000         205.000
  15468178.301   -68199259.81249 -51573285.12047  15468178.033    15468183.042
       238.000         197.000
  13865333.302   -58133702.36749 -44200118.72748  13865333.160    13865338.221
       246.000         213.000
  17634373.315   -16557024.72849 -11543132.00745  17634371.519    17634376.155
       214.000         152.000
  14682314.539   -58904317.90249 -43960342.93447  14682313.776    14682318.262
       247.000         209.000
  15360107.618   -44300548.75749 -33923584.95847  15360106.929    15360111.793
       235.000         190.000
  17797951.742   -16071603.70849 -12495577.18245  17797950.875    17797956.460
       206.000         143.000
 98  1 25  2 26 59.9780000  0  8G 7G 4G 9G24G30G 5G 8G10
  17483556.636   -90691111.61849 -69603078.30545  17483556.486    17483561.925
       215.000         151.000
  14911638.607   -70358919.26049 -54276875.55847  14911638.847    14911642.805
       244.000         205.000
  15457750.852   -68254056.60249 -51615983.93047  15457750.952    15457755.480
       238.000         197.000
  13840148.764   -58266047.83749 -44303245.05148  13840148.405    13840153.640
       246.000         213.000
  17594043.333   -16768959.80249 -11708276.21445  17594044.636    17594047.998
       217.000         150.000
  14649850.046   -59074919.99249 -44093279.61147  14649849.101    14649853.806
       247.000         210.000
  15335329.466   -44430758.63649 -34025047.20547  15335328.663    15335333.879
       235.000         190.000
  17758287.082   -16280042.57749 -12657997.03945  17758286.564    17758292.224
       213.000         146.000
 98  1 25  2 27 29.9780000  0  8G 7G 4G 9G24G30G 5G 8G10
  17475395.432   -90733999.40449 -69636497.34345  17475395.655    17475399.892
       216.000         151.000
  14902154.216   -70408760.20749 -54315712.65047  14902154.253    14902158.091
       243.000         205.000
  15447398.718   -68308457.64249 -51658374.36047  15447398.009    15447403.159
       238.000         197.000
  13815058.230   -58397899.41549 -44405986.52348  13815058.024    13815063.127
       246.000         213.000
  17553714.406   -16980889.40049 -11873416.14445  17553713.527    17553717.809
       215.000         149.000
  14617441.127   -59245229.98049 -44225988.67047  14617440.457    14617444.963
       247.000         210.000
  15310663.584   -44560378.54349 -34126049.72247  15310663.089    15310667.634
       235.000         190.000
  17718618.916   -16488500.51749 -12820431.78145  17718617.846    17718624.420
       211.000         149.000
 98  1 25  2 27 59.9780000  0  8G 7G 4G 9G24G30G 5G 8G10
  17467228.529   -90776917.49849 -69669940.00145  17467228.080    17467232.107
       215.000         150.000
  14892739.283   -70458236.07549 -54354265.27347  14892739.391    14892743.396
       244.000         205.000
  15437117.815   -68362484.13349 -51700472.93847  15437117.376    15437122.111
       238.000         196.000
  13790057.772   -58529277.81449 -44508359.28748  13790057.432    13790062.477
       246.000         213.000
  17513387.945   -17192805.76049 -12038545.77545  17513388.114    17513392.495
       212.000         149.000
  14585085.286   -59415261.13949 -44358480.47147  14585084.426    14585088.837
       247.000         210.000
  15286111.322   -44689401.70749 -34226587.25847  15286110.836    15286115.412
       235.000         190.000
  17678944.231   -16696992.61249 -12982893.14245  17678943.492    17678948.825
       218.000         151.000
 98  1 25  2 28 29.9780000  0  8G 7G 4G 9G24G30G 5G 8G10
  17459055.187   -90819868.66349 -69703408.45245  17459054.358    17459058.223
       217.000         149.000
  14883394.530   -70507343.04449 -54392530.43447  14883394.560    14883398.552
       243.000         205.000
  15426906.731   -68416143.87949 -51742285.73847  15426906.595    15426911.092
       238.000         196.000
  13765147.798   -58660180.58549 -44610361.42948  13765147.467    13765152.708
       246.000         213.000
  17473064.561   -17404706.26849 -12203663.02245  17473063.720    17473070.033
       217.000         148.000
  14552778.990   -59585031.67949 -44490769.18747  14552778.101    14552782.661
       247.000         210.000
  15261676.463   -44817807.74149 -34326643.90847  15261676.101    15261680.541
       235.000         190.000
  17639260.256   -16905534.19349 -13145393.04645  17639259.305    17639266.029
       215.000         152.000
 98  1 25  2 28 59.9780000  0  8G 7G 4G 9G24G30G 5G 8G10
  17450876.817   -90862846.64249 -69736897.76245  17450875.900    17450880.506
       216.000         146.000
  14874119.339   -70556084.56749 -54430510.83347  14874119.401    14874123.265
       243.000         204.000
  15416764.130   -68469443.75949 -51783818.12447  15416763.866    15416768.880
       238.000         196.000
  13740327.904   -58790610.07449 -44711994.77948  13740327.709    13740332.754
       246.000         213.000
  17432743.479   -17616595.16349 -12368771.23845  17432743.493    17432750.087
       216.000         149.000
  14520522.437   -59754540.86849 -44622854.25747  14520521.572    14520526.096
       247.000         210.000
  15237359.579   -44945593.91649 -34426217.54847  15237358.586    15237363.823
       235.000         190.000
  17599565.957   -17114129.27549 -13307934.62445  17599565.674    17599569.551
       215.000         152.000
 98  1 25  2 29 29.9780000  0  8G 7G 4G 9G24G30G 5G 8G10
  17442697.142   -90905831.28549 -69770392.26845  17442697.022    17442701.932
       213.000         144.000
  14864911.907   -70604469.87949 -54468213.66347  14864911.816    14864915.911
       244.000         204.000
  15406692.032   -68522373.01049 -51825061.70947  15406691.170    15406696.383
       237.000         195.000
  13715601.264   -58920549.23949 -44813246.06248  13715600.977    13715606.223
       246.000         213.000
  17392427.177   -17828459.04349 -12533859.96445  17392427.103    17392431.986
       214.000         150.000
  14488318.415   -59923774.09849 -44754724.29447  14488317.656    14488322.121
       248.000         210.000
  15213157.687   -45072775.60649 -34525320.16647  15213157.091    15213161.566
       236.000         191.000
  17559861.885   -17322775.61249 -13470516.13245  17559859.992    17559866.979
       211.000         151.000
 98  1 25  2 29 59.9780000  0  8G 7G 4G 9G24G30G 5G 8G10
  17434517.280   -90948816.96549 -69803887.59545  17434516.226    17434522.136
       209.000         143.000
  14855772.760   -70652496.27649 -54505636.81947  14855772.733    14855776.769
       243.000         204.000
  15396690.784   -68574929.76049 -51866015.03947  15396690.423    15396695.086
       237.000         195.000
  13690969.351   -59049990.82049 -44914109.61448  13690969.069    13690974.033
       246.000         213.000
  17352117.755   -18040286.27349 -12698920.12645  17352119.737    17352122.565
       215.000         151.000
  14456165.114   -60092740.74149 -44886386.59647  14456164.316    14456169.089
       247.000         211.000
  15189070.646   -45199353.84549 -34623952.56247  15189069.816    15189074.862
       236.000         191.000
  17520147.313   -17531476.58749 -13633140.18045  17520146.605    17520152.773
       210.000         152.000
 98  1 25  2 30 29.9780000  0  8G 7G 4G 9G24G30G 5G 8G10
  17426340.023   -90991787.63049 -69837371.23945  17426340.555    17426343.777
       211.000         142.000
  14846701.490   -70700165.91649 -54542781.98347  14846701.552    14846705.717
       243.000         204.000
  15386761.321   -68627109.26949 -51906674.41447  15386760.997    15386765.736
       237.000         195.000
  13666432.223   -59178934.19649 -45014584.95748  13666431.686    13666436.796
       246.000         213.000
  17311813.301   -18252087.08149 -12863959.70145  17311813.391    17311816.109
       217.000         151.000
  14424060.311   -60261452.55949 -45017850.34247  14424059.421    14424064.072
       248.000         211.000
  15165098.506   -45325327.93649 -34722114.19647  15165097.961    15165102.857
       235.000         191.000
  17480423.628   -17740225.63949 -13795801.71845  17480422.725    17480429.001
       212.000         152.000
 98  1 25  2 30 59.9780000  0  8G 7G 4G 9G24G30G 5G 8G10
  17418166.405   -91034740.82549 -69870841.24145  17418164.705    17418171.951
       209.000         141.000
  14837696.583   -70747486.95849 -54579655.51147  14837696.476    14837700.566
       243.000         203.000
  15376903.186   -68678914.31649 -51947042.00147  15376902.712    15376907.827
       237.000         194.000
  13641991.660   -59307369.85449 -45114664.67048  13641991.496    13641996.711
       246.000         213.000
  17271513.857   -18463862.08649 -13028979.17345  17271513.940    17271517.628
       215.000         151.000
  14392004.282   -60429907.98549 -45149114.29847  14392003.483    14392007.943
       248.000         211.000
  15141236.491   -45450723.51349 -34819825.04447  15141235.711    15141240.789
       235.000         191.000
  17440694.652   -17949002.41149 -13958484.83145  17440692.940    17440699.605
       212.000         152.000
 98  1 25  2 31 29.9780000  0  8G 7G 4G 9G24G30G 5G 8G10
  17409993.637   -91077687.99449 -69904306.62345  17409993.113    17409997.676
       211.000         143.000
  14828758.347   -70794457.60049 -54616256.00347  14828758.314    14828762.210
       243.000         203.000
  15367116.383   -68730344.19749 -51987117.24947  15367116.137    15367121.074
       237.000         195.000
  13617646.888   -59435302.45949 -45214352.39448  13617646.609    13617651.606
       246.000         213.000
  17231219.467   -18675610.40649 -13193977.86745  17231219.915    17231224.111
       213.000         151.000
  14359997.199   -60598106.16549 -45280177.80547  14359996.471    14360000.888
       247.000         211.000
  15117483.213   -45575548.18849 -34917091.02947  15117482.375    15117487.272
       235.000         191.000
  17400961.774   -18157799.78749 -14121184.04645  17400960.516    17400966.386
       214.000         153.000
 98  1 25  2 31 59.9780000  0  8G 7G 4G 9G24G30G 5G 8G10
  17401818.338   -91120650.21849 -69937783.67845  17401817.652    17401823.215
       210.000         146.000
  14819889.889   -70841061.57049 -54652570.77947  14819889.794    14819894.300
       243.000         203.000
  15357399.095   -68781409.17049 -52026908.15247  15357398.754    15357403.603
       238.000         195.000
  13593395.315   -59562745.17849 -45313658.39348  13593395.108    13593400.063
       246.000         213.000
  17190929.090   -18887337.92849 -13358960.32945  17190929.127    17190933.828
       213.000         151.000
  14328038.528   -60766050.03549 -45411043.15047  14328037.786    14328042.294
       247.000         211.000
  15093841.829   -45699784.61649 -35013898.64447  15093841.431    15093846.006
       236.000         191.000
  17361226.695   -18366609.32549 -14283892.71845  17361226.233    17361231.677
       215.000         153.000
 98  1 25  2 32 29.9780000  0  8G 7G 4G 9G24G30G 5G 8G10
  17393639.437   -91163630.72149 -69971274.97745  17393639.464    17393643.957
       216.000         148.000
  14811091.502   -70887297.25549 -54688598.57647  14811091.605    14811095.497
       243.000         202.000
  15347752.190   -68832104.01249 -52066410.64047  15347751.433    15347756.526
       238.000         194.000
  13569237.041   -59689697.96949 -45412582.62748  13569236.723    13569241.743
       246.000         213.000
  17150641.979   -19099048.24549 -13523929.39445  17150642.927    17150646.172
       213.000         150.000
  14296133.141   -60933713.95349 -45541690.34447  14296132.314    14296136.739
       247.000         211.000
  15070312.535   -45823431.91449 -35110247.19647  15070312.250    15070316.555
       236.000         191.000
  17321494.259   -18575404.10949 -14446589.90345  17321493.180    17321498.534
       215.000         151.000
 98  1 25  2 32 59.9770000  0  8G 7G 4G 9G24G30G 5G 8G10
  17385455.720   -91206637.24949 -70004786.55545  17385454.171    17385459.856
       214.000         151.000
  14802361.777   -70933172.30249 -54724345.35747  14802361.768    14802365.580
       242.000         202.000
  15338173.878   -68882438.48049 -52105632.32147  15338173.394    15338178.323
       238.000         194.000
  13545172.796   -59816156.26849 -45511121.54248  13545172.532    13545177.417
       246.000         213.000
  17110360.303   -19310730.27349 -13688876.38645  17110360.174    17110364.414
       213.000         151.000
  14264286.990   -61101066.57149 -45672094.97147  14264286.260    14264290.695
       247.000         212.000
  15046895.605   -45946488.87549 -35206135.74447  15046894.772    15046899.603
       236.000         191.000
  17281766.589   -18784174.10749 -14609267.81145  17281765.613    17281770.672
       214.000         151.000
 98  1 25  2 33 29.9770000  0  8G 7G 4G 9G24G30G 5G 8G10
  17377265.132   -91249678.27849 -70038325.04045  17377264.350    17377269.585
       214.000         151.000
  14793699.144   -70978694.87149 -54759817.47547  14793699.265    14793703.212
       242.000         202.000
  15328662.438   -68932421.38349 -52144580.05047  15328662.148    15328667.219
       237.000         194.000
  13521198.171   -59942143.58449 -45609293.45448  13521198.039    13521202.996
       246.000         213.000
  17070080.468   -19522401.81349 -13853815.21245  17070080.689    17070084.636
       215.000         151.000
  14232498.833   -61268114.55149 -45802262.21547  14232498.187    14232502.651
       247.000         212.000
  15023591.476   -46068952.99449 -35301562.33647  15023590.795    15023595.303
       236.000         191.000
  17242037.185   -18992953.24649 -14771952.77845  17242035.857    17242042.949
       215.000         152.000
 98  1 25  2 33 59.9770000  0  8G 7G 4G 9G24G30G 5G 8G10
  17369071.870   -91292734.52249 -70071875.33745  17369070.753    17369075.656
       215.000         151.000
  14785104.414   -71023860.31349 -54795011.32347  14785104.215    14785108.141
       242.000         202.000
  15319219.428   -68982044.82449 -52183247.68147  15319219.375    15319224.055
       236.000         194.000
  13497316.107   -60067644.62549 -45707086.45548  13497315.913    13497320.763
       246.000         213.000
  17029805.499   -19734048.11649 -14018734.37645  17029805.941    17029809.700
       214.000         152.000
  14200773.482   -61434832.41949 -45932172.23347  14200772.770    14200777.299
       247.000         212.000
  15000402.060   -46190814.05149 -35396519.01047  15000401.398    15000406.422
       236.000         191.000
  17202307.890   -19201731.84449 -14934637.37345  17202307.420    17202312.865
       215.000         151.000
 98  1 25  2 34 29.9770000  0  8G 7G 4G 9G24G30G 5G 8G10
  17360877.389   -91335797.33349 -70105430.76645  17360876.585    17360882.798
       214.000         151.000
  14776572.098   -71068697.70349 -54829949.54247  14776572.122    14776576.176
       243.000         202.000
  15309843.722   -69031314.66849 -52221639.78447  15309843.426    15309848.514
       236.000         193.000
  13473524.611   -60192669.75449 -45804508.61448  13473524.353    13473529.338
       246.000         213.000
  16989534.277   -19945674.15949 -14183637.74845  16989534.820    16989539.490
       214.000         153.000
  14169110.650   -61601221.53649 -46061826.07947  14169109.979    14169114.363
       247.000         212.000
  14977325.716   -46312081.28549 -35491012.96847  14977325.233    14977329.863
       235.000         191.000
  17162576.637   -19410521.07749 -15097330.20645  17162574.967    17162582.171
       215.000         154.000
 98  1 25  2 34 59.9770000  0  8G 7G 4G 9G24G30G 5G 8G10
  17352682.855   -91378859.39449 -70138985.65345  17352682.808    17352687.761
       214.000         148.000
  14768102.131   -71113207.62249 -54864632.59747  14768102.176    14768106.288
       242.000         201.000
  15300534.817   -69080233.32949 -52259758.24647  15300534.600    15300539.560
       236.000         193.000
  13449823.289   -60317220.99849 -45901561.51848  13449822.911    13449828.082
       246.000         214.000
  16949267.873   -20157275.32849 -14348521.73945  16949268.076    16949273.234
       214.000         154.000
  14137510.195   -61767282.93249 -46191224.56347  14137509.696    14137513.958
       248.000         212.000
  14954364.927   -46432741.17749 -35585033.67647  14954363.979    14954369.583
       235.000         191.000
  17122842.705   -19619323.77949 -15260033.57845  17122841.194    17122846.878
       213.000         152.000
 98  1 25  2 35 29.9770000  0  8G 7G 4G 9G24G30G 5G 8G10
  17344488.557   -91421920.56649 -70172539.78945  17344487.141    17344492.580
       211.000         144.000
  14759696.827   -71157377.80549 -54899050.91547  14759696.835    14759700.859
       242.000         201.000
  15291293.866   -69128795.01849 -52297598.54247  15291293.528    15291298.603
       236.000         192.000
  13426213.005   -60441293.75449 -45998241.56948  13426212.846    13426217.873
       246.000         214.000
  16909006.880   -20368847.93149 -14513383.47445  16909006.428    16909012.127
       214.000         155.000
  14105971.087   -61933022.07449 -46320371.93948  14105970.420    14105974.930
       248.000         213.000
  14931519.808   -46552792.75549 -35678580.37247  14931519.014    14931524.263
       235.000         191.000
  17083107.801   -19828131.93549 -15422741.15745  17083106.641    17083113.214
       215.000         154.000
 98  1 25  2 35 59.9770000  0  8G 7G 4G 9G24G30G 5G 8G10
  17336293.727   -91464984.20949 -70206095.89545  17336295.253    17336298.633
       208.000         142.000
  14751353.954   -71201220.14049 -54933213.76447  14751353.910    14751358.038
       242.000         201.000
  15282120.603   -69177000.88549 -52335161.56847  15282120.238    15282125.168
       236.000         192.000
  13402694.890   -60564882.41649 -46094544.40348  13402694.668    13402699.434
       246.000         214.000
  16868749.770   -20580400.57049 -14678229.65145  16868750.327    16868754.732
       216.000         155.000
  14074491.311   -62098449.32249 -46449276.27648  14074490.653    14074495.327
       247.000         213.000
  14908788.824   -46672244.29549 -35771659.50347  14908788.421    14908793.014
       235.000         191.000
  17043375.859   -20036924.38449 -15585436.50945  17043374.607    17043380.810
       214.000         153.000
 98  1 25  2 36 29.9770000  0  8G 7G 4G 9G24G30G 5G 8G10
  17328097.908   -91508053.35649 -70239656.26345  17328097.877    17328100.896
       208.000         139.000
  14743075.337   -71244724.59549 -54967113.33747  14743075.651    14743079.324
       242.000         201.000
  15273015.843   -69224846.74149 -52372444.07347  15273015.631    15273020.871
       236.000         192.000
  13379270.890   -60687976.28149 -46190461.68448  13379270.534    13379275.411
       246.000         214.000
  16828498.449   -20791923.11949 -14843052.38945  16828498.513    16828502.295
       218.000         156.000
  14043070.985   -62263564.25249 -46577937.25048  14043070.185    14043074.843
       248.000         213.000
  14886171.850   -46791097.33049 -35864272.27047  14886171.388    14886176.168
       235.000         191.000
  17003650.614   -20245681.98849 -15748104.73345  17003649.678    17003655.179
       215.000         153.000
 98  1 25  2 36 59.9770000  0  8G 7G 4G 9G24G30G 5G 8G10
  17319899.446   -91551136.82549 -70273227.75445  17319899.783    17319903.150
       209.000         136.000
  14734863.808   -71287876.55449 -55000738.23947  14734863.796    14734867.770
       242.000         200.000
  15263980.573   -69272327.72949 -52409442.26147  15263980.246    15263985.513
       236.000         192.000
  13355943.987   -60810559.68549 -46285981.20548  13355943.713    13355948.590
       246.000         214.000
  16788255.480   -21003401.83649 -15007840.97145  16788255.752    16788260.628
       218.000         156.000
  14011710.679   -62428363.61849 -46706352.33148  14011710.095    14011714.669
       248.000         213.000
  14863664.615   -46909373.58449 -35956435.59847  14863664.499    14863669.290
       235.000         191.000
  16963932.565   -20454401.35949 -15910743.15145  16963931.525    16963937.711
       217.000         153.000
 98  1 25  2 37 29.9770000  0  8G 7G 4G 9G24G30G 5G 8G10
  17311695.286   -91594249.46149 -70306822.03345  17311694.673    17311698.714
       208.000         138.000
  14726718.288   -71330681.51649 -55034092.74747  14726718.345    14726722.073
       242.000         200.000
  15255012.715   -69319454.05449 -52446164.08547  15255012.645    15255017.352
       236.000         192.000
  13332714.284   -60932632.53349 -46381102.88848  13332714.024    13332718.934
       246.000         214.000
  16748021.655   -21214832.02949 -15172591.74645  16748021.476    16748025.550
       219.000         157.000
  13980408.043   -62592860.08849 -46834531.38848  13980407.385    13980411.896
       248.000         214.000
  14841263.513   -47027092.28849 -36048164.46647  14841263.107    14841267.821
       235.000         191.000
  16924219.290   -20663096.16049 -16073362.44545  16924218.707    16924221.746
       214.000         152.000
 98  1 25  2 37 59.9770000  0  8G 7G 4G 9G24G30G 5G 8G10
  17303486.755   -91637386.02049 -70340434.92445  17303486.865    17303491.329
       213.000         142.000
  14718637.704   -71373145.46349 -55067181.53347  14718637.589    14718641.409
       242.000         200.000
  15246113.814   -69366217.99849 -52482603.53747  15246113.425    15246118.467
       236.000         192.000
  13309580.563   -61054201.00449 -46475831.55048  13309580.359    13309585.153
       246.000         214.000
  16707799.960   -21426198.19149 -15337292.62845  16707799.821    16707804.299
       219.000         157.000
  13949164.412   -62757046.50449 -46962468.84348  13949163.645    13949168.440
       248.000         214.000
  14818970.159   -47144245.04849 -36139452.33847  14818969.671    14818974.349
       235.000         191.000
  16884508.280   -20871778.45249 -16235971.97845  16884507.928    16884513.736
       214.000         153.000
 98  1 25  2 38 29.9770000  0  8G 7G 4G 9G24G30G 5G 8G10
  17295271.976   -91680555.19849 -70374073.21845  17295271.113    17295276.669
       213.000         143.000
  14710621.521   -71415270.72249 -55100006.40647  14710621.619    14710625.411
       241.000         200.000
  15237279.452   -69412643.11749 -52518778.96447  15237279.441    15237284.022
       235.000         191.000
  13286539.124   -61175284.42449 -46570182.25248  13286539.000    13286543.984
       246.000         214.000
  16667592.336   -21637491.02449 -15501936.38045  16667591.327    16667596.093
       217.000         158.000
  13917978.596   -62920929.08849 -47090169.54948  13917978.034    13917982.545
       248.000         214.000
  14796784.272   -47260832.86049 -36230299.99547  14796783.800    14796788.668
       235.000         190.000
  16844795.931   -21080467.55649 -16398586.85945  16844794.811    16844799.838
       214.000         150.000
 98  1 25  2 38 59.9770000  0  8G 7G 4G 9G24G30G 5G 8G10
  17287050.227   -91723760.87549 -70407740.00645  17287050.054    17287055.142
       214.000         146.000
  14702665.904   -71457077.68549 -55132583.26347  14702666.056    14702669.916
       241.000         199.000
  15228507.843   -69458738.40949 -52554697.39447  15228507.664    15228512.621
       235.000         191.000
  13263588.073   -61295893.12449 -46664163.04348  13263588.029    13263593.052
       246.000         214.000
  16627396.363   -21848722.20749 -15666532.06645  16627397.402    16627400.368
       220.000         159.000
  13886849.362   -63084514.27649 -47217638.51748  13886848.725    13886853.216
       248.000         214.000
  14774709.901   -47376834.26649 -36320690.72147  14774709.212    14774714.050
       235.000         190.000
  16805082.694   -21289162.06549 -16561205.89845  16805082.264    16805087.296
       213.000         152.000
 98  1 25  2 39 29.9770000  0  8G 7G 4G 9G24G30G 5G 8G10
  17278823.411   -91766992.95149 -70441427.35445  17278822.250    17278827.880
       214.000         149.000
  14694767.285   -71498585.17949 -55164926.76347  14694767.154    14694771.170
       241.000         199.000
  15219797.133   -69504513.29149 -52590366.15147  15219796.504    15219801.414
       235.000         191.000
  13240726.712   -61416030.42649 -46757776.51348  13240726.396    13240731.410
       246.000         214.000
  16587208.989   -22059908.19549 -15831092.56845  16587208.724    16587212.934
       220.000         160.000
  13855776.794   -63247801.81549 -47344875.55148  13855776.016    13855780.579
       248.000         214.000
  14752752.272   -47492222.62549 -36410603.74047  14752751.453    14752756.446
       235.000         190.000
  16765369.691   -21497854.79149 -16723823.57545  16765368.667    16765375.121
       214.000         151.000
 98  1 25  2 39 59.9760000  0  8G 7G 4G 9G24G30G 5G 8G10
  17270596.415   -91810225.90549 -70475115.36645  17270595.705    17270600.945
       214.000         148.000
  14686924.043   -71539801.70749 -55197043.53547  14686924.014    14686927.907
       241.000         199.000
  15211147.799   -69549965.67449 -52625783.61347  15211147.042    15211152.753
       234.000         191.000
  13217956.225   -61535690.25849 -46851017.92648  13217955.960    13217960.925
       246.000         214.000
  16547030.437   -22271047.99049 -15995617.06345  16547030.569    16547033.983
       219.000         161.000
  13824764.978   -63410770.12249 -47471863.83348  13824764.285    13824768.752
       248.000         214.000
  14730912.966   -47606988.88049 -36500032.00047  14730912.442    14730917.248
       235.000         191.000
  16725663.728   -21706511.01649 -16886412.78145  16725661.875    16725668.306
       213.000         151.000
 98  1 25  2 40 29.9760000  0  8G 7G 4G 9G24G30G 5G 8G10
  17262369.473   -91853458.85649 -70508803.38345  17262368.051    17262373.941
       210.000         149.000
  14679134.734   -71580734.87349 -55228939.50547  14679134.687    14679138.554
       242.000         199.000
  15202555.918   -69595116.14349 -52660965.81647  15202555.290    15202560.457
       234.000         190.000
  13195275.486   -61654878.27849 -46943891.69448  13195275.101    13195280.017
       246.000         214.000
  16506854.790   -22482172.59249 -16160129.69745  16506853.673    16506858.437
       221.000         161.000
  13793811.548   -63573431.37949 -47598612.85748  13793810.863    13793815.424
       248.000         214.000
  14709188.753   -47721150.13949 -36588988.83847  14709188.431    14709193.165
       235.000         191.000
  16685967.458   -21915116.47849 -17048962.46645  16685966.386    16685971.546
       214.000         153.000
 98  1 25  2 40 59.9760000  0  8G 7G 4G 9G24G30G 5G 8G10
  17254146.252   -91896671.96949 -70542475.96445  17254145.733    17254150.123
       214.000         148.000
  14671399.940   -71621381.47949 -55260612.17847  14671399.831    14671403.999
       241.000         198.000
  15194022.303   -69639960.29849 -52695909.32847  15194022.267    15194027.417
       235.000         190.000
  13172688.300   -61773574.57549 -47036382.29648  13172688.198    13172693.008
       248.000         214.000
  16466682.934   -22693276.58249 -16324626.30045  16466683.192    16466687.006
       220.000         161.000
  13762922.854   -63735752.58349 -47725096.89248  13762922.047    13762926.509
       248.000         215.000
  14687578.228   -47834714.37049 -36677480.45347  14687577.771    14687582.428
       236.000         191.000
  16646282.284   -22123663.88649 -17211466.90545  16646280.940    16646287.553
       216.000         154.000
 98  1 25  2 41 29.9760000  0  8G 7G 4G 9G24G30G 5G 8G10
  17245931.375   -91939841.52049 -70576114.58345  17245930.401    17245935.414
       212.000         148.000
  14663723.541   -71661720.89149 -55292045.47647  14663723.795    14663727.592
       241.000         198.000
  15185548.408   -69684491.24549 -52730608.77847  15185548.184    15185553.322
       234.000         190.000
  13150196.514   -61891769.70849 -47128482.37948  13150196.239    13150201.135
       248.000         214.000
  16426520.714   -22904329.95849 -16489083.45545  16426520.866    16426524.070
       222.000         161.000
  13732103.109   -63897711.34249 -47851298.50648  13732102.423    13732106.787
       248.000         215.000
  14666079.507   -47947690.92549 -36765514.13047  14666079.295    14666083.993
       236.000         191.000
  16606610.140   -22332143.04549 -17373918.17145  16606609.104    16606614.671
       216.000         154.000
 98  1 25  2 41 59.9760000  0  8G 7G 4G 9G24G30G 5G 8G10
  17237722.926   -91982976.90049 -70609726.58445  17237722.323    17237726.995
       210.000         145.000
  14656108.752   -71701736.79249 -55323226.70347  14656108.647    14656112.926
       241.000         198.000
  15177135.037   -69728704.16849 -52765060.43247  15177134.718    15177139.482
       235.000         190.000
  13127797.692   -62009476.22449 -47220201.73448  13127797.305    13127802.464
       248.000         214.000
  16386373.990   -23115302.22249 -16653477.42645  16386373.500    16386379.356
       219.000         161.000
  13701353.921   -64059299.35849 -47977211.24448  13701353.191    13701357.602
       249.000         215.000
  14644692.971   -48060078.20349 -36853088.64947  14644692.580    14644696.938
       237.000         191.000
  16566953.014   -22540542.18049 -17536307.05645  16566952.138    16566957.566
       217.000         156.000
 98  1 25  2 42 29.9760000  0  8G 7G 4G 9G24G30G 5G 8G10
  17229515.513   -92026107.12949 -70643334.54545  17229514.455    17229520.112
       210.000         144.000
  14648556.337   -71741425.10649 -55354152.65447  14648556.515    14648560.348
       241.000         197.000
  15168780.551   -69772607.60349 -52799270.91247  15168780.042    15168784.613
       234.000         190.000
  13105491.232   -62126697.34749 -47311542.85348  13105490.977    13105495.874
       248.000         214.000
  16346243.797   -23326187.23749 -16817803.39545  16346243.581    16346248.384
       220.000         161.000
  13670674.497   -64220520.92549 -48102838.42248  13670673.929    13670678.222
       248.000         215.000
  14623419.108   -48171873.22349 -36940201.65747  14623418.708    14623423.520
       236.000         191.000
  16527305.633   -22748889.69849 -17698655.74245  16527304.705    16527310.388
       218.000         155.000
 98  1 25  2 42 59.9760000  0  8G 7G 4G 9G24G30G 5G 8G10
  17221304.630   -92069254.74349 -70676956.06145  17221302.900    17221309.518
       205.000         141.000
  14641065.063   -71780792.04449 -55384828.18247  14641065.241    14641068.924
       241.000         197.000
  15160485.544   -69816198.10749 -52833237.55047  15160485.354    15160489.917
       235.000         190.000
  13083276.968   -62243434.07449 -47402506.51848  13083276.656    13083281.565
       248.000         214.000
  16306132.179   -23536974.96849 -16982053.54745  16306132.040    16306136.751
       221.000         162.000
  13640063.377   -64381383.42849 -48228185.81848  13640062.631    13640067.142
       249.000         215.000
  14602258.215   -48283074.51449 -37026852.01747  14602257.677    14602262.544
       236.000         191.000
  16487665.804   -22957198.13849 -17860973.94845  16487663.958    16487670.807
       215.000         155.000
 98  1 25  2 43 29.9760000  0  8G 7G 4G 9G24G30G 5G 8G10
  17213084.464   -92112451.67549 -70710615.99745  17213084.240    17213087.397
       207.000         138.000
  14633631.978   -71819853.03149 -55415265.30647  14633631.827    14633636.184
       241.000         197.000
  15152251.311   -69859469.65849 -52866955.65547  15152250.685    15152255.341
       234.000         189.000
  13061153.041   -62359696.14649 -47493100.32748  13061152.812    13061157.660
       248.000         214.000
  16266038.993   -23747665.80649 -17146228.21245  16266038.396    16266043.189
       219.000         162.000
  13609515.100   -64541915.60349 -48353275.81048  13609514.349    13609518.708
       249.000         215.000
  14581212.216   -48393672.21949 -37113032.05747  14581211.707    14581216.530
       236.000         191.000
  16448034.219   -23165463.64649 -18023258.72245  16448032.864    16448039.192
       216.000         156.000
 98  1 25  2 43 59.9760000  0  8G 7G 4G 9G24G30G 5G 8G10
  17204852.263   -92155712.94549 -70744326.08845  17204853.768    17204856.272
       207.000         139.000
  14626256.574   -71858610.86549 -55445466.21347  14626256.603    14626260.449
       241.000         197.000
  15144077.787   -69902421.66449 -52900424.76247  15144077.054    15144082.579
       234.000         189.000
  13039119.645   -62475482.26849 -47583323.26548  13039119.475    13039124.292
       248.000         214.000
  16225961.927   -23958272.48249 -17310337.28745  16225962.020    16225966.384
       221.000         162.000
  13579028.020   -64702126.30349 -48478115.30448  13579027.255    13579031.743
       249.000         215.000
  14560279.714   -48503673.38049 -37198747.25347  14560278.969    14560284.132
       236.000         191.000
  16408409.989   -23373690.64049 -18185513.49145  16408408.755    16408415.022
       218.000         157.000
 98  1 25  2 44 29.9760000  0  8G 7G 4G 9G24G30G 5G 8G10
  17196611.295   -92199019.20649 -70778071.22745  17196610.344    17196617.594
       208.000         137.000
  14618938.988   -71897064.91749 -55475430.40947  14618939.029    14618942.896
       241.000         197.000
  15135966.252   -69945047.79449 -52933639.93947  15135965.899    15135971.608
       234.000         189.000
  13017181.620   -62590767.28849 -47673155.73348  13017181.383    13017186.198
       248.000         214.000
  16185901.136   -24168793.46149 -17474379.57745  16185901.174    16185905.370
       223.000         162.000
  13548605.441   -64861997.85349 -48602690.52548  13548604.676    13548609.047
       248.000         215.000
  14539459.198   -48613085.87549 -37284003.75247  14539458.982    14539463.381
       236.000         191.000
  16368794.026   -23581874.01949 -18347734.28645  16368792.111    16368798.588
       217.000         157.000
 98  1 25  2 44 59.9760000  0  8G 7G 4G 9G24G30G 5G 8G10
  17188366.431   -92242345.65749 -70811832.09345  17188365.722    17188371.140
       208.000         139.000
  14611677.947   -71935222.27149 -55505163.41147  14611677.696    14611681.902
       240.000         197.000
  15127918.448   -69987339.53549 -52966594.56347  15127918.360    15127923.226
       233.000         188.000
  12995338.007   -62705556.15449 -47762601.59448  12995337.845    12995342.515
       248.000         214.000
  16145857.254   -24379225.36449 -17638352.46145  16145856.606    16145860.813
       222.000         162.000
  13518247.163   -65021531.54649 -48727002.49148  13518246.403    13518250.785
       248.000         215.000
  14518750.056   -48721913.12049 -37368804.20747  14518749.259    14518754.133
       236.000         191.000
  16329192.360   -23789981.89249 -18509896.22345  16329191.056    16329195.975
       218.000         159.000
 98  1 25  2 45 29.9760000  0  8G 7G 4G 9G24G30G 5G 8G10
  17180124.005   -92285661.06849 -70845584.37145  17180122.778    17180128.712
       212.000         142.000
  14604473.499   -71973081.94349 -55534664.44947  14604473.923    14604477.695
       240.000         196.000
  15119932.808   -70029304.47449 -52999294.52847  15119932.069    15119937.468
       234.000         188.000
  12973586.627   -62819860.34649 -47851669.78148  12973586.193    12973591.106
       248.000         214.000
  16105830.644   -24589566.59049 -17802254.69445  16105831.285    16105835.369
       220.000         162.000
  13487955.908   -65180713.04649 -48851040.01148  13487955.133    13487959.563
       249.000         215.000
  14498151.178   -48830160.89349 -37453153.12947  14498150.399    14498155.096
       236.000         191.000
  16289607.358   -23998002.11749 -18671989.87245  16289606.400    16289612.257
       219.000         160.000
 98  1 25  2 45 59.9760000  0  8G 7G 4G 9G24G30G 5G 8G10
  17171889.196   -92328935.19249 -70879304.46045  17171888.889    17171893.382
       211.000         143.000
  14597324.811   -72010648.69349 -55563937.23447  14597324.802    14597328.801
       240.000         196.000
  15112006.797   -70070955.84449 -53031750.14946  15112006.546    15112011.664
       233.000         187.000
  12951925.209   -62933691.77749 -47940369.58048  12951924.809    12951929.882
       248.000         214.000
  16065821.474   -24799815.87549 -17966085.26345  16065820.834    16065825.288
       220.000         161.000
  13457734.319   -65339528.44249 -48974792.25248  13457733.475    13457738.044
       248.000         215.000
  14477663.024   -48937827.10249 -37537048.88347  14477662.163    14477667.290
       236.000         191.000
  16250040.831   -24205925.56249 -18834008.09745  16250040.151    16250044.702
       216.000         160.000
 98  1 25  2 46 29.9750000  0  8G 7G 4G 9G24G30G 5G 8G10
  17163664.089   -92372157.97349 -70912984.57045  17163663.453    17163668.939
       214.000         145.000
  14590229.570   -72047934.44049 -55592991.05847  14590229.674    14590233.647
       240.000         196.000
  15104140.165   -70112295.43249 -53063962.83746  15104139.842    15104144.503
       233.000         187.000
  12930354.995   -63047043.90949 -48028695.90748  12930354.742    12930359.526
       248.000         214.000
  16025831.723   -25009963.00949 -18129836.24745  16025831.158    16025835.905
       222.000         162.000
  13427584.631   -65497966.07849 -49098250.14648  13427583.887    13427588.468
       249.000         215.000
  14457289.964   -49044887.91349 -37620472.90547  14457289.257    14457294.021
       236.000         190.000
  16210496.483   -24413732.31549 -18995935.40145  16210495.907    16210501.176
       216.000         161.000
 98  1 25  2 46 59.9750000  0  8G 7G 4G 9G24G30G 5G 8G10
  17155448.184   -92415333.47949 -70946627.81745  17155447.461    17155453.284
       211.000         146.000
  14583187.003   -72084943.39249 -55621829.19647  14583187.070    14583191.000
       240.000         196.000
  15096330.839   -70153333.65249 -53095940.68446  15096330.488    15096335.614
       233.000         187.000
  12908872.677   -63159934.29549 -48116662.43148  12908872.304    12908877.235
       248.000         215.000
  15985858.331   -25220024.29749 -18293520.32345  15985858.600    15985862.750
       222.000         162.000
  13397502.650   -65656047.86749 -49221430.75248  13397501.872    13397506.421
       249.000         216.000
  14437033.366   -49151336.82949 -37703420.11347  14437032.670    14437037.725
       236.000         190.000
  16170973.153   -24621428.45349 -19157776.50345  16170971.689    16170977.473
       220.000         162.000
 98  1 25  2 47 29.9750000  0  8G 7G 4G 9G24G30G 5G 8G10
  17147238.469   -92458475.35449 -70980244.87245  17147238.244    17147243.482
       211.000         146.000
  14576195.460   -72121684.19549 -55650458.38447  14576195.340    14576199.314
       240.000         196.000
  15088578.164   -70194074.33649 -53127686.68246  15088578.065    15088583.124
       233.000         187.000
  12887480.224   -63272352.41449 -48204260.94848  12887480.073    12887484.975
       246.000         215.000
  15945902.502   -25429993.62249 -18457132.73945  15945902.142    15945906.603
       223.000         162.000
  13367488.201   -65813774.82149 -49344334.85948  13367487.431    13367491.969
       249.000         216.000
  14416894.387   -49257168.04049 -37785886.00247  14416893.902    14416898.866
       235.000         190.000
  16131470.908   -24829014.11549 -19319531.52646  16131470.795    16131476.036
       223.000         163.000
 98  1 25  2 47 59.9750000  0  8G 7G 4G 9G24G30G 5G 8G10
  17139032.551   -92501597.86349 -71013846.83545  17139032.475    17139036.509
       204.000         145.000
  14569254.574   -72158158.79149 -55678880.14347  14569254.755    14569258.698
       240.000         195.000
  15080883.095   -70234512.32349 -53159196.81146  15080882.452    15080888.120
       233.000         187.000
  12866183.550   -63384267.10249 -48291467.18548  12866183.147    12866188.046
       247.000         215.000
  15905965.859   -25639861.95349 -18620666.48546  15905965.709    15905970.791
       222.000         163.000
  13337542.086   -65971142.74649 -49466959.21048  13337541.342    13337545.757
       249.000         216.000
  14396875.038   -49362369.99349 -37867861.56147  14396874.631    14396879.255
       235.000         190.000
  16091990.416   -25036485.60649 -19481197.60646  16091989.448    16091995.214
       221.000         163.000
 98  1 25  2 48 29.9750000  0  7G 4G 9G24G30G 5G 8G10
  14562365.258   -72194362.27249 -55707090.64547  14562365.494    14562369.479
       239.000         195.000
  15073245.790   -70274646.98449 -53190470.59646  15073245.899    15073250.289
       233.000         187.000
  12844984.046   -63495671.02049 -48378275.41848  12844983.713    12844988.700
       247.000         215.000
  15866047.693   -25849633.50149 -18784124.78246  15866047.804    15866051.798
       221.000         163.000
  13307662.476   -66128161.22849 -49589311.26948  13307661.628    13307666.043
       249.000         216.000
  14376971.627   -49466963.15549 -37949362.73947  14376970.990    14376975.757
       235.000         190.000
  16052529.926   -25243851.48249 -19642781.36946  16052528.606    16052532.912
       221.000         163.000
 98  1 25  2 48 59.9750000  0  7G 4G 9G24G30G 5G 8G10
  14555525.771   -72230303.83149 -55735097.04447  14555525.729    14555529.701
       238.000         194.000
  15065663.666   -70314491.64049 -53221518.39346  15065663.068    15065668.022
       233.000         187.000
  12823880.221   -63606572.31949 -48464691.99748  12823879.823    12823884.830
       246.000         215.000
  15826146.299   -26059316.77349 -18947514.29946  15826146.207    15826150.467
       221.000         163.000
  13277848.444   -66284834.98249 -49711394.70648  13277847.807    13277852.008
       249.000         216.000
  14357179.703   -49570970.80149 -38030407.66747  14357179.352    14357184.254
       236.000         191.000
  16013089.188   -25451113.50749 -19804284.22446  16013088.599    16013093.986
       221.000         163.000
 98  1 25  2 49 29.9750000  0  7G 4G 9G24G30G 5G 8G10
  14548738.769   -72265969.60449 -55762888.55147  14548738.968    14548743.031
       238.000         194.000
  15058138.176   -70354038.56549 -53252334.19046  15058138.128    15058142.568
       233.000         187.000
  12802875.174   -63716954.58249 -48550704.13648  12802874.744    12802879.811
       247.000         215.000
  15786263.515   -26268902.05849 -19110827.47346  15786262.778    15786267.406
       222.000         163.000
  13248104.744   -66441139.24949 -49833190.23848  13248104.078    13248108.532
       249.000         216.000
  14337499.300   -49674392.12849 -38110995.72747  14337498.756    14337503.767
       235.000         191.000
  15973671.695   -25658253.72449 -19965692.15846  15973671.707    15973676.679
       223.000         163.000
 98  1 25  2 49 59.9750000  0  7G 4G 9G24G30G 5G 8G10
  14542009.430   -72301332.47149 -55790444.02547  14542009.346    14542013.520
       238.000         194.000
  15050668.678   -70393290.89349 -53282920.43546  15050668.379    15050673.687
       233.000         186.000
  12781968.536   -63826819.45849 -48636313.11348  12781968.387    12781973.214
       247.000         215.000
  15746401.017   -26478380.59649 -19274057.46846  15746401.113    15746405.230
       224.000         164.000
  13218436.713   -66597045.69549 -49954675.77448  13218435.987    13218440.619
       249.000         217.000
  14317931.790   -49777220.27949 -38191121.56647  14317931.632    14317936.545
       235.000         191.000
  15934277.904   -25865269.70449 -20127003.29746  15934277.149    15934283.688
       222.000         165.000
